     2              OBSERVATION DATA    GPS                 RINEX VERSION / TYPE
teqc 2000Feb29 20001128 20:19:37UTC                         PGM / RUN BY / DATE
                                                            COMMENT
L2: 1 -> 1; 150 -> 5; 250 -> 9                              COMMENT
L2: 1 -> 1; 150 -> 5; 250 -> 9                              COMMENT
L2: 1 -> 1; 150 -> 5; 250 -> 9                              COMMENT
L2: 1 -> 1; 150 -> 5; 250 -> 9                              COMMENT
L2: 1 -> 1; 150 -> 5; 250 -> 9                              COMMENT
Original Marker Name: SI01                                  COMMENT
Campaign Name: Hector Mine Fall 2000                        COMMENT
4-Character Station Name: SALY                              COMMENT
6-Character Antenna Code: DMRCHT                            COMMENT
Vertical Measurement Point: BCR                             COMMENT
Vertical Offset to Rinex Ref. Point: 0.0348                 COMMENT
Radial Measurement Point: ECF                               COMMENT
Radial Offset to Rinex Ref. Point: 0.1897                   COMMENT
Antenna Height from Field Measurement: 0.7090 m             COMMENT
Additional Antenna Identification Info.:                    COMMENT
Turborogue and Ashtech Choke Ring                           COMMENT
centered over firing pin                                    COMMENT
Original XYZ: -2326438.9876 -4724772.1469 3587454.6829      COMMENT
New XYZ position is based on association with SCEC monument COMMENT
E1F2H8I9+0011. Position of that monument is believed to be  COMMENT
valid to within 1 m horizontally; vertical accuracy         COMMENT
should be no worse than 3-times this value.                 COMMENT
                                                            COMMENT
Revised Rinex header created by UCSD GPS archive for        COMMENT
GSAC on 15-Jan-2001 (2001:015) 20:01:27 GMT                 COMMENT
For assistance contact dagnew@ucsd.edu                      COMMENT
or anderson@python.ucsd.edu                                 COMMENT
                                                            COMMENT
OP SALLY II MAY 90                                          MARKER NAME
PFO SCRIPPS INSTITUTION OF OCEANOGRAPHY                     OBSERVER / AGENCY
319 ASHTECH Z-XII3 CC00                                     REC # / TYPE / VERS
756 DORNE-MARGOL. TYPE T                                    ANT # / TYPE
 -2326429.0452 -4724739.6910  3587430.6861                  APPROX POSITION XYZ
        0.6484        0.0000        0.0000                  ANTENNA: DELTA H/E/N
     1     1     0                                          WAVELENGTH FACT L1/2
     7    C1    L1    L2    P1    P2    S1    S2            # / TYPES OF OBSERV
     0                                                      INTERVAL
  2000    10    23     0     0   30.000000                  TIME OF FIRST OBS
  2000    10    23    15    35    0.000000                  TIME OF LAST OBS
                                                            END OF HEADER
 00 10 23  0  0 30.0000000  0  8G31G 1G10G27G19G13G 8G 2
  21888533.391   -15175122.31249 -11421286.70146  21888533.524    21888545.244
       230.000         184.000
  24330287.324    -3899052.71149  -2861073.80745  24330287.542    24330309.792
       208.000         136.000
  24064904.277    -4134628.94549  -3068013.94445  24064904.273    24064923.349
       212.000         147.000
  20640454.986   -25515460.35649 -19871026.41347  20640454.770    20640464.724
       242.000         209.000
  21602538.547   -20374023.35549 -15426255.54047  21602538.324    21602550.408
       233.000         191.000
  22282086.029   -16029496.95649 -12474422.66646  22282086.253    22282099.117
       230.000         177.000
  20483929.750   -23079256.64249 -17364263.44947  20483929.081    20483939.649
       244.000         210.000
  22404805.105   -15236644.74249 -11269900.65147  22404804.167    22404817.428
       234.000         189.000
 00 10 23  0  1  0.0000000  0  8G31G 1G10G27G19G13G 8G 2
  21898167.083   -15124496.84849 -11381838.29446  21898167.054    21898178.611
       229.000         184.000
  24351152.367    -3789407.18749  -2775635.95545  24351152.948    24351173.946
       210.000         136.000
  24070661.073    -4104377.34549  -3044441.29745  24070660.319    24070679.313
       210.000         147.000
  20641617.162   -25509352.92549 -19866267.35147  20641616.916    20641627.226
       241.000         209.000
  21611880.948   -20324928.93649 -15388000.18747  21611880.876    21611893.187
       233.000         191.000
  22299968.530   -15935524.26349 -12401197.31346  22299969.712    22299982.339
       229.000         177.000
  20477295.708   -23114118.52049 -17391428.49347  20477295.064    20477305.726
       243.000         210.000
  22395686.140   -15284564.63649 -11307240.66547  22395685.560    22395698.218
       232.000         189.000
 00 10 23  0  1 30.0000000  0  8G31G 1G10G27G19G13G 8G 2
  21907907.318   -15073311.52849 -11341953.62446  21907907.251    21907918.983
       230.000         183.000
  24372037.563    -3679655.54049  -2690115.42345  24372037.000    24372059.869
       204.000         137.000
  24076500.656    -4073689.59149  -3020528.82145  24076500.905    24076519.389
       213.000         147.000
  20642832.904   -25502964.11749 -19861289.02447  20642832.724    20642842.766
       242.000         209.000
  21621272.748   -20275574.85849 -15349542.49547  21621272.954    21621284.853
       233.000         190.000
  22317907.750   -15841253.55049 -12327739.73746  22317907.884    22317920.859
       230.000         177.000
  20470704.614   -23148754.68849 -17418417.65147  20470704.066    20470714.577
       244.000         211.000
  22386610.535   -15332256.49749 -11344402.98547  22386609.882    22386622.762
       233.000         190.000
 00 10 23  0  2  0.0000000  0  9G31G 1G10G27G19G13G 7G 8G 2
  21917752.402   -15021575.25649 -11301639.65146  21917751.596    21917764.436
       229.000         183.000
  24392941.171    -3569807.35449  -2604519.67845  24392941.438    24392962.499
       208.000         138.000
  24082421.578    -4042575.04749  -2996283.77245  24082421.297    24082441.323
       214.000         146.000
  20644100.967   -25496300.20749 -19856096.34247  20644100.756    20644110.740
       241.000         209.000
  21630712.627   -20225967.98449 -15310887.82247  21630712.669    21630724.605
       233.000         190.000
  22335901.897   -15746694.16249 -12254057.22246  22335902.027    22335914.956
       229.000         176.000
                  -1745053.20249   -398422.40643
       206.000          74.000
  20464155.313   -23183171.17949 -17445235.64547  20464154.800    20464165.127
       243.000         211.000
  22377576.920   -15379727.86649 -11381393.49547  22377576.356    22377588.931
       233.000         190.000
 00 10 23  0  2 30.0000000  0  9G31G 1G10G27G19G13G 7G 8G 2
  21927703.353   -14969282.71949 -11260892.22346  21927702.847    21927715.556
       229.000         183.000
  24413864.149    -3459857.16749  -2518844.43545  24413864.074    24413885.380
       209.000         138.000
  24088425.030    -4011028.16149  -2971701.83945  24088424.071    24088441.765
       209.000         146.000
  20645423.063   -25489352.51649 -19850682.52847  20645422.811    20645433.054
       241.000         209.000
  21640202.141   -20176100.44449 -15272030.02747  21640201.490    21640214.424
       232.000         190.000
  22353951.972   -15651840.77849 -12180145.61046  22353953.160    22353964.909
       228.000         175.000
                  -1850909.84049   -480908.56143
       202.000          74.000
  20457649.474   -23217359.38449 -17471875.74647  20457648.794    20457659.417
       243.000         211.000
  22368586.635   -15426971.35549 -11418206.43347  22368585.401    22368599.251
       233.000         190.000
 00 10 23  0  3  0.0000000  0  9G31G 1G10G27G19G13G 7G 8G 2
  21937760.186   -14916433.62349 -11219711.13546  21937760.015    21937772.243
       230.000         183.000
  24434806.457    -3349805.54149  -2433090.14445  24434807.155    24434827.654
       206.000         138.000
  24094510.249    -3979049.11549  -2946783.14945  24094509.738    24094529.073
       211.000         146.000
  20646799.735   -25482117.99949 -19845045.22347  20646799.698    20646809.479
       241.000         209.000
  21649741.627   -20125970.18449 -15232967.52547  21649741.726    21649754.018
       232.000         189.000
  22372057.925   -15556693.78049 -12106005.22246  22372058.136    22372071.526
       228.000         175.000
                  -1956747.10749   -563379.79943
       207.000          74.000
  20451187.662   -23251316.17749 -17498335.53147  20451187.158    20451197.623
       243.000         211.000
  22359640.003   -15473985.55149 -11454840.71647  22359639.384    22359651.938
       232.000         190.000
 00 10 23  0  3 30.0000000  0  9G31G 1G10G27G19G13G 7G 8G 2
  21947922.174   -14863032.04649 -11178099.52646  21947921.540    21947933.859
       228.000         183.000
  24455767.239    -3239656.84249  -2347260.20945  24455768.194    24455789.629
       204.000         137.000
  24100677.104    -3946641.95549  -2921530.87345  24100676.919    24100696.102
       213.000         146.000
  20648230.716   -25474598.02849 -19839185.47447  20648230.278    20648240.430
       240.000         209.000
  21659330.708   -20075579.35549 -15193701.96647  21659330.617    21659343.311
       232.000         189.000
  22390218.848   -15461257.95249 -12031639.76046  22390218.574    22390231.166
       228.000         175.000
                  -2062564.85649   -410860.35543
       198.000          74.000
  20444769.647   -23285042.80249 -17524615.94447  20444768.721    20444779.084
       243.000         211.000
  22350736.537   -15520773.00749 -11491298.29947  22350735.518    22350748.769
       232.000         190.000
 00 10 23  0  4  0.0000000  0  9G31G 1G10G27G19G13G 7G 8G 2
  21958189.063   -14809079.23149 -11136058.40946  21958188.772    21958200.848
       229.000         182.000
  24476746.123    -3129412.85849  -2261356.01745  24476746.351    24476765.836
       205.000         137.000
  24106925.383    -3913807.75249  -2895945.81545  24106924.174    24106944.242
       215.000         147.000
  20649716.319   -25466790.96549 -19833102.03447  20649715.929    20649726.210
       240.000         209.000
  21668969.539   -20024927.02949 -15154232.65447  21668969.754    21668982.150
       231.000         189.000
  22408434.501   -15365534.69549 -11957050.33146  22408434.474    22408447.355
       229.000         174.000
                  -2168360.19549   -493298.69543
       196.000          74.000
  20438395.776   -23318537.56949 -17550715.69647  20438395.074    20438405.581
       243.000         211.000
  22341876.224   -15567333.64449 -11527579.15947  22341875.511    22341888.487
       232.000         191.000
 00 10 23  0  4 30.0000000  0  9G31G 1G10G27G19G13G 7G 8G 2
  21968560.133   -14754578.87449 -11093590.62646  21968559.852    21968571.984
       228.000         182.000
  24497742.489    -3019077.16849  -2175380.37445  24497741.836    24497764.587
       204.000         138.000
  24113254.032    -3880550.92349  -2870031.46445  24113253.452    24113272.405
       211.000         146.000
  20651256.516   -25458697.24049 -19826795.21847  20651256.413    20651266.355
       240.000         209.000
  21678657.887   -19974014.43249 -15114560.53647  21678657.578    21678669.683
       231.000         189.000
  22426704.135   -15269527.66549 -11882239.79446  22426704.695    22426718.004
       228.000         174.000
                  -2274132.18749   -575719.00243
       200.000          74.000
  20432065.915   -23351800.87349 -17576635.08947  20432065.316    20432075.562
       243.000         211.000
  22333058.738   -15613669.29749 -11563684.69647  22333057.446    22333070.928
       233.000         191.000
 00 10 23  0  5  0.0000000  0  9G31G 1G10G27G19G13G 7G 8G 2
  21979035.016   -14699533.14549 -11050697.87746  21979034.841    21979047.176
       228.000         182.000
  24518755.841    -2908652.30149  -2089335.21345  24518757.527    24518778.434
       208.000         137.000
  24119662.526    -3846873.53049  -2843789.37945  24119662.115    24119680.896
       209.000         146.000
  20652851.365   -25450316.04349 -19820264.39847  20652851.279    20652861.207
       241.000         209.000
  21688395.767   -19922841.75249 -15074685.75147  21688396.066    21688408.111
       231.000         189.000
  22445027.177   -15173239.77849 -11807210.41246  22445027.861    22445039.912
       228.000         174.000
                  -2379878.64449   -423257.35743
       204.000          74.000
  20425780.333   -23384831.59849 -17602373.24547  20425779.777    20425790.050
       243.000         211.000
  22324283.967   -15659780.34749 -11599615.22347  22324283.330    22324295.929
       233.000         191.000
 00 10 23  0  5 30.0000000  0  9G31G 1G10G27G19G13G 7G 8G 2
  21989613.529   -14643942.73049 -11007380.71646  21989613.018    21989625.226
       228.000         182.000
  24539785.968    -2798138.92949  -2003221.10445  24539787.129    24539807.097
       206.000         136.000
  24126151.150    -3812776.18949  -2817220.08645  24126150.613    24126170.598
       211.000         146.000
  20654501.424   -25441645.00749 -19813507.73447  20654501.066    20654511.286
       240.000         209.000
  21698183.429   -19871407.27849 -15034606.97547  21698183.420    21698195.656
       231.000         188.000
  22463403.552   -15076671.70249 -11731962.69946  22463403.519    22463416.560
       228.000         173.000
                  -2485595.63649   -505633.83743
       203.000          74.000
  20419539.443   -23417627.36649 -17627928.31547  20419538.907    20419549.117
       243.000         211.000
  22315552.107   -15705665.88949 -11635370.03747  22315550.946    22315563.889
       232.000         191.000
 00 10 23  0  6  0.0000000  0  9G31G 1G10G27G19G13G 7G 8G 2
  22000295.022   -14587811.12849 -10963641.85746  22000294.863    22000306.518
       230.000         181.000
  24560832.179    -2687541.24649  -1917041.29045  24560832.799    24560853.747
       203.000         135.000
  24132718.920    -3778262.94549  -2790326.70245  24132719.006    24132736.755
       213.000         146.000
  20656206.441   -25432684.87949 -19806525.80347  20656206.046    20656216.287
       242.000         209.000
  21708020.619   -19819712.59749 -14994325.43747  21708020.270    21708032.645
       233.000         188.000
  22481832.446   -14979827.65249 -11656499.93646  22481832.871    22481845.862
       229.000         173.000
                  -2591282.67849   -587986.89043
       209.000          74.000
  20413343.134   -23450188.87749 -17653300.84247  20413342.467    20413352.876
       245.000         211.000
  22306862.730   -15751328.19349 -11670950.89647  22306861.581    22306874.657
       235.000         191.000
 00 10 23  0  6 30.0000000  0  8G31G10G27G19G13G 7G 8G 2
  22011079.948   -14531136.21449 -10919479.63346  22011079.147    22011092.322
       229.000         181.000
  24139366.121    -3743331.60849  -2763107.54045  24139365.045    24139384.662
       210.000         146.000
  20657967.513   -25423430.39349 -19799314.50847  20657967.147    20657977.443
       241.000         208.000
  21717908.155   -19767753.39749 -14953837.77847  21717909.014    21717920.722
       231.000         188.000
  22500314.299   -14882705.41849 -11580820.43046  22500315.256    22500328.228
       227.000         172.000
                  -2696933.31349   -670311.52144                  24369186.277
       206.000         131.000
  20407192.418   -23482510.90649 -17678486.75947  20407191.925    20407202.241
       244.000         211.000
  22298216.573   -15796763.35249 -11706354.75947  22298215.627    22298228.469
       234.000         191.000
 00 10 23  0  7  0.0000000  0  8G31G10G27G19G13G 7G 8G 2
  22021966.847   -14473925.52049 -10874899.92546  22021966.410    22021978.360
       229.000         181.000
  24146091.406    -3707989.76849  -2735568.53245  24146092.058    24146110.624
       215.000         146.000
  20659783.759   -25413885.93449 -19791877.25647  20659783.619    20659793.665
       243.000         208.000
  21727845.101   -19715534.62249 -14913147.85047  21727845.006    21727857.623
       233.000         188.000
  22518847.623   -14785312.75849 -11504930.19746  22518848.066    22518860.427
       229.000         172.000
  24349067.662    -2802550.29549   -752609.89645  24349066.782    24349088.198
       202.000         136.000
  20401086.501   -23514597.34649 -17703489.09747  20401085.902    20401096.129
       245.000         212.000
  22289612.594   -15841977.00449 -11741586.01647  22289611.853    22289624.280
       235.000         192.000
 00 10 23  0  7 30.0000000  0  8G31G10G27G19G13G 7G 8G 2
  22032955.495   -14416179.85549 -10829903.35546  22032955.392    22032967.746
       228.000         181.000
  24152894.980    -3672238.47549  -2707710.43945  24152894.259    24152913.881
       214.000         146.000
  20661655.591   -25404049.32349 -19784212.35547  20661655.224    20661665.642
       241.000         208.000
  21737831.746   -19663054.74749 -14872254.46247  21737832.172    21737843.995
       232.000         188.000
  22537432.131   -14687651.10349 -11428830.35446  22537432.440    22537445.815
       226.000         172.000
  24328976.000    -2908130.16549   -834879.36045  24328973.072    24328995.597
       209.000         138.000
  20395025.843   -23546446.08049 -17728306.20847  20395025.388    20395035.437
       243.000         212.000
  22281050.916   -15886968.29849 -11776644.01347  22281049.990    22281062.743
       233.000         192.000
 00 10 23  0  8  0.0000000  0  8G31G10G27G19G13G 7G 8G 2
  22044045.695   -14357900.68849 -10784491.05746  22044045.675    22044057.895
       229.000         181.000
  24159775.998    -3636079.16649  -2679534.41945  24159774.976    24159794.552
       211.000         146.000
  20663583.321   -25393918.98049 -19776318.57047  20663583.219    20663593.300
       240.000         208.000
  21747868.158   -19610313.21649 -14831157.18646  21747868.234    21747880.363
       231.000         187.000
  22556067.530   -14589721.98149 -11352522.10246  22556068.289    22556081.351
       227.000         171.000
  24308892.068    -3013669.89449   -917117.53745  24308890.245    24308912.479
       199.000         139.000
  20389010.746   -23578055.21249 -17752936.61247  20389010.022    20389020.384
       243.000         212.000
  22272531.586   -15931737.19249 -11811528.71047  22272530.698    22272543.405
       233.000         192.000
 00 10 23  0  8 30.0000000  0  8G31G10G27G19G13G 7G 8G 2
  22055236.889   -14299090.75749 -10738665.18246  22055236.807    22055248.811
       228.000         181.000
  24166733.835    -3599514.87649  -2651042.82945  24166732.859    24166753.662
       213.000         146.000
  20665566.996   -25383494.56849 -19768195.64347  20665566.766    20665576.955
       240.000         208.000
  21757954.253   -19557310.61149 -14789856.48846  21757954.092    21757966.412
       231.000         187.000
  22574753.197   -14491528.61849 -11276007.93946  22574753.393    22574766.258
       227.000         171.000
  24288816.065    -3119167.92049   -999323.21245  24288813.864    24288835.726
       197.000         140.000
  20383041.321   -23609424.36249 -17777380.02247  20383040.675    20383051.104
       243.000         212.000
  22264054.335   -15976284.71549 -11846240.91647  22264053.467    22264065.940
       233.000         192.000
 00 10 23  0  9  0.0000000  0  8G31G10G27G19G13G 7G 8G 2
  22066528.810   -14239751.61249 -10692426.92646  22066528.400    22066540.877
       228.000         181.000
  24173768.651    -3562547.07549  -2622236.81945  24173767.519    24173786.929
       212.000         145.000
  20667607.023   -25372774.10149 -19759842.01747  20667606.674    20667616.880
       241.000         208.000
  21768090.221   -19504045.80349 -14748351.46746  21768090.465    21768102.152
       232.000         187.000
  22593488.966   -14393072.10549 -11199288.73246  22593489.583    22593502.461
       227.000         171.000
  24268748.623    -3224620.75249  -1081493.66545  24268746.386    24268768.873
       202.000         140.000
  20377117.934   -23640551.70449 -17801635.00647  20377117.405    20377127.565
       244.000         212.000
  22255619.370   -16020610.17349 -11880780.07947  22255618.956    22255630.781
       235.000         192.000
 00 10 23  0  9 30.0000000  0  8G31G10G27G19G13G 7G 8G 2
  22077920.929   -14179885.84849 -10645778.32346  22077920.634    22077932.707
       229.000         181.000
  24180879.617    -3525178.89249  -2593118.78945  24180878.746    24180898.940
       208.000         145.000
  20669703.411   -25361757.47449 -19751257.62347  20669703.002    20669713.212
       241.000         208.000
  21778275.942   -19450519.54949 -14706642.72546  21778275.614    21778287.858
       231.000         187.000
  22612274.078   -14294356.02149 -11122367.27546  22612274.128    22612287.972
       227.000         170.000
  24248690.106    -3330027.07249  -1163627.88945  24248687.963    24248709.641
       206.000         141.000
  20371240.652   -23671436.68149 -17825701.13747  20371239.854    20371250.152
       244.000         212.000
  22247226.375   -16064714.94249 -11915147.28447  22247225.636    22247238.079
       234.000         192.000
 00 10 23  0 10  0.0000000  0  8G31G10G27G19G13G 7G 8G 2
  22089413.108   -14119494.03549 -10598719.80546  22089412.698    22089424.670
       229.000         181.000
  24188066.717    -3487410.89849  -2563689.25145  24188065.371    24188085.767
       210.000         146.000
  20671856.643   -25350442.12949 -19742440.45947  20671856.292    20671866.504
       241.000         208.000
  21788511.738   -19396730.14649 -14664728.93546  21788511.248    21788523.902
       231.000         187.000
  22631108.612   -14195380.58749 -11045243.71746  22631110.029    22631122.241
       227.000         170.000
  24228641.163    -3435382.78849  -1245722.68745  24228639.642    24228660.355
       203.000         141.000
  20365410.057   -23702076.53249 -17849576.26247  20365409.161    20365419.557
       243.000         212.000
  22238875.589   -16108598.06149 -11949341.77147  22238874.528    22238887.123
       234.000         193.000
 00 10 23  0 10 30.0000000  0  8G31G10G27G19G13G 7G 8G 2
  22101004.850   -14058579.30249 -10551253.81546  22101003.993    22101016.521
       228.000         180.000
  24195329.070    -3449245.96249  -2533950.37745  24195328.083    24195347.557
       209.000         145.000
  20674066.738   -25338827.95549 -19733390.44147  20674066.392    20674076.662
       240.000         208.000
  21798797.523   -19342678.03849 -14622610.43546  21798797.606    21798809.776
       230.000         186.000
  22649991.773   -14096149.45549 -10967920.90646  22649991.647    22650006.479
       226.000         170.000
  24208602.166    -3540686.31749  -1327776.84145  24208599.925    24208621.749
       208.000         143.000
  20359626.098   -23732471.03049 -17873260.20947  20359625.295    20359635.514
       243.000         212.000
  22230566.775   -16152260.59449 -11983364.38547  22230565.660    22230578.226
       234.000         193.000
 00 10 23  0 11  0.0000000  0  8G31G10G27G19G13G 7G 8G 2
  22112695.711   -13997143.61149 -10503381.87446  22112695.180    22112707.733
       228.000         180.000
  24202666.846    -3410685.95649  -2503903.69445  24202666.313    24202685.438
       211.000         146.000
  20676333.927   -25326913.68149 -19724106.58447  20676333.782    20676344.008
       240.000         208.000
  21809133.317   -19288363.20649 -14580287.21846  21809133.551    21809145.247
       230.000         186.000
  22668923.210   -13996664.75049 -10890400.51546  22668923.481    22668936.632
       226.000         170.000
  24188573.543    -3645935.19449  -1409788.43145  24188572.110    24188592.265
       211.000         142.000
  20353889.111   -23762618.79049 -17896751.90347  20353888.556    20353898.526
       243.000         212.000
  22222299.900   -16195702.79249 -12017215.31447  22222299.092    22222311.232
       234.000         193.000
 00 10 23  0 11 30.0000000  0  8G31G10G27G19G13G 7G 8G 2
  22124485.178   -13935189.64149 -10455106.07046  22124484.818    22124497.121
       228.000         180.000
  24210079.227    -3371734.19749  -2473551.72845  24210080.270    24210097.704
       211.000         145.000
  20678658.324   -25314698.92849 -19714588.57747  20678658.043    20678668.133
       240.000         208.000
  21819519.029   -19233785.97349 -14537759.53146  21819518.931    21819531.230
       231.000         186.000
  22687902.348   -13896929.43849 -10812684.84846  22687902.952    22687916.688
       225.000         169.000
  24168555.722    -3751127.49149  -1491755.96645  24168554.758    24168574.410
       211.000         143.000
  20348199.183   -23792519.13749 -17920050.79847  20348198.495    20348208.573
       244.000         212.000
  22214074.754   -16238925.67349 -12050895.34147  22214073.957    22214085.862
       235.000         193.000
 00 10 23  0 12  0.0000000  0  8G31G10G27G19G13G 7G 8G 2
  22136372.751   -13872720.17049 -10406428.57946  22136372.728    22136384.960
       227.000         179.000
  24217565.631    -3332393.30349  -2442896.53645  24217564.769    24217585.371
       211.000         146.000
  20681039.964   -25302183.26449 -19704836.09847  20681039.864    20681049.876
       240.000         208.000
  21829954.644   -19178946.68949 -14495027.65546  21829954.527    21829966.761
       230.000         186.000
  22706928.673   -13796946.01149 -10734775.84846  22706928.710    22706942.731
       224.000         169.000
  24148549.016    -3856261.27149  -1573677.93745  24148546.909    24148568.440
       207.000         143.000
  20342556.490   -23822171.46049 -17943156.43047  20342555.922    20342565.966
       243.000         212.000
  22205891.147   -16281930.09749 -12084405.15747  22205890.582    22205902.797
       234.000         193.000
 00 10 23  0 12 30.0000000  0  8G31G10G27G19G13G 7G 8G 2
  22148358.177   -13809736.41849 -10357350.35446  22148357.771    22148370.249
       227.000         179.000
  24225125.615    -3292665.10949  -2411939.54445  24225124.875    24225144.164
       209.000         146.000
  20683479.243   -25289364.72849 -19694847.61747  20683479.185    20683489.031
       240.000         208.000
  21840440.247   -19123844.54949 -14452090.96046  21840440.548    21840452.535
       230.000         185.000
  22726001.800   -13696716.58749 -10656675.15146  22726002.076    22726016.435
       224.000         168.000
  24128554.063    -3961333.40249  -1655551.89945  24128552.341    24128572.911
       205.000         144.000
  20336961.364   -23851573.72149 -17966067.20947  20336960.805    20336970.897
       243.000         212.000
  22197749.253   -16324715.66049 -12117744.43147  22197748.069    22197760.969
       235.000         194.000
 00 10 23  0 13  0.0000000  0  8G31G10G27G19G13G 7G 8G 2
  22160440.948   -13746240.90749 -10307873.34546  22160440.786    22160453.243
       228.000         179.000
  24232758.929    -3252551.88749  -2380682.54645  24232758.640    24232778.461
       209.000         146.000
  20685976.256   -25276242.60249 -19684622.55747  20685975.857    20685986.130
       242.000         208.000
  21850975.881   -19068479.44349 -14408949.34646  21850975.974    21850987.671
       231.000         185.000
  22745121.380   -13596243.33449 -10578384.46546  22745121.520    22745135.334
       225.000         168.000
  24108571.276    -4066341.66249  -1737376.12945  24108570.244    24108591.023
       208.000         144.000
  20331414.032   -23880724.79249 -17988782.25347  20331413.325    20331423.493
       245.000         212.000
  22189648.826   -16367283.17049 -12150913.79147  22189648.246    22189659.952
       236.000         194.000
 00 10 23  0 13 30.0000000  0  8G31G10G27G19G13G 7G 8G 2
  22172620.742   -13682235.71749 -10257999.18446  22172620.154    22172632.775
       227.000         179.000
  24240465.265    -3212055.36349  -2349126.86445  24240464.296    24240483.716
       210.000         145.000
  20688531.389   -25262815.26749 -19674159.68247  20688531.108    20688541.251
       240.000         207.000
  21861561.705   -19012850.66049 -14365602.28346  21861561.316    21861573.518
       230.000         184.000
  22764286.987   -13495528.15149 -10499905.26846  22764288.031    22764300.703
       224.000         167.000
  24088601.278    -4171283.04849  -1819148.27545  24088599.150    24088621.298
       208.000         145.000
  20325914.831   -23909623.14249 -18011300.37647  20325914.172    20325924.328
       244.000         212.000
  22181589.949   -16409632.31049 -12183913.00147  22181589.405    22181600.978
       235.000         194.000
 00 10 23  0 14  0.0000000  0  8G31G10G27G19G13G 7G 8G 2
  22184897.125   -13617722.98749 -10207729.52946  22184896.865    22184908.901
       226.000         178.000
  24248243.850    -3171177.92149  -2317274.39045  24248243.880    24248262.377
       212.000         145.000
  20691144.800   -25249081.76949 -19663458.24047  20691144.609    20691154.727
       240.000         207.000
  21872197.668   -18956958.28949 -14322049.81846  21872197.353    21872210.072
       229.000         184.000
  22783498.166   -13394573.42649 -10421239.41646  22783498.822    22783511.993
       224.000         167.000
  24068644.440    -4276155.26449  -1900866.54545  24068643.225    24068663.953
       208.000         146.000
  20320463.921   -23938267.52549 -18033620.60547  20320463.496    20320473.518
       243.000         212.000
  22173572.495   -16451763.72749 -12216742.56347  22173571.516    22173583.735
       235.000         194.000
 00 10 23  0 14 30.0000000  0  8G31G10G27G19G13G 7G 8G 2
  22197269.309   -13552706.75949 -10157067.54246  22197269.030    22197280.986
       227.000         178.000
  24256094.684    -3129923.86049  -2285128.40545  24256093.346    24256113.361
       206.000         145.000
  20693816.306   -25235042.81549 -19652518.77047  20693816.059    20693826.085
       241.000         207.000
  21882883.548   -18900803.80949 -14278293.10846  21882883.335    21882896.072
       229.000         184.000
  22802754.052   -13293383.66149 -10342390.40346  22802754.641    22802767.583
       224.000         167.000
  24048700.931    -4380957.41449  -1982530.25345  24048699.292    24048720.081
       212.000         146.000
  20315061.269   -23966658.41649 -18055743.30647  20315060.636    20315070.727
       244.000         212.000
  22165596.134   -16493679.42349 -12249404.01647  22165595.058    22165607.862
       235.000         194.000
 00 10 23  0 15  0.0000000  0  8G31G10G27G19G13G 7G 8G 2
  22209737.147   -13487187.86949 -10106013.86146  22209736.889    22209750.181
       227.000         178.000
  24264016.519    -3088294.36149  -2252689.91845  24264015.991    24264035.535
       208.000         145.000
  20696546.296   -25220696.51549 -19641339.81047  20696545.999    20696556.123
       240.000         207.000
  21893619.434   -18844386.26349 -14234331.42046  21893619.263    21893631.293
       229.000         184.000
  22822054.492   -13191959.76949 -10263358.96146  22822055.400    22822068.061
       223.000         166.000
  24028771.444    -4485686.25049  -2064136.81545  24028769.689    24028790.328
       211.000         146.000
  20309707.244   -23994793.69949 -18077666.83048  20309706.643    20309716.621
       244.000         213.000
  22157660.926   -16535378.74449 -12281896.87847  22157660.181    22157672.251
       235.000         195.000
 00 10 23  0 15 30.0000000  0  8G31G10G27G19G13G 7G 8G 2
  22222300.529   -13421166.97049 -10054569.02146  22222299.992    22222312.621
       226.000         178.000
  24272009.589    -3046290.01749  -2219959.33345  24272008.158    24272028.286
       209.000         145.000
  20699335.326   -25206040.07549 -19629919.19547  20699335.328    20699345.105
       240.000         207.000
  21904405.792   -18787703.69049 -14190163.22346  21904406.005    21904418.104
       229.000         183.000
  22841399.376   -13090302.37049 -10184145.55946  22841399.958    22841413.161
       223.000         165.000
  24008856.770    -4590337.30249  -2145682.78145  24008855.405    24008875.970
       214.000         147.000
  20304402.463   -24022670.23649 -18099388.74748  20304401.875    20304411.873
       243.000         213.000
  22149767.116   -16576860.30949 -12314220.06247  22149766.436    22149778.588
       235.000         195.000
 00 10 23  0 16  0.0000000  0  8G31G10G27G19G13G 7G 8G 2
  22234958.475   -13354649.05949 -10002736.91146  22234957.559    22234970.472
       225.000         178.000
  24280072.928    -3003915.82949  -2186940.54645  24280071.256    24280092.380
       209.000         145.000
  20702183.068   -25191075.02649 -19618258.10247  20702182.787    20702192.798
       239.000         207.000
  21915242.146   -18730758.37249 -14145790.28746  21915242.124    21915254.471
       228.000         183.000
  22860787.739   -12988416.47649 -10104754.11146  22860788.645    22860801.696
       223.000         165.000
  23988956.810    -4694910.76649  -2227168.26145  23988955.752    23988975.914
       211.000         147.000
  20299146.648   -24050289.39349 -18120910.11348  20299146.243    20299155.970
       243.000         213.000
  22141914.211   -16618127.14849 -12346375.92847  22141913.792    22141925.534
       235.000         195.000
 00 10 23  0 16 30.0000000  0  8G31G10G27G19G13G 7G 8G 2
  22247710.747   -13287635.48749  -9950518.56546  22247710.281    22247722.759
       226.000         178.000
  24288206.761    -2961173.22149  -2153634.68745  24288206.515    24288226.541
       208.000         145.000
  20705089.882   -25175799.48749 -19606355.06647  20705089.575    20705099.704
       240.000         207.000
  21926128.761   -18673549.04349 -14101211.61946  21926128.787    21926141.024
       229.000         183.000
  22880219.288   -12886303.44749 -10025185.67046  22880220.503    22880233.863
       223.000         164.000
  23969072.284    -4799403.18049  -2308590.57045  23969070.338    23969090.468
       213.000         147.000
  20293940.253   -24077648.87949 -18142229.12948  20293939.568    20293949.584
       244.000         213.000
  22134102.289   -16659178.65749 -12378363.99847  22134101.620    22134113.536
       235.000         195.000
 00 10 23  0 17  0.0000000  0  8G31G10G27G19G13G 7G 8G 2
  22260556.818   -13220129.10349  -9897916.22146  22260556.208    22260568.922
       227.000         178.000
  24296410.168    -2918065.03249  -2120043.95945  24296410.185    24296429.355
       212.000         145.000
  20708055.884   -25160212.89549 -19594209.64747  20708055.332    20708065.625
       241.000         207.000
  21937065.525   -18616076.22649 -14056427.64546  21937065.156    21937077.668
       230.000         183.000
  22899693.619   -12783965.95749  -9945442.32946  22899694.781    22899707.413
       223.000         164.000
  23949203.555    -4903812.74849  -2389948.29745  23949202.402    23949222.107
       209.000         147.000
  20288783.442   -24104747.90549 -18163345.18948  20288782.718    20288792.677
       245.000         213.000
  22126331.133   -16700015.80149 -12410185.02847  22126330.250    22126342.458
       236.000         195.000
 00 10 23  0 17 30.0000000  0  8G31G10G27G19G13G 7G 8G 2
  22273496.261   -13152131.92749  -9844931.43446  22273496.239    22273508.306
       226.000         177.000
  24304682.533    -2874593.60249  -2086170.20145  24304681.669    24304701.526
       207.000         144.000
  20711081.307   -25144314.12949 -19581820.97947  20711080.777    20711091.074
       240.000         207.000
  21948052.458   -18558339.67749 -14011438.15846  21948052.310    21948064.981
       229.000         183.000
  22919210.088   -12681406.73049  -9865526.20546  22919211.030    22919224.442
       221.000         163.000
  23929351.094    -5008136.63649  -2471239.23845  23929349.636    23929369.357
       208.000         147.000
  20283676.419   -24131585.24149 -18184257.34348  20283675.574    20283685.834
       244.000         213.000
  22118600.697   -16740639.13749 -12441839.45947  22118599.712    22118611.734
       235.000         195.000
 00 10 23  0 18  0.0000000  0  8G31G10G27G19G13G 7G 8G 2
  22286528.698   -13083646.12849  -9791565.91646  22286528.158    22286540.868
       227.000         177.000
  24313023.690    -2830761.07549  -2052015.05945  24313023.694    24313042.986
       212.000         144.000
  20714166.372   -25128102.03949 -19569188.16747  20714166.361    20714176.334
       241.000         207.000
  21959089.602   -18500339.31949 -13966243.12146  21959089.709    21959102.469
       230.000         183.000
  22938768.410   -12578627.76149  -9785438.86046  22938769.161    22938783.387
       223.000         163.000
  23909515.403    -5112372.34449  -2552461.43045  23909513.388    23909533.697
       211.000         147.000
  20278619.509   -24158159.30949 -18204964.35948  20278618.974    20278628.852
       245.000         213.000
  22110910.920   -16781048.60549 -12473327.24147  22110910.215    22110922.048
       236.000         196.000
 00 10 23  0 18 30.0000000  0  8G31G10G27G19G13G 7G 8G 2
  22299653.562   -13014674.72049  -9737821.99746  22299653.281    22299665.228
       225.000         177.000
  24321433.023    -2786570.22849  -2017580.70645  24321431.493    24321451.829
       208.000         144.000
  20717311.119   -25111576.18249 -19556310.85947  20717310.584    20717320.826
       240.000         207.000
  21970176.846   -18442075.74849 -13920842.96246  21970176.633    21970188.872
       229.000         182.000
  22958367.988   -12475631.81749  -9705182.44145  22958368.992    22958382.812
       221.000         162.000
  23889696.885    -5216517.78649  -2633613.27245  23889695.278    23889714.775
       211.000         147.000
  20273612.795   -24184469.41249 -18225465.68748  20273612.050    20273622.151
       243.000         213.000
  22103261.687   -16821245.23649 -12504649.16647  22103260.711    22103272.468
       236.000         196.000
 00 10 23  0 19  0.0000000  0  8G31G10G27G19G13G 7G 8G 2
  22312870.594   -12945218.80949  -9683700.55246  22312870.171    22312883.240
       225.000         177.000
  24329910.054    -2742022.33149  -1982868.12445  24329909.984    24329929.444
       206.000         144.000
  20720516.024   -25094734.23749 -19543187.25847  20720515.815    20720525.857
       240.000         207.000
  21981314.524   -18383547.11249 -13875236.27646  21981314.732    21981326.463
       228.000         182.000
  22978008.663   -12372420.17249  -9624757.94845  22978009.475    22978023.255
       221.000         162.000
  23869896.229    -5320569.39249  -2714691.96945  23869894.166    23869915.385
       212.000         148.000
  20268656.870   -24210512.87049 -18245759.24448  20268656.451    20268666.155
       244.000         213.000
  22095653.101   -16861228.17449 -12535804.58147  22095652.308    22095664.311
       236.000         196.000
 00 10 23  0 19 30.0000000  0  8G31G10G27G19G13G 7G 8G 2
  22326179.014   -12875282.73749  -9629204.94246  22326179.518    22326191.211
       224.000         176.000
  24338454.144    -2697121.90849  -1947880.85445  24338452.750    24338472.844
       206.000         144.000
  20723780.905   -25077577.15249 -19529818.08547  20723780.645    20723790.772
       240.000         207.000
  21992502.187   -18324755.77649 -13829424.88446  21992502.267    21992514.682
       228.000         182.000
  22997689.541   -12268997.05749  -9544168.67045  22997690.490    22997703.872
       221.000         162.000
  23850113.487    -5424526.75849  -2795697.23045  23850111.881    23850131.283
       212.000         148.000
  20263751.517   -24236290.52949 -18265845.67348  20263750.917    20263760.930
       243.000         213.000
  22088084.674   -16900999.91349 -12566795.42047  22088083.838    22088095.687
       235.000         196.000
 00 10 23  0 20  0.0000000  0  8G31G10G27G19G13G 7G 8G 2
  22339578.687   -12804867.14749  -9574335.70046  22339578.502    22339590.736
       225.000         176.000
  24347065.490    -2651869.61349  -1912619.41145  24347065.847    24347085.183
       209.000         143.000
  20727106.232   -25060102.38849 -19516201.38347  20727106.093    20727116.205
       240.000         207.000
  22003740.196   -18265699.72149 -13783407.23246  22003739.778    22003752.678
       228.000         182.000
  23017410.525   -12165363.22349  -9463415.19745  23017411.018    23017425.656
       220.000         161.000
  23830349.470    -5528385.79449  -2876625.85445  23830347.464    23830367.158
       208.000         148.000
  20258897.295   -24261799.45449 -18285722.70548  20258896.678    20258906.621
       244.000         214.000
  22080556.713   -16940559.17149 -12597620.69347  22080556.229    22080567.718
       236.000         196.000
 00 10 23  0 20 30.0000000  0  8G31G10G27G19G13G 7G 8G 2
  22353068.899   -12733975.74949  -9519095.68846  22353068.503    22353081.100
       225.000         175.000
  24355743.125    -2606269.61349  -1877087.02245  24355742.920    24355761.230
       207.000         143.000
  20730491.916   -25042310.45749 -19502337.53347  20730491.739    20730501.843
       240.000         207.000
  22015028.388   -18206380.11949 -13737184.20746  22015028.913    22015041.415
       228.000         182.000
  23037170.886   -12061522.49549  -9382500.50345  23037171.268    23037185.004
       220.000         161.000
  23810604.331    -5632145.17849  -2957476.83245  23810602.203    23810622.081
       208.000         148.000
  20254094.170   -24287039.89449 -18305390.53448  20254093.553    20254103.414
       244.000         214.000
  22073068.825   -16979907.84149 -12628281.86947  22073067.713    22073080.088
       235.000         196.000
 00 10 23  0 21  0.0000000  0  8G31G10G27G19G13G 7G 8G 2
  22366649.249   -12662610.71649  -9463486.61846  22366649.071    22366661.686
       226.000         175.000
  24364486.252    -2560323.91549  -1841285.26545  24364486.247    24364505.476
       208.000         142.000
  20733938.238   -25024199.97649 -19488225.46247  20733937.913    20733948.055
       240.000         207.000
  22026366.753   -18146796.84149 -13690755.72846  22026366.884    22026379.614
       228.000         181.000
  23056970.157   -11957477.21349  -9301426.42345  23056970.491    23056985.012
       221.000         160.000
  23790878.617    -5735802.53249  -3038248.31845  23790877.059    23790896.210
       210.000         149.000
  20249342.467   -24312010.02849 -18324847.73148  20249341.842    20249351.645
       244.000         214.000
  22065620.988   -17019046.01949 -12658779.01747  22065619.849    22065632.250
       236.000         196.000
 00 10 23  0 21 30.0000000  0  8G31G10G27G19G13G 7G 8G 2
  22380319.219   -12590774.67949  -9407510.53146  22380319.247    22380331.231
       226.000         175.000
  24373294.796    -2514035.03649  -1805216.09245  24373295.828    24373314.213
       211.000         142.000
  20737445.298   -25005770.12049 -19473864.52947  20737445.245    20737455.178
       240.000         207.000
  22037755.273   -18086949.79549 -13644121.71846  22037755.459    22037767.732
       228.000         181.000
  23076807.934   -11853229.72449  -9220194.77945  23076808.658    23076822.622
       219.000         160.000
  23771172.845    -5839355.21849  -3118938.23545  23771171.970    23771190.647
       211.000         149.000
  20244642.397   -24336708.90549 -18344093.56448  20244641.876    20244651.705
       245.000         214.000
  22058213.080   -17057974.22749 -12689112.54947  22058211.858    22058224.031
       237.000         197.000
 00 10 23  0 22  0.0000000  0  8G31G10G27G19G13G 7G 8G 2
  22394078.510   -12518469.17749  -9351168.62546  22394078.282    22394091.134
       224.000         174.000
  24382168.394    -2467404.61549  -1768880.77845  24382167.497    24382187.774
       208.000         142.000
  20741013.535   -24987018.94149 -19459253.21247  20741013.405    20741023.356
       240.000         207.000
  22049194.202   -18026838.04549 -13597281.44146  22049193.981    22049206.336
       228.000         181.000
  23096683.842   -11748781.52149  -9138806.75045  23096684.778    23096698.697
       220.000         159.000
  23751487.617    -5942799.94149  -3199544.04545  23751486.008    23751504.665
       210.000         149.000
  20239994.409   -24361133.99749 -18363126.06348  20239993.924    20240003.620
       244.000         214.000
  22050845.247   -17096692.00149 -12719282.10947  22050844.488    22050855.807
       236.000         197.000
 00 10 23  0 22 30.0000000  0  8G31G10G27G19G13G 7G 8G 2
  22407926.444   -12445697.91949  -9294463.80146  22407926.176    22407938.333
       225.000         174.000
  24391106.242    -2420436.42049  -1732282.29045  24391106.378    24391125.741
       210.000         142.000
  20744642.822   -24967946.81649 -19444391.80847  20744642.693    20744652.774
       240.000         206.000
  22060683.265   -17966462.72449 -13550235.78046  22060683.197    22060695.478
       228.000         180.000
  23116597.352   -11644136.08249  -9057265.01845  23116597.892    23116611.967
       220.000         159.000
  23731823.128    -6046135.44849  -3280064.75945  23731820.612    23731840.367
       210.000         149.000
  20235398.498   -24385285.51349 -18381945.38748  20235398.045    20235407.815
       244.000         214.000
  22043517.087   -17135201.24949 -12749289.17147  22043516.301    22043528.147
       237.000         197.000
 00 10 23  0 23  0.0000000  0  8G31G10G27G19G13G 7G 8G 2
  22421862.451   -12372463.89649  -9237398.37346  22421862.028    22421874.735
       226.000         174.000
  24400107.758    -2373133.21549  -1695422.73345  24400107.047    24400125.858
       202.000         142.000
  20748333.279   -24948553.34449 -19429279.99047  20748333.198    20748343.039
       241.000         206.000
  22072222.391   -17905824.33949 -13502985.13246  22072222.418    22072234.136
       229.000         180.000
  23136547.748   -11539296.49649  -8975572.01245  23136548.601    23136562.851
       220.000         158.000
  23712179.837    -6149359.82349  -3360498.86245  23712178.181    23712197.060
       212.000         150.000
  20230854.803   -24409162.66049 -18400550.90748  20230854.211    20230864.038
       246.000         214.000
  22036228.467   -17173502.66649 -12779134.28447  22036227.597    22036239.393
       238.000         197.000
 00 10 23  0 23 30.0000000  0  8G31G10G27G19G13G 7G 8G 2
  22435886.351   -12298767.94949  -9179973.01946  22435885.630    22435898.706
       225.000         173.000
  24409172.900    -2325496.47849  -1658303.29945  24409173.701    24409192.858
       211.000         142.000
  20752085.345   -24928836.10449 -19413915.90047  20752085.160    20752095.006
       241.000         206.000
  22083811.846   -17844921.48249 -13455528.41546  22083811.376    22083824.633
       228.000         180.000
  23156534.921   -11434263.70349  -8893728.45545  23156536.303    23156550.495
       218.000         158.000
  23692558.380    -6252469.27649  -3440843.43645  23692556.045    23692575.481
       210.000         150.000
  20226363.833   -24432762.61649 -18418940.44948  20226363.320    20226373.139
       245.000         214.000
  22028979.533   -17211595.44349 -12808816.82847  22028978.466    22028990.260
       238.000         198.000
 00 10 23  0 24  0.0000000  0  8G31G10G27G19G13G 7G 8G 2
  22449997.491   -12224613.42149  -9122190.33646  22449997.310    22450009.896
       224.000         173.000
  24418301.082    -2277529.76349  -1620926.71545  24418299.833    24418319.807
       199.000         141.000
  20755899.053   -24908794.85749 -19398299.33247  20755899.030    20755908.696
       239.000         206.000
  22095451.513   -17783754.77749 -13407866.08946  22095451.897    22095464.061
       226.000         179.000
  23176558.348   -11329040.75049  -8811736.72245  23176559.382    23176572.750
       218.000         158.000
  23672959.198    -6355462.08549  -3521097.12045  23672957.113    23672976.258
       209.000         150.000
  20221925.732   -24456084.88849 -18437113.60848  20221925.282    20221934.817
       244.000         214.000
  22021770.076   -17249480.79549 -12838337.73847  22021769.266    22021780.715
       236.000         198.000
 00 10 23  0 24 30.0000000  0  8G31G10G27G19G13G 7G 8G 2
  22464195.422   -12150003.06149  -9064052.46346  22464194.762    22464207.723
       225.000         173.000
  24427491.076    -2229235.68749  -1583295.09245  24427490.360    24427509.693
       205.000         141.000
  20759774.487   -24888429.25149 -19382430.01847  20759774.087    20759784.016
       241.000         206.000
  22107141.235   -17722324.75449 -13359998.59146  22107141.854    22107153.836
       228.000         179.000
  23196617.364   -11223630.64749  -8729599.16745  23196618.705    23196632.638
       220.000         158.000
  23653382.596    -6458336.19449  -3601258.30845  23653380.965    23653399.142
       211.000         151.000
  20217540.601   -24479128.74749 -18455069.82148  20217539.948    20217549.591
       245.000         214.000
  22014599.969   -17287159.57149 -12867697.67747  22014599.010    22014610.401
       238.000         198.000
 00 10 23  0 25  0.0000000  0  9G31G10G27G19G11G13G 7G 8G 2
  22478479.521   -12074939.79949  -9005561.65746  22478479.662    22478491.733
       225.000         172.000
  24436742.914    -2180616.98149  -1545410.46645  24436740.936    24436762.362
       203.000         140.000
  20763711.841   -24867738.30849 -19366307.18447  20763711.472    20763721.498
       240.000         206.000
  22118881.143   -17660631.41649 -13311925.89246  22118881.577    22118894.098
       228.000         179.000
  24749379.683    -1926608.56749  -1372335.23545  24749377.582    24749396.639
       206.000         132.000
  23216711.548   -11118035.75049  -8647317.60445  23216712.594    23216726.760
       219.000         158.000
  23633828.972    -6561089.26249  -3681325.17745  23633827.512    23633845.643
       212.000         152.000
  20213208.692   -24501892.92949 -18472808.09248  20213208.097    20213217.750
       245.000         214.000
  22007469.018   -17324632.43449 -12896897.15947  22007468.417    22007479.689
       238.000         198.000
 00 10 23  0 25 30.0000000  0  9G31G10G27G19G11G13G 7G 8G 2
  22492849.305   -11999426.37449  -8946720.09646  22492849.494    22492861.453
       226.000         172.000
  24446056.006    -2131676.52649  -1507275.15745  24446055.548    24446075.953
       204.000         140.000
  20767711.232   -24846721.34849 -19349930.32347  20767710.733    20767720.874
       241.000         206.000
  22130671.080   -17598675.09949 -13263648.29046  22130671.575    22130683.563
       227.000         179.000
  24738869.339    -1981839.72349  -1415372.27245  24738868.867    24738885.739
       208.000         133.000
  23236840.303   -11012259.29549  -8564894.56545  23236840.660    23236856.490
       219.000         157.000
  23614298.800    -6663719.19349  -3761296.09545  23614297.442    23614315.413
       213.000         152.000
  20208930.213   -24524376.33249 -18490327.58748  20208929.729    20208939.320
       245.000         214.000
  22000377.130   -17361900.05549 -12925936.73247  22000376.077    22000387.570
       238.000         199.000
 00 10 23  0 26  0.0000000  0  9G31G10G27G19G11G13G 7G 8G 2
  22507304.612   -11923463.47349  -8887528.27546  22507303.718    22507316.942
       225.000         172.000
  24455430.193    -2082415.31649  -1468889.89145  24455428.769    24455449.957
       206.000         140.000
  20771773.114   -24825375.90249 -19333297.48647  20771772.351    20771782.531
       241.000         206.000
  22142511.362   -17536454.03249 -13215164.37946  22142511.278    22142523.334
       227.000         179.000
  24728394.052    -2036886.71849  -1458265.80745  24728391.901    24728409.144
       209.000         133.000
  23257003.519   -10906301.54849  -8482330.25645  23257004.341    23257019.494
       220.000         157.000
  23594792.808    -6766221.73849  -3841167.75945  23594790.846    23594809.389
       214.000         153.000
  20204705.686   -24546576.19649 -18507626.12848  20204704.784    20204714.549
       246.000         214.000
  21993324.544   -17398961.08249 -12954815.30847  21993323.699    21993334.839
       239.000         199.000
 00 10 23  0 26 30.0000000  0  9G31G10G27G19G11G13G 7G 8G 2
  22521844.733   -11847054.86849  -8827989.14346  22521844.821    22521857.043
       224.000         172.000
  24464864.619    -2032837.01249  -1430257.55545  24464864.767    24464884.218
       207.000         140.000
  20775897.467   -24803702.30149 -19316408.94947  20775897.076    20775906.797
       239.000         206.000
  22154401.810   -17473969.52449 -13166475.17846  22154401.587    22154414.452
       225.000         178.000
  24717954.134    -2091748.03249  -1501014.66245  24717953.127    24717971.488
       207.000         134.000
  23277200.529   -10800166.14249  -8399627.52145  23277201.119    23277215.884
       216.000         156.000
  23575311.380    -6868595.64349  -3920939.16845  23575309.793    23575327.894
       214.000         153.000
  20200535.170   -24568492.10449 -18524703.40748  20200534.401    20200544.319
       244.000         214.000
  21986310.909   -17435817.39349 -12983534.37447  21986309.964    21986321.357
       236.000         199.000
 00 10 23  0 27  0.0000000  0  9G31G10G27G19G11G13G 7G 8G 2
  22536469.357   -11770202.14849  -8768103.95946  22536468.368    22536482.383
       224.000         172.000
  24474359.238    -1982943.08449  -1391379.28245  24474359.224    24474378.711
       205.000         141.000
  20780084.631   -24781698.56749 -19299263.17347  20780084.367    20780094.420
       240.000         206.000
  22166342.589   -17411220.53749 -13117579.89846  22166342.620    22166355.175
       226.000         178.000
  24707550.286    -2146419.83249  -1543615.84845  24707550.898    24707566.823
       197.000         134.000
  23297431.104   -10693854.32549  -8316787.32345  23297431.414    23297446.929
       218.000         156.000
  23555855.081    -6970837.36049  -4000607.59545  23555853.592    23555871.229
       213.000         154.000
  20196419.165   -24590121.69349 -18541557.58648  20196418.520    20196428.342
       244.000         214.000
  21979336.397   -17472468.15649 -13012093.28047  21979335.653    21979346.779
       237.000         199.000
 00 10 23  0 27 30.0000000  0  9G31G10G27G19G11G13G 7G 8G 2
  22551177.641   -11692909.72149  -8707876.14346  22551177.355    22551188.915
       224.000         171.000
  24483913.191    -1932738.01049  -1352258.53745  24483912.590    24483932.417
       204.000         139.000
  20784334.413   -24759365.70749 -19281860.92647  20784334.075    20784343.961
       240.000         206.000
  22178333.277   -17348209.23449 -13068480.20946  22178332.850    22178346.105
       226.000         178.000
  24697182.682    -2200901.22049  -1586068.64645  24697181.527    24697197.824
       199.000         135.000
  23317694.370   -10587370.98949  -8233813.47645  23317695.315    23317708.488
       217.000         156.000
  23536423.967    -7072946.63149  -4080172.80245  23536422.124    23536439.553
       214.000         155.000
  20192357.443   -24611465.94349 -18558189.41148  20192356.722    20192366.504
       244.000         214.000
  21972400.495   -17508916.02449 -13040494.08347  21972399.534    21972411.166
       238.000         199.000
 00 10 23  0 28  0.0000000  0  9G31G10G27G19G11G13G 7G 8G 2
  22565969.285   -11615179.43349  -8647307.13146  22565968.545    22565981.525
       224.000         171.000
  24493525.725    -1882223.87249  -1312896.97245  24493525.525    24493544.612
       204.000         139.000
  20788647.178   -24736702.00449 -19264200.88147  20788646.799    20788656.897
       240.000         206.000
  22190374.075   -17284934.55649 -13019175.28946  22190373.444    22190386.344
       226.000         178.000
  24686851.865    -2255188.78149  -1628370.42645  24686852.088    24686869.228
       202.000         134.000
  23337990.015   -10480717.30849  -8150706.88345  23337991.505    23338004.374
       218.000         156.000
  23517018.767    -7174919.94549  -4159632.08745  23517017.308    23517034.921
       214.000         155.000
  20188350.452   -24632522.56049 -18574597.10848  20188350.026    20188359.741
       245.000         214.000
  21965503.275   -17545160.65549 -13068736.53347  21965502.389    21965513.642
       238.000         200.000
 00 10 23  0 28 30.0000000  0  9G31G10G27G19G11G13G 7G 8G 2
  22580843.639   -11537014.45549  -8586399.40946  22580843.647    22580855.287
       224.000         171.000
  24503196.511    -1831403.43849  -1273296.73445  24503194.731    24503215.534
       209.000         139.000
  20793022.948   -24713707.02649 -19246282.69647  20793022.570    20793032.335
       240.000         206.000
  22202464.928   -17221396.73349 -12969665.32146  22202464.853    22202477.254
       226.000         177.000
  24676558.438    -2309280.08349  -1670519.30845  24676558.234    24676574.431
       209.000         135.000
  23358317.558   -10373896.25049  -8067469.87145  23358318.603    23358332.665
       216.000         156.000
  23497639.808    -7276755.31849  -4238983.87445  23497638.004    23497656.010
       216.000         156.000
  20184398.433   -24653290.41549 -18590779.79048  20184397.622    20184407.387
       244.000         214.000
  21958644.582   -17581202.91549 -13096821.29447  21958643.587    21958655.224
       239.000         200.000
 00 10 23  0 29  0.0000000  0  9G31G10G27G19G11G13G 7G 8G 2
  22595800.652   -11458414.96449  -8525153.10946  22595801.222    22595812.745
       224.000         171.000
  24512925.368    -1780277.52449  -1233458.48245  24512924.346    24512944.467
       203.000         138.000
  20797462.300   -24690378.03049 -19228104.24447  20797462.047    20797472.156
       240.000         206.000
  22214606.203   -17157594.04949 -12919948.96446  22214605.609    22214618.423
       226.000         177.000
  24666303.319    -2363170.31149  -1712511.51945  24666303.174    24666320.099
       203.000         135.000
  23378676.819   -10266908.37149  -7984102.86645  23378677.598    23378692.379
       218.000         156.000
  23478287.948    -7378448.30249  -4318224.72745  23478286.431    23478303.947
       215.000         157.000
  20180501.923   -24673766.57949 -18606735.19048  20180501.370    20180510.805
       244.000         214.000
  21951824.667   -17617041.39749 -13124747.27447  21951824.148    21951835.087
       238.000         200.000
 00 10 23  0 29 30.0000000  0  9G31G10G27G19G11G13G 7G 8G 2
  22610839.132   -11379387.48149  -8463573.30446  22610838.542    22610851.845
       224.000         170.000
  24522711.167    -1728852.48849  -1193387.14245  24522711.340    24522731.135
       207.000         138.000
  20801964.685   -24666717.67149 -19209667.57247  20801964.270    20801974.498
       240.000         205.000
  22226797.179   -17093530.27849 -12870029.14846  22226796.729    22226809.115
       227.000         177.000
  24656086.222    -2416860.48949  -1754347.83545  24656085.677    24656102.409
       208.000         135.000
  23399066.670   -10159759.61449  -7900610.50345  23399065.884    23399081.632
       217.000         156.000
  23458962.926    -7480000.23849  -4397355.67845  23458960.819    23458978.515
       215.000         157.000
  20176660.476   -24693953.29349 -18622465.02748  20176659.769    20176669.606
       245.000         214.000
  21945042.689   -17652680.36949 -13152517.77947  21945041.974    21945053.203
       239.000         200.000
 00 10 23  0 30  0.0000000  0  9G31G10G27G19G11G13G 7G 8G 2
  22625959.272   -11299930.87749  -8401659.13646  22625959.534    22625971.642
       223.000         170.000
  24532554.237    -1677127.08449  -1153081.76145  24532553.916    24532574.606
       205.000         138.000
  20806531.019   -24642721.49449 -19190969.23947  20806530.619    20806540.709
       241.000         205.000
  22239038.523   -17029201.69049 -12819902.99046  22239038.154    22239051.398
       227.000         177.000
  24645908.545    -2470343.98849  -1796023.11145  24645907.963    24645924.446
       205.000         136.000
  23419487.413   -10052448.74449  -7816991.83645  23419488.525    23419502.881
       219.000         155.000
  23439665.931    -7581404.92049  -4476371.88945  23439664.198    23439681.809
       217.000         158.000
  20172875.079   -24713845.40749 -18637965.32248  20172874.440    20172884.186
       245.000         214.000
  21938299.342   -17688116.43949 -13180130.20047  21938298.262    21938309.876
       239.000         200.000
 00 10 23  0 30 30.0000000  0  9G31G10G27G19G11G13G 7G 8G 2
  22641159.958   -11220050.83349  -8339415.01246  22641160.151    22641172.621
       223.000         169.000
  24542453.190    -1625107.17849  -1112546.89345  24542453.063    24542472.359
       204.000         138.000
  20811160.829   -24618391.60649 -19172010.86647  20811160.613    20811170.526
       241.000         205.000
  22251329.671   -16964611.48149 -12769572.97846  22251329.465    22251342.189
       227.000         176.000
  24635770.110    -2523621.18349  -1837537.63245  24635769.222    24635785.973
       205.000         135.000
  23439937.935    -9944981.37049  -7733251.19745  23439938.029    23439953.774
       218.000         154.000
  23420396.808    -7682662.99849  -4555273.86945  23420395.278    23420412.427
       218.000         158.000
  20169145.400   -24733444.72949 -18653237.46748  20169144.722    20169154.440
       245.000         214.000
  21931593.902   -17723353.27949 -13207587.37647  21931592.894    21931604.434
       239.000         200.000
 00 10 23  0 31  0.0000000  0  9G31G10G27G19G11G13G 7G 8G 2
  22656440.962   -11139749.00849  -8276842.23346  22656440.663    22656453.255
       224.000         169.000
  24552408.062    -1572794.36849  -1071783.78845  24552408.032    24552429.484
       204.000         138.000
  20815854.484   -24593726.18949 -19152791.04247  20815854.374    20815864.272
       242.000         205.000
  22263670.754   -16899758.58649 -12719038.27846  22263671.021    22263683.013
       226.000         176.000
  24625671.619    -2576688.12949  -1878888.32045  24625671.253    24625686.719
       206.000         135.000
  23460417.933    -9837358.79649  -7649389.64145  23460419.250    23460433.222
       216.000         153.000
  23401156.292    -7783770.96649  -4634058.88445  23401154.958    23401172.023
       218.000         158.000
  20165471.838   -24752749.24549 -18668279.89548  20165471.365    20165480.766
       245.000         214.000
  21924926.480   -17758390.30549 -13234888.85547  21924926.109    21924936.804
       239.000         201.000
 00 10 23  0 31 30.0000000  0  9G31G10G27G19G11G13G 7G 8G 2
  22671801.652   -11059028.12849  -8213942.92246  22671801.339    22671814.059
       223.000         168.000
  24562418.301    -1520191.29149  -1030794.52545  24562418.282    24562438.253
       206.000         137.000
  20820612.079   -24568724.64849 -19133309.30147  20820611.780    20820621.718
       242.000         205.000
  22276061.776   -16834643.43649 -12668299.22146  22276061.474    22276074.569
       226.000         176.000
  24615613.747    -2629542.25449  -1920073.15745  24615612.256    24615628.879
       207.000         135.000
  23480926.921    -9729583.94949  -7565409.41445  23480928.591    23480942.286
       216.000         152.000
  23381944.752    -7884726.68249  -4712725.26445  23381943.447    23381960.305
       215.000         159.000
  20161854.653   -24771757.52549 -18683091.49348  20161854.129    20161863.486
       245.000         214.000
  21918296.952   -17793228.24149 -13262035.19947  21918296.259    21918307.458
       240.000         201.000
 00 10 23  0 32  0.0000000  0  9G31G10G27G19G11G13G 7G 8G 2
  22687241.528   -10977891.44049  -8150719.61946  22687241.310    22687254.418
       222.000         168.000
  24572483.075    -1467301.53549   -989581.85945  24572483.214    24572502.139
       202.000         137.000
  20825433.698   -24543386.80649 -19113565.50947  20825433.582    20825443.496
       241.000         205.000
  22288502.551   -16769266.78049 -12617356.39746  22288502.771    22288515.324
       225.000         176.000
  24605596.644    -2682181.78149  -1961090.75445  24605595.950    24605612.693
       206.000         136.000
  23501464.382    -9621659.78449  -7481312.86245  23501465.784    23501479.704
       216.000         152.000
  23362762.465    -7985528.41949  -4791271.66445  23362761.227    23362778.077
       218.000         160.000
  20158293.922   -24790469.08449 -18697671.88248  20158293.434    20158303.174
       245.000         214.000
  21911705.078   -17827868.27449 -13289027.32847  21911704.483    21911715.788
       239.000         201.000
 00 10 23  0 32 30.0000000  0  9G31G10G27G19G11G13G 7G 8G 2
  22702760.126   -10896340.98149  -8087173.89546  22702760.216    22702772.786
       222.000         168.000
  24582601.762    -1414127.31449   -948147.55145  24582602.528    24582622.047
       208.000         137.000
  20830319.569   -24517711.28149 -19093558.57347  20830319.180    20830329.027
       242.000         205.000
  22300993.238   -16703627.90049 -12566209.24846  22300993.773    22301006.152
       225.000         176.000
  24595621.031    -2734603.06149  -2001938.32945  24595619.217    24595636.810
       208.000         135.000
  23522029.935    -9513587.79949  -7397101.11345  23522030.617    23522045.379
       218.000         151.000
  23343610.174    -8086172.84649  -4869695.48145  23343608.326    23343625.352
       220.000         160.000
  20154790.045   -24808881.79449 -18712019.40148  20154789.280    20154798.883
       246.000         214.000
  21905150.960   -17862310.05049 -13315864.96547  21905149.910    21905161.415
       240.000         201.000
 00 10 23  0 33  0.0000000  0  9G31G10G27G19G11G13G 7G 8G 2
  22718357.002   -10814378.98849  -8023307.49346  22718357.249    22718368.965
       221.000         167.000
  24592774.328    -1360670.83249   -906493.27645  24592775.146    24592793.551
       207.000         137.000
  20835269.941   -24491696.72249 -19073287.46047  20835269.623    20835279.560
       239.000         205.000
  22313533.852   -16637726.70549 -12514857.69246  22313533.702    22313546.383
       225.000         175.000
  24585687.545    -2786803.16549  -2042613.52945  24585686.733    24585704.220
       207.000         135.000
  23542623.123    -9405370.53749  -7312776.16345  23542625.100    23542638.872
       215.000         151.000
  23324488.266    -8186657.54349  -4947994.84345  23324486.364    23324503.856
       215.000         160.000
  20151343.328   -24826994.22849 -18726132.94448  20151342.626    20151352.210
       244.000         214.000
  21898634.514   -17896553.80249 -13342548.30447  21898633.651    21898644.821
       238.000         201.000
 00 10 23  0 33 30.0000000  0  9G31G10G27G19G11G13G 7G 8G 2
  22734031.635   -10732008.72149  -7959122.97246  22734031.807    22734044.134
       220.000         167.000
  24603000.067    -1306935.56249   -864621.76945  24602999.928    24603020.580
       208.000         137.000
  20840284.899   -24465342.88549 -19052751.97547  20840284.521    20840294.549
       240.000         204.000
  22326124.270   -16571563.76249 -12463302.18346  22326124.116    22326136.731
       225.000         175.000
  24575796.535    -2838779.93749  -2083114.71545  24575794.332    24575811.583
       204.000         135.000
  23563243.436    -9297010.79549  -7228340.18845  23563243.896    23563259.168
       215.000         150.000
  23305397.143    -8286980.56849  -5026168.22145  23305395.850    23305412.940
       215.000         160.000
  20147953.920   -24844805.50849 -18740011.82748  20147953.232    20147962.784
       244.000         214.000
  21892155.526   -17930600.61849 -13369078.19047  21892154.807    21892165.840
       238.000         201.000
 00 10 23  0 34  0.0000000  0  9G31G10G27G19G11G13G 7G 8G 2
  22749783.370   -10649233.01149  -7894622.52246  22749783.503    22749795.510
       220.000         166.000
  24613278.117    -1252924.11749   -822535.07945  24613278.492    24613299.250
       210.000         137.000
  20845364.524   -24438649.28149 -19031951.73147  20845364.205    20845374.376
       240.000         204.000
  22338764.416   -16505139.43049 -12411542.98846  22338764.055    22338777.633
       226.000         175.000
  24565948.496    -2890530.91849  -2123439.96445  24565947.738    24565963.485
       206.000         135.000
  23583890.356    -9188511.22949  -7143795.26745  23583890.632    23583906.242
       215.000         150.000
  23286337.203    -8387139.65949  -5104213.86545  23286335.316    23286352.409
       216.000         160.000
  20144622.033   -24862314.61649 -18753655.25048  20144621.339    20144630.816
       245.000         214.000
  21885713.861   -17964451.34049 -13395455.27347  21885713.166    21885724.229
       239.000         201.000
 00 10 23  0 34 30.0000000  0  9G31G10G27G19G11G13G 7G 8G 2
  22765611.866   -10566054.14749  -7829807.91246  22765612.634    22765624.795
       219.000         166.000
  24623608.524    -1198639.14349   -780235.21345  24623607.481    24623627.220
       200.000         136.000
  20850509.010   -24411614.54549 -19010885.67347  20850508.523    20850518.655
       240.000         204.000
  22351454.333   -16438453.71649 -12359580.13146  22351454.090    22351466.438
       226.000         174.000
  24556144.019    -2942052.79549  -2163586.67245  24556142.756    24556159.554
       206.000         135.000
  23604563.462    -9079874.08149  -7059143.14945  23604563.601    23604579.870
       215.000         149.000
  23267308.981    -8487131.95349  -5182129.53645  23267307.698    23267323.600
       216.000         160.000
  20141347.915   -24879520.00449 -18767062.00748  20141347.156    20141356.684
       244.000         214.000
  21879309.482   -17998106.08649 -13421679.64647  21879308.460    21879319.829
       239.000         202.000
 00 10 23  0 35  0.0000000  0  9G31G10G27G19G11G13G 7G 8G 2
  22781516.543   -10482474.77849  -7764681.23346  22781516.234    22781529.458
       219.000         166.000
  24633990.284    -1144083.17649   -737724.23945  24633991.662    24634010.547
       208.000         136.000
  20855718.597   -24384237.91049 -18989553.21047  20855718.467    20855728.328
       239.000         204.000
  22364193.991   -16371506.55349 -12307413.56046  22364193.921    22364207.100
       225.000         174.000
  24546383.667    -2993343.00149  -2203552.84145  24546382.953    24546398.396
       204.000         135.000
  23625262.254    -8971102.01149  -6974385.87845  23625262.381    23625278.289
       214.000         149.000
  23248312.947    -8586955.21849  -5259913.50045  23248311.109    23248327.958
       217.000         161.000
  20138131.896   -24896420.10049 -18780230.88648  20138131.312    20138140.914
       243.000         214.000
  21872942.292   -18031565.50249 -13447751.82747  21872941.618    21872952.669
       238.000         202.000
 00 10 23  0 35 30.0000000  0  9G31G10G27G19G11G13G 7G 8G 2
  22797496.748   -10398498.66349  -7699245.38646  22797496.761    22797509.456
       221.000         166.000
  24644422.959    -1089259.99549   -695004.98445  24644422.341    24644442.751
       204.000         136.000
  20860993.183   -24356519.69949 -18967954.56847  20860992.685    20861002.757
       240.000         204.000
  22376983.163   -16304298.92849 -12255044.02146  22376982.527    22376996.053
       226.000         174.000
  24536667.704    -3044399.76249  -2243337.11945  24536667.339    24536682.341
       208.000         135.000
  23645986.058    -8862198.37049  -6889526.09945  23645986.764    23646002.681
       213.000         148.000
  23229349.348    -8686608.00049  -5337564.63345  23229347.527    23229364.592
       218.000         161.000
  20134974.003   -24913014.77849 -18793161.76348  20134973.268    20134982.730
       245.000         214.000
  21866611.957   -18064831.17349 -13473673.02847  21866611.140    21866622.030
       240.000         202.000
 00 10 23  0 36  0.0000000  0  9G31G10G27G19G11G13G 7G 8G 2
  22813552.106   -10314127.55749  -7633501.74546  22813551.817    22813564.389
       219.000         165.000
  24654906.032    -1034171.25449   -652078.83945  24654906.623    24654927.301
       209.000         136.000
  20866333.080   -24328458.15649 -18946088.40847  20866332.678    20866342.548
       240.000         204.000
  22389822.057   -16236830.08449 -12202470.94146  22389821.799    22389834.735
       225.000         174.000
  24526996.917    -3095219.40049  -2282936.61445  24526996.993    24527013.259
       206.000         136.000
  23666734.773    -8753163.96749  -6804564.42745  23666735.670    23666751.657
       213.000         148.000
  23210418.859    -8786086.82549  -5415080.21545  23210417.073    23210432.975
       217.000         161.000
  20131874.665   -24929301.67649 -18805852.82148  20131874.074    20131883.598
       244.000         214.000
  21860318.641   -18097902.37949 -13499442.71447  21860317.747    21860328.837
       239.000         202.000
 00 10 23  0 36 30.0000000  0  9G31G10G27G19G11G13G 7G 8G 2
  22829681.940   -10229364.97549  -7567453.05646  22829681.910    22829694.414
       220.000         165.000
  24665438.926     -978820.67849   -608948.65145  24665437.433    24665458.326
       204.000         135.000
  20871738.285   -24300053.52149 -18923954.89747  20871737.667    20871747.823
       240.000         204.000
  22402710.492   -16169100.99849 -12149695.05946  22402710.206    22402723.083
       225.000         173.000
  24517371.454    -3145800.14449  -2322349.95845  24517369.608    24517385.980
       207.000         136.000
  23687507.562    -8644002.90249  -6719504.05445  23687508.559    23687523.456
       212.000         147.000
  23191521.713    -8885390.40349  -5492459.24345  23191520.464    23191535.950
       217.000         161.000
  20128833.944   -24945280.57549 -18818303.87048  20128833.519    20128842.995
       244.000         214.000
  21854062.038   -18130780.74649 -13525062.12847  21854061.078    21854072.304
       240.000         202.000
 00 10 23  0 37  0.0000000  0  9G31G10G27G19G11G13G 7G 8G 2
  22845885.991   -10144212.41849  -7501100.49346  22845886.322    22845899.187
       219.000         165.000
  24676021.374     -923209.86049   -565615.68645  24676021.726    24676042.905
       210.000         135.000
  20877209.183   -24271303.72949 -18901552.43947  20877208.729    20877218.710
       239.000         204.000
  22415648.686   -16101110.45749 -12096715.46146  22415648.410    22415661.855
       224.000         172.000
  24507792.342    -3196137.89349  -2361573.97145  24507791.419    24507807.929
       204.000         136.000
  23708304.273    -8534716.07249  -6634345.69045  23708304.712    23708320.187
       212.000         147.000
  23172658.626    -8984514.91349  -5569698.74645  23172657.013    23172673.493
       218.000         161.000
  20125852.425   -24960948.56349 -18830512.64748  20125851.693    20125861.156
       244.000         214.000
  21847842.315   -18163465.29249 -13550530.52047  21847841.704    21847852.303
       239.000         202.000
 00 10 23  0 37 30.0000000  0  9G31G10G27G19G11G13G 7G 8G 2
  22862163.535   -10058673.71549  -7434447.03346  22862163.404    22862176.197
       219.000         165.000
  24686652.637     -867342.23549   -522082.58345  24686651.527    24686673.720
       204.000         136.000
  20882745.724   -24242208.88849 -18878881.12047  20882745.536    20882755.447
       241.000         204.000
  22428636.363   -16032859.80149 -12043533.16846  22428636.408    22428649.392
       225.000         172.000
  24498259.755    -3246230.75349  -2400607.13145  24498258.259    24498273.621
       206.000         136.000
  23729124.344    -8425306.88949  -6549091.97945  23729124.999    23729140.523
       213.000         146.000
  23153829.961    -9083458.65149  -5646797.39845  23153828.908    23153844.523
       217.000         161.000
  20122930.064   -24976305.41549 -18842478.98748  20122929.676    20122939.085
       245.000         214.000
  21841659.171   -18195957.44649 -13575849.00347  21841658.664    21841669.560
       240.000         202.000
 00 10 23  0 38  0.0000000  0  9G31G10G27G19G11G13G 7G 8G 2
  22878513.947    -9972752.17649  -7367495.25446  22878513.725    22878526.876
       220.000         165.000
  24697332.167     -811221.72849   -478352.44245  24697331.873    24697351.870
       198.000         136.000
  20888347.908   -24212769.21049 -18855941.09747  20888347.758    20888357.438
       239.000         204.000
  22441673.333   -15964350.15249 -11990149.07346  22441673.693    22441686.365
       223.000         172.000
  24488774.148    -3296077.21849  -2439448.31945  24488773.995    24488788.755
       206.000         136.000
  23749967.021    -8315778.79249  -6463745.60945  23749968.009    23749983.126
       215.000         146.000
  23135035.936    -9182220.39949  -5723754.24945  23135035.278    23135049.752
       217.000         162.000
  20120067.012   -24991350.72149 -18854202.55448  20120066.538    20120075.895
       243.000         214.000
  21835512.423   -18228258.54149 -13601018.60147  21835511.570    21835522.688
       239.000         203.000
 00 10 23  0 38 30.0000000  0  9G31G10G27G19G11G13G 7G 8G 2
  22894936.811    -9886449.69249  -7300246.61446  22894936.745    22894949.715
       218.000         165.000
  24708059.271     -754850.02649   -434426.58545  24708059.736    24708081.509
       208.000         135.000
  20894015.995   -24182983.13549 -18832731.15447  20894015.784    20894025.473
       239.000         203.000
  22454759.715   -15895580.75149 -11936562.58646  22454759.513    22454772.484
       223.000         171.000
  24479336.156    -3345673.43649  -2478094.50845  24479335.958    24479351.229
       203.000         136.000
  23770832.073    -8206133.14849  -6378307.64645  23770832.815    23770847.822
       212.000         146.000
  23116277.163    -9280796.74449  -5800566.63045  23116276.215    23116290.966
       217.000         162.000
  20117263.626   -25006082.28449 -18865681.64348  20117262.909    20117272.348
       244.000         214.000
  21829402.053   -18260368.38149 -13626039.17147  21829401.290    21829411.770
       239.000         203.000
 00 10 23  0 39  0.0000000  0  9G31G10G27G19G11G13G 7G 8G 2
  22911431.570    -9799769.36949  -7232703.57446  22911431.266    22911444.078
       219.000         164.000
  24718833.856     -698230.40949   -390307.52445  24718833.018    24718852.879
       204.000         135.000
  20899750.094   -24152850.13149 -18809250.87747  20899749.884    20899759.661
       240.000         203.000
  22467895.485   -15826552.07949 -11882774.04946  22467895.460    22467908.323
       224.000         171.000
  24469946.220    -3395017.17349  -2516543.93945  24469944.930    24469962.013
       204.000         136.000
  23791718.947    -8096372.73849  -6292780.25545  23791719.805    23791734.928
       214.000         145.000
  23097554.055    -9379185.82949  -5877233.10345  23097552.647    23097568.785
       218.000         162.000
  20114520.152   -25020499.21849 -18876915.56548  20114519.658    20114529.047
       244.000         214.000
  21823327.900   -18292287.88149 -13650911.43247  21823326.835    21823337.832
       239.000         203.000
 00 10 23  0 39 30.0000000  0  9G31G10G27G19G11G13G 7G 8G 2
  22927997.676    -9712714.20149  -7164868.44146  22927997.737    22928010.336
       218.000         164.000
  24729654.854     -641365.68349   -345997.47945  24729654.297    24729674.263
       205.000         135.000
  20905550.388   -24122369.46149 -18785499.70147  20905549.939    20905559.779
       240.000         203.000
  22481080.529   -15757264.49649 -11828783.77046  22481080.662    22481093.017
       224.000         171.000
  24460604.859    -3444105.81649  -2554794.59345  24460605.075    24460619.920
       205.000         137.000
  23812627.124    -7986500.29049  -6207165.57545  23812628.171    23812642.900
       215.000         146.000
  23078867.092    -9477385.06849  -5953751.64445  23078865.894    23078881.195
       218.000         162.000
  20111836.777   -25034600.24849 -18887903.33348  20111836.335    20111845.726
       245.000         214.000
  21817289.869   -18324017.64349 -13675635.84847  21817289.075    21817299.879
       239.000         203.000
 00 10 23  0 40  0.0000000  0  9G31G10G27G19G11G13G 7G 8G 2
  22944634.600    -9625286.96149  -7096743.37546  22944634.270    22944646.588
       219.000         164.000
  24740522.110     -584258.83149   -301498.75145  24740522.313    24740541.825
       202.000         135.000
  20911416.886   -24091540.80349 -18761477.35847  20911416.398    20911426.449
       240.000         203.000
  22494314.712   -15687718.47849 -11774592.09846  22494314.250    22494327.148
       224.000         171.000
  24451312.419    -3492936.99949  -2592844.64345  24451312.169    24451325.684
       206.000         137.000
  23833556.126    -7876518.45049  -6121465.64545  23833556.652    23833573.387
       217.000         146.000
  23060216.610    -9575392.48849  -6030120.71445  23060214.666    23060230.606
       218.000         162.000
  20109213.699   -25048384.41049 -18898644.16948  20109212.882    20109222.388
       245.000         214.000
  21811287.802   -18355558.42549 -13700212.99647  21811286.720    21811297.938
       240.000         203.000
 00 10 23  0 40 30.0000000  0  9G31G10G27G19G11G13G 7G 8G 2
  22961342.046    -9537488.99249  -7028329.43746  22961341.344    22961354.878
       220.000         164.000
  24751435.145     -526911.06749   -256812.30745  24751434.518    24751457.013
       205.000         135.000
  20917349.990   -24060362.12149 -18737182.27747  20917349.650    20917359.537
       240.000         203.000
  22507598.366   -15617912.71849 -11720198.05346  22507598.714    22507611.463
       225.000         171.000
  24442069.766    -3541506.69149  -2630690.93545  24442070.107    24442085.112
       207.000         138.000
  23854505.676    -7766428.60249  -6035681.55745  23854506.659    23854522.231
       217.000         146.000
  23041603.376    -9673204.34349  -6106337.40646  23041601.781    23041617.333
       218.000         163.000
  20106651.499   -25061848.66949 -18909135.74048  20106650.765    20106660.283
       245.000         214.000
  21805321.866   -18386909.36549 -13724642.22347  21805320.880    21805331.881
       240.000         203.000
 00 10 23  0 41  0.0000000  0 10G31G10G27G19G11G26G13G 7G 8G 2
  22978118.920    -9449326.18349  -6959631.21746  22978119.349    22978132.245
       217.000         164.000
  24762392.937     -469328.34349   -211942.77245  24762392.562    24762412.288
       206.000         135.000
  20923349.244   -24028835.76849 -18712616.29947  20923349.037    20923358.705
       239.000         203.000
  22520930.817   -15547850.49149 -11665604.15746  22520930.754    22520943.637
       223.000         171.000
  24432876.784    -3589815.52349  -2668333.94045  24432875.382    24432891.532
       204.000         139.000
  24613203.344    -3651597.12049  -2615506.53345  24613202.944    24613219.581
       198.000         135.000
  23875474.852    -7656235.74849  -5949817.21245  23875475.133    23875491.111
       213.000         145.000
  23023027.198    -9770821.31149  -6182402.23946  23023025.921    23023041.021
       217.000         163.000
  20104149.794   -25074994.97649 -18919379.56948  20104149.327    20104158.727
       244.000         214.000
  21799391.324   -18418074.14149 -13748926.39947  21799390.626    21799401.349
       239.000         203.000
 00 10 23  0 41 30.0000000  0 10G31G10G27G19G11G26G13G 7G 8G 2
  22994964.572    -9360801.81849  -6890651.27246  22994964.807    22994977.578
       217.000         163.000
  24773394.688     -411514.41149   -166893.06245  24773393.237    24773413.288
       201.000         134.000
  20929414.638   -23996961.81049 -18687779.44447  20929414.318    20929424.268
       238.000         203.000
  22534311.847   -15477532.93249 -11610811.30546  22534312.170    22534325.062
       223.000         171.000
  24423733.772    -3637861.20249  -2705771.89245  24423732.792    24423748.840
       205.000         138.000
  24595853.136    -3742771.54949  -2686551.21245  24595852.306    24595872.033
       199.000         134.000
  23896463.009    -7545943.06349  -5863875.08045  23896463.902    23896479.340
       212.000         145.000
  23004488.445    -9868241.81749  -6258313.98646  23004487.205    23004502.018
       218.000         164.000
  20101708.661   -25087823.07049 -18929375.42448  20101707.907    20101717.355
       243.000         214.000
  21793496.021   -18449054.04249 -13773066.50547  21793495.327    21793506.089
       239.000         203.000
 00 10 23  0 42  0.0000000  0 10G31G10G27G19G11G26G13G 7G 8G 2
  23011879.326    -9271914.50849  -6821388.51746  23011878.768    23011892.664
       218.000         163.000
  24784440.770     -353467.53249   -121661.87545  24784440.409    24784460.527
       209.000         134.000
  20935547.174   -23964735.04249 -18662667.67747  20935547.082    20935557.014
       239.000         202.000
  22547742.264   -15406955.80549 -11555816.17946  22547741.793    22547755.613
       224.000         171.000
  24414642.162    -3685636.84649  -2742999.41945  24414641.286    24414656.469
       206.000         139.000
  24578550.730    -3833695.32049  -2757400.61145  24578549.664    24578567.549
       203.000         135.000
  23917470.466    -7435548.89949  -5777853.87545  23917471.799    23917487.350
       213.000         145.000
  22985988.344    -9965458.99149  -6334067.29546  22985986.982    22986002.308
       219.000         164.000
  20099329.204   -25100327.02849 -18939118.71148  20099328.724    20099337.954
       245.000         214.000
  21787636.602   -18479845.14149 -13797059.49747  21787636.093    21787646.308
       240.000         203.000
 00 10 23  0 42 30.0000000  0  9G31G27G19G11G26G13G 7G 8G 2
  23028862.436    -9182668.01849  -6751845.87646  23028862.071    23028876.042
       218.000         163.000
  20941746.676   -23932156.42349 -18637281.73747  20941746.461    20941756.312
       239.000         202.000
  22561221.778   -15336120.84849 -11500620.15146  22561221.541    22561234.467
       224.000         170.000
  24405602.234    -3733141.33949  -2780015.65745  24405602.123    24405616.695
       205.000         139.000
  24561296.282    -3924367.18049  -2828053.67045  24561294.779    24561313.088
       203.000         135.000
  23938496.534    -7325057.04349  -5691756.53445  23938497.053    23938513.191
       214.000         145.000
  22967527.129   -10062471.99649  -6409661.51146  22967525.943    22967540.457
       219.000         165.000
  20097011.383   -25112507.15149 -18948609.66148  20097010.879    20097020.348
       245.000         214.000
  21781812.774   -18510449.34749 -13820906.86047  21781811.995    21781822.765
       240.000         203.000
 00 10 23  0 43  0.0000000  0  9G31G27G19G11G26G13G 7G 8G 2
  23045914.342    -9093060.10449  -6682021.61046  23045913.966    23045927.746
       217.000         163.000
  20948014.323   -23899219.77049 -18611616.81547  20948013.772    20948023.877
       239.000         202.000
  22574751.310   -15265022.85249 -11445219.15446  22574751.115    22574763.346
       222.000         169.000
  24396615.371    -3780366.63249  -2816814.33445  24396614.495    24396630.120
       205.000         139.000
  24544091.254    -4014779.12349  -2898504.18245  24544091.219    24544107.450
       204.000         136.000
  23959541.694    -7214464.91949  -5605581.07345  23959543.413    23959558.805
       214.000         144.000
  22949106.244   -10159273.05249  -6485090.58246  22949104.745    22949120.447
       219.000         165.000
  20094756.495   -25124356.45249 -18957842.83248  20094756.170    20094765.192
       244.000         214.000
  21776025.437   -18540861.75749 -13844604.77247  21776024.802    21776035.280
       240.000         203.000
 00 10 23  0 43 30.0000000  0  9G31G27G19G11G26G13G 7G 8G 2
  23063032.773    -9003102.41449  -6611924.78745  23063032.685    23063045.956
       218.000         162.000
  20954348.472   -23865933.46549 -18585679.42847  20954348.207    20954358.331
       239.000         202.000
  22588329.140   -15193671.11049 -11389620.43546  22588328.865    22588341.380
       222.000         169.000
  24387680.462    -3827319.00149  -2853400.33345  24387678.491    24387693.651
       206.000         138.000
  24526934.434    -4104937.63049  -2968757.22645  24526933.707    24526952.960
       203.000         137.000
  23980603.773    -7103783.75249  -5519336.23145  23980604.403    23980620.739
       214.000         144.000
  22930724.440   -10255868.87449  -6560359.72046  22930722.311    22930738.052
       220.000         166.000
  20092563.034   -25135882.96749 -18966824.47048  20092562.528    20092571.716
       244.000         214.000
  21770272.720   -18571092.12249 -13868160.82147  21770271.934    21770282.653
       240.000         203.000
 00 10 23  0 44  0.0000000  0  9G31G27G19G11G26G13G 7G 8G 2
  23080217.805    -8912794.88949  -6541555.37145  23080218.197    23080231.023
       218.000         162.000
  20960749.864   -23832293.93749 -18559466.81447  20960749.615    20960759.559
       238.000         202.000
  22601955.747   -15122063.00749 -11333821.95646  22601955.572    22601968.175
       221.000         168.000
  24378798.483    -3873992.91549  -2889769.33245  24378798.549    24378814.472
       204.000         138.000
  24509826.878    -4194837.18149  -3038808.46945  24509826.170    24509842.592
       206.000         137.000
  24001682.921    -6993012.81549  -5433021.43745  24001683.830    24001699.648
       214.000         144.000
  22912382.673   -10352254.22649  -6635464.86546  22912381.698    22912395.782
       221.000         167.000
  20090431.827   -25147082.25649 -18975551.14348  20090431.214    20090440.638
       244.000         214.000
  21764555.163   -18601137.81349 -13891572.97847  21764554.383    21764565.235
       240.000         204.000
 00 10 23  0 44 30.0000000  0  9G31G27G19G11G26G13G 7G 8G 2
  23097468.558    -8822141.74149  -6470916.62245  23097468.345    23097480.810
       217.000         162.000
  20967218.344   -23798301.94349 -18532979.54347  20967217.907    20967228.093
       238.000         201.000
  22615630.797   -15050200.27149 -11277825.05146  22615630.335    22615642.531
       221.000         168.000
  24369969.636    -3920387.29749  -2925920.53745  24369969.032    24369984.443
       204.000         138.000
  24492768.830    -4284476.78449  -3108657.16045  24492768.879    24492786.279
       205.000         138.000
  24022778.414    -6882156.26949  -5346639.91945  24022779.296    24022794.822
       213.000         143.000
  22894081.167   -10448428.08449  -6710405.20746  22894080.508    22894094.964
       221.000         167.000
  20088362.821   -25157954.68049 -18984023.10148  20088362.046    20088371.567
       244.000         214.000
  21758872.338   -18631000.89749 -13914842.82947  21758871.607    21758882.259
       240.000         204.000
 00 10 23  0 45  0.0000000  0  9G31G27G19G11G26G13G 7G 8G 2
  23114784.818    -8731144.44149  -6400009.70445  23114784.568    23114797.573
       216.000         162.000
  20973754.217   -23763955.63949 -18506216.19147  20973754.132    20973764.064
       238.000         201.000
  22629354.506   -14978081.80449 -11221628.87646  22629354.474    22629367.241
       221.000         168.000
  24361194.920    -3966498.04249  -2961850.70345  24361195.186    24361208.940
       206.000         139.000
  24475760.953    -4373852.50249  -3178300.22445  24475759.434    24475777.266
       205.000         138.000
  24043889.973    -6771215.08949  -5260192.45245  24043890.921    24043908.286
       211.000         142.000
  22875820.552   -10544386.89249  -6785177.98446  22875818.890    22875834.254
       220.000         168.000
  20086356.548   -25168497.56349 -18992238.28348  20086355.955    20086365.236
       243.000         214.000
  21753224.397   -18660680.71949 -13937969.88947  21753223.727    21753234.076
       240.000         204.000
 00 10 23  0 45 30.0000000  0  9G31G27G19G11G26G13G 7G 8G 2
  23132166.016    -8639806.10649  -6328837.03445  23132165.725    23132178.948
       216.000         161.000
  20980357.516   -23729255.00549 -18479176.73647  20980357.451    20980367.126
       237.000         201.000
  22643126.733   -14905708.41349 -11165234.07046  22643127.119    22643139.687
       220.000         167.000
  24352474.566    -4012323.22349  -2997558.34445  24352473.623    24352489.133
       208.000         139.000
  24458803.741    -4462962.24549  -3247736.03345  24458802.843    24458820.491
       203.000         139.000
  24065017.057    -6660192.40649  -5173681.49945  24065018.344    24065034.170
       211.000         142.000
  22857601.193   -10640128.77349  -6859781.73046  22857599.453    22857614.509
       220.000         168.000
  20084413.060   -25178710.33049 -19000196.22648  20084412.580    20084421.727
       243.000         214.000
  21747611.167   -18690178.15249 -13960954.82347  21747610.473    21747621.388
       239.000         204.000
 00 10 23  0 46  0.0000000  0  9G31G27G19G11G26G13G 7G 8G 2
  23149611.564    -8548129.21349  -6257400.56245  23149612.267    23149624.208
       217.000         161.000
  20987028.419   -23694199.04849 -18451860.40047  20987028.343    20987038.261
       238.000         201.000
  22656947.487   -14833080.02049 -11108640.55946  22656947.522    22656959.518
       220.000         167.000
  24343808.939    -4057860.20749  -3033041.41845  24343808.512    24343823.242
       207.000         140.000
  24441897.613    -4551803.18349  -3316962.38845  24441896.737    24441914.351
       206.000         140.000
  24086159.251    -6549090.27749  -5087108.62845  24086159.978    24086176.749
       209.000         142.000
  22839423.635   -10735651.15549  -6934214.43046  22839422.497    22839437.277
       221.000         169.000
  20082532.795   -25188591.05849 -19007895.43648  20082532.342    20082541.446
       244.000         214.000
  21742032.600   -18719493.34849 -13983797.74047  21742031.905    21742042.344
       240.000         204.000
 00 10 23  0 46 30.0000000  0  9G31G27G19G11G26G13G 7G 8G 2
  23167120.843    -8456117.45549  -6185703.14645  23167120.656    23167133.537
       216.000         160.000
  20993766.881   -23658788.20249 -18424267.52147  20993766.928    20993776.787
       238.000         201.000
  22670816.498   -14760198.01849 -11051849.42046  22670816.460    22670829.659
       220.000         166.000
  24335198.517    -4103107.11849  -3068298.45145  24335198.083    24335212.195
       208.000         139.000
  24425042.934    -4640373.55749  -3385977.91245  24425042.315    24425059.329
       211.000         140.000
  24107315.934    -6437912.01449  -5000476.43445  24107316.872    24107333.155
       209.000         142.000
  22821288.176   -10830952.62049  -7008474.99246  22821286.672    22821300.784
       222.000         169.000
  20080715.681   -25198139.66949 -19015335.85448  20080715.150    20080724.353
       244.000         214.000
  21736488.447   -18748627.74649 -14006499.77447  21736487.723    21736498.343
       240.000         204.000
 00 10 23  0 47  0.0000000  0  9G31G27G19G11G26G13G 7G 8G 2
  23184693.576    -8363772.22349  -6113745.87745  23184693.381    23184707.107
       215.000         160.000
  21000573.301   -23623020.17449 -18396396.31947  21000573.176    21000583.046
       238.000         201.000
  22684734.022   -14687061.01449 -10994859.57446  22684733.935    22684746.185
       220.000         165.000
  24326644.094    -4148059.65949  -3103326.11645  24326642.846    24326658.594
       208.000         140.000
  24408240.512    -4728669.42549  -3454779.55445  24408239.517    24408256.564
       210.000         140.000
  24128486.914    -6326658.67349  -4913785.73345  24128487.286    24128504.621
       212.000         142.000
  22803195.447   -10926029.19949  -7082560.31646  22803193.927    22803208.582
       222.000         170.000
  20078962.367   -25207353.15349 -19022515.13048  20078961.694    20078971.016
       244.000         214.000
  21730978.852   -18777580.47949 -14029060.24447  21730977.867    21730988.435
       240.000         204.000
 00 10 23  0 47 30.0000000  0  9G31G27G19G11G26G13G 7G 8G 2
  23202329.038    -8271097.42549  -6041531.80345  23202329.422    23202342.859
       216.000         159.000
  21007447.558   -23586895.72849 -18368247.39347  21007447.087    21007457.130
       238.000         201.000
  22698699.726   -14613670.90949 -10937672.50746  22698700.127    22698712.297
       220.000         165.000
  24318145.903    -4192716.57449  -3138123.41445  24318144.959    24318160.004
       207.000         140.000
  24391490.650    -4816689.32049  -3523366.17145  24391489.963    24391507.310
       208.000         140.000
  24149671.463    -6215334.10549  -4827039.53445  24149672.600    24149688.371
       210.000         141.000
  22785145.717   -11020879.94549  -7156469.66246  22785144.383    22785159.012
       221.000         170.000
  20077272.812   -25216231.63349 -19029433.37048  20077272.364    20077281.412
       244.000         214.000
  21725503.503   -18806353.29649 -14051480.52447  21725502.787    21725513.315
       241.000         204.000
 00 10 23  0 48  0.0000000  0  9G31G27G19G11G26G13G 7G 8G 2
  23220026.770    -8178095.51749  -5969062.83145  23220026.260    23220040.150
       216.000         159.000
  21014389.755   -23550414.23149 -18339820.23647  21014389.801    21014399.112
       237.000         200.000
  22712713.608   -14540027.66149 -10880288.17346  22712713.805    22712726.578
       219.000         165.000
  24309704.514    -4237075.40149  -3172688.44845  24309704.482    24309718.642
       207.000         140.000
  24374793.875    -4904430.62049  -3591735.69345  24374792.572    24374809.130
       210.000         140.000
  24170869.205    -6103940.01049  -4740239.15545  24170869.575    24170886.403
       210.000         140.000
  22767139.429   -11115502.37449  -7230201.10246  22767138.128    22767152.960
       221.000         171.000
  20075647.281   -25224773.66449 -19036089.43848  20075646.739    20075655.868
       243.000         214.000
  21720062.308   -18834946.54749 -14073760.87347  21720061.704    21720072.191
       240.000         204.000
 00 10 23  0 48 30.0000000  0  9G31G27G19G11G26G13G 7G 8G 2
  23237786.214    -8084769.09449  -5896340.99345  23237786.535    23237799.739
       215.000         159.000
  21021400.103   -23513574.53649 -18311113.96847  21021400.058    21021409.625
       238.000         200.000
  22726775.653   -14466131.14749 -10822706.50646  22726775.721    22726787.844
       219.000         165.000
  24301320.381    -4281132.94049  -3207018.71745  24301319.377    24301334.044
       207.000         141.000
  24358150.547    -4991890.35949  -3659885.81845  24358149.714    24358166.469
       210.000         140.000
  24192079.707    -5992478.85449  -4653386.54345  24192079.742    24192097.560
       206.000         140.000
  22749177.084   -11209893.85549  -7303752.57446  22749175.494    22749189.808
       222.000         171.000
  20074086.140   -25232977.48449 -19042481.96548  20074085.630    20074094.580
       243.000         214.000
  21714655.228   -18863360.64449 -14095901.62847  21714654.527    21714664.867
       240.000         205.000
 00 10 23  0 49  0.0000000  0  9G31G27G19G11G26G13G 7G 8G 2
  23255606.817    -7991121.62149  -5823368.97745  23255606.499    23255619.841
       216.000         158.000
  21028478.604   -23476376.75249 -18282128.66247  21028478.517    21028488.206
       239.000         200.000
  22740885.717   -14391982.33849 -10764928.23646  22740885.093    22740898.433
       220.000         164.000
  24292993.992    -4324887.52949  -3241112.92345  24292992.671    24293007.862
       210.000         142.000
  24341561.208    -5079066.73049  -3727815.16045  24341559.919    24341577.511
       212.000         140.000
  24213302.462    -5880953.61849  -4566483.98145  24213303.909    24213321.090
       208.000         139.000
  22731258.982   -11304052.70249  -7377122.77046  22731257.468    22731272.015
       224.000         172.000
  20072589.406   -25240842.59349 -19048610.56248  20072588.856    20072597.979
       244.000         214.000
  21709282.063   -18891596.57349 -14117903.54147  21709281.467    21709291.724
       241.000         205.000
 00 10 23  0 49 30.0000000  0  9G31G27G19G11G26G13G 7G 8G 2
  23273487.932    -7897155.77749  -5750148.88345  23273487.410    23273500.514
       214.000         157.000
  21035625.375   -23438820.19649 -18252863.79447  21035625.390    21035635.048
       237.000         200.000
  22755043.683   -14317581.61549 -10706953.68046  22755043.721    22755056.313
       218.000         164.000
  24284725.665    -4368336.42849  -3274968.94045  24284724.905    24284739.339
       209.000         142.000
  24325026.291    -5165957.02449  -3795521.59345  24325024.896    24325041.964
       209.000         139.000
  24234536.920    -5769366.70349  -4479533.37945  24234537.159    24234553.758
       209.000         139.000
  22713385.630   -11397976.59549  -7450309.89846  22713384.651    22713398.174
       221.000         172.000
  20071157.365   -25248367.85349 -19054474.34248  20071156.627    20071165.908
       243.000         214.000
  21703942.682   -18919654.85849 -14139767.02747  21703941.864    21703952.174
       240.000         205.000
 00 10 23  0 50  0.0000000  0  9G31G27G19G11G26G13G 7G 8G 2
  23291429.193    -7802874.17949  -5676682.73445  23291428.580    23291442.850
       216.000         157.000
  21042840.556   -23400904.07549 -18223318.74947  21042840.345    21042850.096
       237.000         200.000
  22769249.612   -14242929.04149 -10648782.87546  22769249.986    22769263.058
       218.000         164.000
  24276516.108    -4411476.81049  -3308584.55245  24276514.848    24276529.077
       208.000         143.000
  24308546.325    -5252558.21449  -3863002.74245  24308545.094    24308562.979
       211.000         140.000
  24255782.669    -5657720.37849  -4392536.47745  24255783.451    24255802.465
       207.000         138.000
  22695557.501   -11491662.74849  -7523311.74746  22695555.634    22695570.236
       223.000         172.000
  20069790.348   -25255551.24049 -19060071.72948  20069789.634    20069798.960
       242.000         214.000
  21698637.053   -18947535.65249 -14161492.21347  21698636.407    21698646.729
       240.000         205.000
 00 10 23  0 50 30.0000000  0  9G31G27G19G11G26G13G 7G 8G 2
  23309429.880    -7708280.12149  -5602973.11845  23309429.798    23309442.228
       215.000         156.000
  21050124.122   -23362628.70849 -18193493.76447  21050124.312    21050133.640
       238.000         200.000
  22783503.293   -14168025.60049 -10590416.57146  22783503.109    22783516.095
       218.000         163.000
  24268365.647    -4454306.94949  -3341958.41745  24268365.470    24268379.214
       209.000         143.000
  24292121.749    -5338868.62549  -3930257.34345  24292121.264    24292138.806
       212.000         139.000
  24277039.149    -5546017.44349  -4305495.47945  24277038.766    24277057.091
       203.000         136.000
  22677774.892   -11585109.62249  -7596127.16346  22677773.624    22677787.483
       223.000         173.000
  20068488.444   -25262392.47849 -19065402.50548  20068487.995    20068497.024
       244.000         214.000
  21693364.999   -18975240.05649 -14183079.95647  21693364.406    21693374.567
       241.000         205.000
 00 10 23  0 51  0.0000000  0  9G31G27G19G11G26G13G 7G 8G 2
  23327489.538    -7613375.90349  -5529021.81445  23327489.805    23327502.897
       213.000         156.000
  21057476.246   -23323993.01949 -18163388.01347  21057475.973    21057485.708
       236.000         200.000
  22797804.720   -14092871.23149 -10531854.74146  22797804.708    22797817.823
       216.000         163.000
  24260274.777    -4496823.86549  -3375088.21545  24260274.881    24260288.062
       207.000         143.000
  24275753.163    -5424885.17149  -3997282.96545  24275753.196    24275768.146
       207.000         139.000
  24298306.042    -5434260.07049  -4218412.06545  24298305.683    24298324.060
       208.000         135.000
  22660038.287   -11678314.64149  -7668754.11946  22660037.453    22660050.567
       223.000         173.000
  20067251.979   -25268889.85849 -19070465.34648  20067251.501    20067260.448
       243.000         214.000
  21688126.494   -19002768.19249 -14204530.35347  21688125.653    21688135.954
       240.000         205.000
 00 10 23  0 51 30.0000000  0  9G31G27G19G11G26G13G 7G 8G 2
  23345607.647    -7518164.83349  -5454831.40845  23345607.462    23345620.173
       213.000         155.000
  21064896.912   -23284997.03849 -18133001.51247  21064896.436    21064906.280
       236.000         200.000
  22812153.658   -14017466.93949 -10473098.17345  22812153.465    22812166.853
       217.000         162.000
  24252243.848    -4539025.50849  -3407972.34645  24252242.152    24252256.935
       208.000         143.000
  24259440.787    -5510605.75149  -4064077.94345  24259440.139    24259456.368
       209.000         139.000
  24319582.726    -5322451.13449  -4131288.47245  24319583.543    24319600.716
       205.000         135.000
  22642348.079   -11771275.96349  -7741191.18246  22642346.999    22642360.064
       224.000         174.000
  20066081.099   -25275042.70949 -19075259.72548  20066080.601    20066089.649
       243.000         214.000
  21682921.345   -19030121.04849 -14225844.17047  21682920.387    21682930.728
       240.000         205.000
 00 10 23  0 52  0.0000000  0  9G31G27G19G11G26G13G 7G 8G 2
  23363783.658    -7422649.42649  -5380403.86345  23363783.429    23363797.085
       214.000         155.000
  21072386.313   -23245639.97749 -18102333.64947  21072385.791    21072395.763
       236.000         199.000
  22826550.161   -13941812.81649 -10414146.93445  22826549.708    22826563.240
       217.000         162.000
  24244273.479    -4580909.03749  -3440608.60745  24244272.649    24244286.355
       207.000         144.000
  24243185.421    -5596027.48749  -4130640.06245  24243185.212    24243201.277
       206.000         139.000
  24340868.809    -5210593.01849  -4044126.53845  24340870.906    24340885.412
       204.000         134.000
  22624704.819   -11863990.97349  -7813436.32346  22624703.464    22624717.084
       224.000         174.000
  20064976.098   -25280849.33449 -19079784.31648  20064975.477    20064984.314
       243.000         214.000
  21677749.493   -19057298.86249 -14247021.58947  21677748.547    21677758.884
       241.000         205.000
 00 10 23  0 52 30.0000000  0  9G31G27G19G11G26G13G 7G 8G 2
  23382017.058    -7326832.46149  -5305741.33845  23382016.597    23382030.624
       213.000         155.000
  21079944.498   -23205921.34049 -18071384.05047  21079944.098    21079954.361
       236.000         199.000
  22840994.190   -13865909.19649 -10355001.28845  22840993.859    22841007.954
       217.000         162.000
  24236364.188    -4622471.91049  -3472995.03045  24236362.595    24236378.379
       207.000         144.000
  24226987.295    -5681147.82049  -4196967.32545  24226986.916    24227003.016
       209.000         140.000
  24362163.836    -5098687.91949  -3956928.00945  24362163.575    24362182.128
       206.000         134.000
  22607108.770   -11956457.39049  -7885487.77246  22607107.835    22607121.089
       224.000         175.000
  20063937.212   -25286308.42349 -19084038.11148  20063936.636    20063945.853
       244.000         214.000
  21672610.866   -19084302.18249 -14268063.05047  21672610.104    21672620.397
       241.000         205.000
 00 10 23  0 53  0.0000000  0  9G31G27G19G11G26G13G 7G 8G 2
  23400307.143    -7230717.70349  -5230846.76445  23400307.204    23400319.826
       214.000         155.000
  21087571.359   -23165841.74549 -18040153.17647  21087571.148    21087581.015
       236.000         199.000
  22855485.351   -13789757.59749 -10295662.42045  22855485.317    22855497.658
       216.000         161.000
  24228516.101    -4663712.92349  -3505130.64945  24228515.648    24228529.056
       206.000         144.000
  24210846.758    -5765965.42849  -4263058.67045  24210845.880    24210861.461
       208.000         140.000
  24383467.087    -4986739.21749  -3869695.50845  24383467.037    24383485.574
       203.000         135.000
  22589560.257   -12048674.16049  -7957344.67846  22589559.004    22589571.902
       224.000         175.000
  20062964.450   -25291420.10649 -19088021.19648  20062963.929    20062973.039
       244.000         214.000
  21667505.108   -19111132.77149 -14288969.90947  21667504.399    21667514.617
       241.000         206.000
 00 10 23  0 53 30.0000000  0  9G31G27G19G11G26G13G 7G 8G 2
  23418653.607    -7134306.35649  -5155721.06645  23418653.304    23418665.607
       214.000         154.000
  21095267.325   -23125399.18549 -18008639.48547  21095267.150    21095276.755
       236.000         199.000
  22870023.952   -13713356.89449 -10236129.44045  22870023.392    22870036.471
       217.000         161.000
  24220729.915    -4704628.11249  -3537012.39145  24220729.018    24220743.067
       210.000         144.000
  24194764.754    -5850476.14949  -4328910.88545  24194763.814    24194780.670
       206.000         139.000
  24404778.559    -4874747.64949  -3782429.59745  24404780.182    24404796.335
       203.000         134.000
  22572059.988   -12140637.48349  -8029004.11846  22572058.499    22572072.970
       224.000         175.000
  20062058.363   -25296181.40949 -19091731.26348  20062057.866    20062066.996
       243.000         214.000
  21662432.424   -19137789.56749 -14309741.34747  21662431.701    21662441.747
       241.000         206.000
 00 10 23  0 54  0.0000000  0  9G31G27G19G11G26G13G 7G 8G 2
  23437055.721    -7037602.65649  -5080367.55845  23437056.184    23437068.448
       214.000         153.000
  21103032.141   -23084594.77049 -17976843.81847  21103031.955    21103041.809
       236.000         199.000
  22884609.541   -13636708.92549 -10176403.78245  22884609.465    22884622.774
       215.000         160.000
  24213006.103    -4745216.49749  -3568639.47745  24213005.405    24213019.512
       208.000         144.000
  24178741.250    -5934678.87349  -4394523.07545  24178740.926    24178756.634
       208.000         140.000
  24426097.346    -4762717.51149  -3695133.61545  24426097.135    24426115.522
       204.000         134.000
  22554608.074   -12232346.62849  -8100465.49546  22554607.220    22554619.456
       224.000         176.000
  20061218.968   -25300592.41549 -19095168.36348  20061218.358    20061227.479
       243.000         214.000
  21657392.430   -19164274.56549 -14330378.90847  21657391.710    21657401.860
       241.000         206.000
 00 10 23  0 54 30.0000000  0  9G31G27G19G11G26G13G 7G 8G 2
  23455512.946    -6940609.47849  -5004788.48545  23455512.277    23455525.676
       215.000         153.000
  21110865.904   -23043427.93349 -17944765.75147  21110865.442    21110875.377
       237.000         199.000
  22899242.142   -13559814.18249 -10116485.83145  22899241.855    22899255.125
       217.000         160.000
  24205344.938    -4785475.54749  -3600009.96445  24205344.149    24205358.193
       209.000         144.000
  24162776.830    -6018571.14649  -4459893.35645  24162776.528    24162791.752
       207.000         141.000
  24447423.111    -4650650.98249  -3607809.27845  24447424.160    24447442.030
       205.000         133.000
  22537205.021   -12323799.25749  -8171727.00546  22537203.549    22537217.046
       226.000         176.000
  20060446.380   -25304652.21049 -19098331.79148  20060445.732    20060454.798
       244.000         214.000
  21652385.057   -19190588.09449 -14350882.86847  21652384.246    21652394.476
       242.000         206.000
 00 10 23  0 55  0.0000000  0  9G31G27G19G11G26G13G 7G 8G 2
  23474025.001    -6843328.13449  -4928984.87345  23474024.641    23474038.278
       213.000         153.000
  21118769.017   -23001896.79849 -17912403.82547  21118768.691    21118778.384
       236.000         198.000
  22913921.910   -13482671.78749 -10056374.90045  22913921.372    22913935.475
       217.000         161.000
  24197747.026    -4825401.47249  -3631120.86845  24197746.659    24197760.494
       209.000         145.000
  24146872.282    -6102149.00349  -4525018.61245  24146872.178    24146887.885
       208.000         141.000
  24468755.553    -4538549.05349  -3520457.35745  24468757.062    24468774.180
       202.000         132.000
  22519851.430   -12414991.76149  -8242785.83246  22519850.242    22519863.250
       226.000         176.000
  20059741.138   -25308357.95149 -19101219.34348  20059740.501    20059749.661
       244.000         214.000
  21647410.443   -19216729.40349 -14371252.63747  21647409.670    21647419.689
       241.000         206.000
 00 10 23  0 55 30.0000000  0  9G31G27G19G11G26G13G 7G 8G 2
  23492590.908    -6745763.62949  -4852960.59345  23492590.008    23492603.629
       213.000         152.000
  21126741.087   -22960003.20849 -17879759.45947  21126740.892    21126750.572
       236.000         198.000
  22928648.321   -13405284.29149  -9996072.97945  22928648.317    22928661.204
       218.000         161.000
  24190212.674    -4864994.04749  -3661972.04345  24190211.405    24190225.765
       210.000         145.000
  24131027.543    -6185412.06149  -4589898.56645  24131026.768    24131043.937
       207.000         141.000
  24490093.823    -4426416.50949  -3433081.58244  24490094.370    24490113.055
       205.000         131.000
  22502547.388   -12505923.98749  -8313641.84446  22502546.311    22502558.711
       226.000         176.000
  20059103.105   -25311710.81049 -19103831.91248  20059102.512    20059111.472
       244.000         214.000
  21642468.128   -19242701.05149 -14391490.19947  21642467.352    21642477.611
       242.000         206.000
 00 10 23  0 56  0.0000000  0  9G31G27G19G11G26G13G 7G 8G 2
  23511210.513    -6647917.24749  -4776716.67745  23511210.777    23511223.688
       211.000         152.000
  21134782.468   -22917745.37449 -17846831.27347  21134782.165    21134791.914
       237.000         198.000
  22943421.530   -13327650.68649  -9935579.30045  22943421.850    22943434.833
       218.000         161.000
  24182742.520    -4904249.28449  -3692560.36645  24182741.536    24182755.306
       211.000         145.000
  24115243.590    -6268356.34949  -4654530.11745  24115243.324    24115258.203
       205.000         141.000
  24511437.804    -4314254.01949  -3345682.45145  24511439.174    24511456.291
       208.000         132.000
  22485293.533   -12596592.39549  -8384292.29146  22485291.726    22485305.185
       227.000         177.000
  20058532.690   -25314708.19149 -19106167.48448  20058531.947    20058541.053
       244.000         214.000
  21637558.271   -19268502.19449 -14411594.89847  21637557.531    21637567.581
       243.000         206.000
 00 10 23  0 56 30.0000000  0  9G31G27G19G11G26G13G 7G 8G 2
  23529883.103    -6549792.30049  -4700255.69045  23529882.661    23529895.888
       214.000         151.000
  21142893.164   -22875123.29449 -17813619.26447  21142892.780    21142902.717
       236.000         197.000
  22958241.372   -13249771.97849  -9874894.63045  22958241.580    22958254.283
       217.000         160.000
  24175336.847    -4943165.58349  -3722884.58445  24175335.793    24175349.159
       209.000         145.000
  24099520.535    -6350979.98849  -4718911.80945  24099519.390    24099535.131
       206.000         142.000
  24532786.842    -4202064.95449  -3258262.61844  24532786.795    24532804.949
       206.000         131.000
  22468090.227   -12686995.32449  -8454735.88046  22468088.676    22468102.099
       227.000         177.000
  20058030.084   -25317349.21149 -19108225.38148  20058029.465    20058038.585
       244.000         214.000
  21632680.615   -19294134.14249 -14431567.76647  21632680.057    21632690.057
       242.000         206.000
 00 10 23  0 57  0.0000000  0  9G31G27G19G11G26G13G 7G 8G 2
  23548608.113    -6451391.87249  -4623580.02945  23548607.758    23548621.108
       212.000         151.000
  21151073.250   -22832136.67849 -17780123.20047  21151073.037    21151082.909
       235.000         197.000
  22973107.715   -13171648.85749  -9814019.50045  22973107.569    22973120.182
       216.000         160.000
  24167996.060    -4981740.59949  -3752942.85445  24167995.585    24168009.147
       205.000         145.000
  24083858.965    -6433280.66749  -4783041.83245  24083857.243    24083874.099
       204.000         143.000
  24554140.533    -4089851.66149  -3170823.90044  24554140.472    24554158.424
       206.000         131.000
  22450937.803   -12777130.79549  -8524971.06446  22450937.010    22450949.569
       226.000         177.000
  20057595.484   -25319632.89049 -19110004.82148  20057594.856    20057603.914
       243.000         214.000
  21627835.041   -19319597.35749 -14451409.14447  21627834.272    21627844.217
       241.000         206.000
 00 10 23  0 57 30.0000000  0  9G31G27G19G11G26G13G 7G 8G 2
  23567384.907    -6352719.18949  -4546692.22645  23567384.449    23567398.198
       211.000         151.000
  21159322.667   -22788785.67349 -17746343.19447  21159322.426    21159332.159
       235.000         197.000
  22988020.426   -13093282.22649  -9752954.62245  22988020.654    22988034.016
       216.000         159.000
  24160720.646    -5019972.45249  -3782733.73845  24160719.472    24160733.115
       212.000         146.000
  24068259.266    -6515256.25249  -4846918.55745  24068258.501    24068273.860
       204.000         143.000
  24575498.292    -3977616.85249  -3083368.43944  24575499.726    24575514.546
       204.000         130.000
  22433836.619   -12866997.05449  -8594996.46346  22433835.169    22433848.345
       226.000         178.000
  20057228.960   -25321558.67949 -19111505.38748  20057228.420    20057237.474
       243.000         214.000
  21623021.422   -19344892.77949 -14471119.77647  21623020.624    21623030.706
       241.000         207.000
 00 10 23  0 58  0.0000000  0  9G31G27G19G11G26G13G 7G 8G 2
  23586213.199    -6253775.83149  -4469593.51245  23586212.825    23586226.666
       212.000         151.000
  21167641.721   -22745068.63349 -17712277.96947  21167641.577    21167651.453
       235.000         197.000
  23002979.618   -13014671.31249  -9691699.38945  23002979.159    23002992.022
       217.000         159.000
  24153511.232    -5057857.45549  -3812254.33845  24153510.423    24153524.127
       211.000         146.000
  24052722.071    -6596903.05149  -4910539.05845  24052720.348    24052736.967
       205.000         144.000
  24596859.923    -3865361.72749  -2995897.09344  24596860.418    24596877.051
       204.000         130.000
  22416787.338   -12956590.56149  -8664809.34346  22416785.852    22416799.082
       227.000         178.000
  20056931.094   -25323123.91849 -19112725.00548  20056930.516    20056939.497
       243.000         214.000
  21618239.895   -19370019.65749 -14490699.07747  21618239.204    21618249.161
       242.000         207.000
 00 10 23  0 58 30.0000000  0  9G31G27G19G11G26G13G 7G 8G 2
  23605092.270    -6154565.73049  -4392286.95045  23605092.644    23605105.702
       210.000         151.000
  21176030.237   -22700986.76149 -17677928.45547  21176029.860    21176040.082
       235.000         197.000
  23017984.954   -12935817.99949  -9630255.26945  23017984.401    23017997.529
       216.000         160.000
  24146368.006    -5095394.75449  -3841504.00345  24146366.788    24146381.347
       212.000         146.000
  24037247.812    -6678219.90249  -4973902.47145  24037246.770    24037262.323
       209.000         144.000
  24618224.696    -3753089.93849  -2908412.79144  24618226.177    24618242.984
       203.000         129.000
  22399790.122   -13045910.67349  -8734409.17446  22399788.429    22399801.645
       228.000         178.000
  20056701.726   -25324328.95649 -19113663.93748  20056701.085    20056709.927
       244.000         214.000
  21613490.004   -19394980.10249 -14510148.68447  21613489.143    21613499.258
       241.000         207.000
 00 10 23  0 59  0.0000000  0  9G31G27G19G11G26G13G 7G 8G 2
  23624021.575    -6055091.58149  -4314774.62145  23624021.840    23624034.409
       210.000         151.000
  21184488.254   -22656539.60249 -17643294.31047  21184487.934    21184498.067
       235.000         196.000
  23033036.346   -12856722.51749  -9568622.44945  23033035.991    23033048.891
       216.000         159.000
  24139291.381    -5132581.80849  -3870480.74945  24139289.498    24139303.463
       211.000         146.000
  24021836.676    -6759204.31349  -5037006.85645  24021836.239    24021851.036
       207.000         145.000
  24639592.117    -3640804.23949  -2820917.64244  24639593.285    24639610.874
       203.000         129.000
  22382845.339   -13134955.05149  -8803794.15646  22382844.069    22382856.723
       228.000         179.000
  20056541.176   -25325172.44749 -19114321.15348  20056540.666    20056549.516
       243.000         214.000
  21608771.793   -19419774.28949 -14529468.75247  21608770.889    21608780.954
       242.000         207.000
 00 10 23  0 59 30.0000000  0  9G31G27G19G11G26G13G 7G 8G 2
  23643000.632    -5955356.17949  -4237058.73945  23643000.981    23643012.758
       213.000         150.000
  21193015.836   -22611726.83249 -17608375.27047  21193015.681    21193025.598
       235.000         196.000
  23048133.670   -12777385.58549  -9506801.48545  23048133.509    23048146.135
       216.000         159.000
  24132281.856    -5169416.29449  -3899182.77745  24132280.650    24132294.460
       211.000         146.000
  24006489.337    -6839853.79049  -5099850.26245  24006489.893    24006504.138
       211.000         146.000
  24660961.766    -3528506.73149  -2733413.28044  24660962.431    24660980.327
       207.000         129.000
  22365953.421   -13223721.55549  -8872962.60246  22365952.174    22365964.112
       228.000         179.000
  20056449.669   -25325653.17749 -19114695.68848  20056448.959    20056457.901
       244.000         214.000
  21604085.083   -19444402.72949 -14548659.65747  21604084.384    21604094.102
       242.000         207.000
 00 10 23  1  0  0.0000000  0  9G31G27G19G11G26G13G 7G 8G 2
  23662028.890    -5855362.14449  -4159141.30045  23662028.838    23662042.238
       209.000         150.000
  21201613.133   -22566547.66649 -17573170.72747  21201613.159    21201622.557
       234.000         196.000
  23063276.950   -12697807.26849  -9444792.44445  23063277.435    23063289.665
       215.000         159.000
  24125339.982    -5205895.59349  -3927608.02545  24125339.645    24125352.231
       211.000         147.000
  23991206.298    -6920165.41249  -5162430.39845  23991206.054    23991220.026
       210.000         147.000
  24682333.276    -3416199.30849  -2645901.21044  24682333.106    24682352.695
       204.000         131.000
  22349114.886   -13312207.57649  -8941912.48346  22349113.970    22349126.001
       227.000         179.000
  20056427.464   -25325769.68849 -19114786.41948  20056426.865    20056435.776
       243.000         214.000
  21599429.938   -19468865.46249 -14567721.43747  21599429.446    21599439.392
       241.000         207.000
 00 10 23  1  0 30.0000000  0  9G31G27G19G11G26G13G 7G 8G 2
  23681105.789    -5755112.27249  -4081024.50945  23681105.682    23681118.985
       210.000         150.000
  21210280.187   -22521001.94849 -17537680.56247  21210280.249    21210289.755
       235.000         196.000
  23078465.989   -12617988.28949  -9382595.86645  23078466.330    23078478.592
       215.000         158.000
  24118466.036    -5242017.55349  -3955754.81745  24118465.104    24118478.858
       210.000         148.000
  23975987.919    -7000136.99149  -5224745.58245  23975987.929    23976002.384
       212.000         148.000
  24703706.163    -3303884.92449  -2558383.66544  24703706.180    24703726.025
       203.000         130.000
  22332330.134   -13400411.12249  -9010642.25246  22332329.160    22332341.454
       229.000         180.000
  20056474.715   -25325521.08149 -19114592.64448  20056474.052    20056482.931
       244.000         214.000
  21594806.139   -19493163.30449 -14586654.73247  21594805.237    21594815.354
       242.000         207.000
 00 10 23  1  1  0.0000000  0  9G31G27G19G11G26G13G 7G 8G 2
  23700230.753    -5654609.70449  -4002710.83045  23700230.432    23700243.652
       211.000         149.000
  21219016.983   -22475089.85849 -17501904.91347  21219016.860    21219026.847
       235.000         196.000
  23093700.696   -12537929.66849  -9320212.56245  23093700.224    23093714.486
       215.000         158.000
  24111660.438    -5277780.48549  -3983621.84445  24111659.635    24111672.789
       212.000         148.000
  23960834.770    -7079766.34749  -5286794.12445  23960834.799    23960848.885
       211.000         149.000
  24725079.907    -3191565.89149  -2470862.53344  24725082.282    24725099.645
       201.000         129.000
  22315599.388   -13488330.60749  -9079150.66046  22315598.223    22315610.601
       228.000         180.000
  20056591.682   -25324906.32649 -19114113.55848  20056591.061    20056599.934
       243.000         214.000
  21590213.541   -19517297.16249 -14605460.25147  21590212.717    21590222.715
       242.000         207.000
 00 10 23  1  1 30.0000000  0  8G31G27G19G11G26G 7G 8G 2
  23719403.649    -5553855.52049  -3924201.06245  23719403.119    23719416.541
       211.000         149.000
  21227823.882   -22428809.32849 -17465842.16447  21227823.594    21227833.429
       234.000         196.000
  23108981.230   -12457630.13649  -9257641.53745  23108981.005    23108994.571
       215.000         158.000
  24104924.033    -5313180.12149  -4011205.78545  24104922.939    24104936.260
       211.000         149.000
  23945747.469    -7159049.30949  -5348572.73945  23945746.065    23945761.736
       211.000         149.000
  22298923.498   -13575961.98049  -9147434.57546  22298922.597    22298934.291
       228.000         181.000
  20056778.837   -25323922.64349 -19113346.99648  20056778.191    20056786.969
       244.000         214.000
  21585652.443   -19541265.63549 -14624136.90247  21585651.734    21585661.504
       242.000         207.000
 00 10 23  1  2  0.0000000  0  8G31G27G19G11G26G 7G 8G 2
  23738623.727    -5452853.13149  -3845497.88445  23738623.143    23738636.128
       212.000         149.000
  21236700.789   -22382160.91849 -17429492.75847  21236700.778    21236710.225
       235.000         195.000
  23124307.267   -12377091.29849  -9194884.03845  23124307.325    23124320.559
       216.000         158.000
  24098257.024    -5348214.98849  -4038505.48345  24098255.855    24098269.392
       214.000         149.000
  23930726.451    -7237984.17549  -5410080.13845  23930724.964    23930741.014
       213.000         150.000
  22282302.674   -13663304.02649  -9215493.03446  22282301.114    22282313.713
       229.000         181.000
  20057036.223   -25322569.75249 -19112292.74848  20057035.623    20057044.511
       244.000         214.000
  21581122.521   -19565070.14549 -14642685.79047  21581121.780    21581131.440
       242.000         207.000
 00 10 23  1  2 30.0000000  0  8G31G27G19G11G26G 7G 8G 2
  23757890.159    -5351607.61649  -3766605.27845  23757890.445    23757902.980
       214.000         149.000
  21245647.301   -22335146.73949 -17392858.33647  21245647.185    21245656.648
       235.000         195.000
  23139678.339   -12296315.68449  -9131942.02145  23139678.494    23139691.298
       214.000         157.000
  24091659.336    -5382885.25049  -4065521.06745  24091658.712    24091671.080
       215.000         149.000
  23915771.662    -7316570.89949  -5471316.25845  23915770.447    23915785.879
       212.000         151.000
  22265736.802   -13750357.08149  -9283326.29546  22265736.232    22265747.989
       230.000         181.000
  20057363.638   -25320848.97549 -19110951.83448  20057363.116    20057371.927
       244.000         214.000
  21576623.233   -19588713.75849 -14661109.30047  21576622.645    21576632.155
       243.000         207.000
 00 10 23  1  3  0.0000000  0  8G31G27G19G11G26G 7G 8G 2
  23777202.372    -5250121.13049  -3687524.89745  23777201.816    23777215.469
       214.000         149.000
  21254663.581   -22287765.91849 -17355938.21847  21254663.353    21254672.954
       234.000         195.000
  23155094.496   -12215303.50849  -9068815.68745  23155094.452    23155107.944
       214.000         157.000
  24085131.654    -5417188.10649  -4092250.37245  24085131.271    24085143.357
       212.000         149.000
  23900883.705    -7394806.54049  -5532278.79945  23900883.503    23900897.562
       212.000         151.000
  22249226.467   -13837118.32049  -9350932.17946  22249225.612    22249237.530
       229.000         182.000
  20057761.474   -25318758.21049 -19109322.62448  20057760.761    20057769.627
       243.000         214.000
  21572154.594   -19612196.28649 -14679407.29447  21572153.789    21572163.503
       242.000         207.000
 00 10 23  1  3 30.0000000  0  8G31G27G19G11G26G 7G 8G 2
  23796559.809    -5148397.00749  -3608259.33945  23796559.385    23796572.659
       212.000         149.000
  21263749.597   -22240018.56449 -17318732.48847  21263749.553    21263759.066
       234.000         195.000
  23170555.466   -12134055.64749  -9005505.71145  23170555.858    23170568.456
       215.000         157.000
  24078674.069    -5451121.82249  -4118692.02045  24078672.932    24078685.737
       212.000         148.000
  23886062.906    -7472688.86949  -5592966.03345  23886062.393    23886077.203
       213.000         151.000
  22232771.985   -13923586.05649  -9418309.35746  22232771.203    22232782.394
       230.000         182.000
  20058229.747   -25316297.21749 -19107404.91648  20058229.097    20058238.001
       244.000         214.000
  21567716.417   -19635518.67449 -14697580.49947  21567715.781    21567725.325
       242.000         208.000
 00 10 23  1  4  0.0000000  0  8G31G27G19G11G26G 7G 8G 2
  23815962.245    -5046436.46649  -3528809.54745  23815961.473    23815974.724
       210.000         149.000
  21272905.675   -22191902.93749 -17281239.79047  21272905.394    21272915.268
       235.000         195.000
  23186061.493   -12052571.16649  -8942011.35445  23186060.554    23186074.705
       216.000         157.000
  24072287.576    -5484682.48349  -4144842.97645  24072286.933    24072298.832
       212.000         149.000
  23871310.210    -7550214.00849  -5653374.95745  23871310.206    23871324.093
       214.000         152.000
  22216374.057   -14009756.79049  -9485455.10646  22216372.825    22216385.030
       230.000         183.000
  20058769.001   -25313463.16349 -19105196.51648  20058768.274    20058777.126
       245.000         214.000
  21563308.974   -19658679.62549 -14715627.91247  21563308.142    21563317.987
       243.000         208.000
 00 10 23  1  4 30.0000000  0  8G31G27G19G11G26G 7G 8G 2
  23835408.976    -4944243.28649  -3449178.47645  23835408.230    23835422.491
       208.000         149.000
  21282131.700   -22143420.01649 -17243460.88647  21282131.507    21282141.094
       233.000         194.000
  23201612.175   -11970852.00649  -8878334.13245  23201611.688    23201625.485
       215.000         156.000
  24065972.252    -5517869.02049  -4170702.42045  24065971.714    24065984.887
       213.000         149.000
  23856625.608    -7627380.74349  -5713504.59945  23856625.172    23856638.945
       213.000         151.000
  22200032.836   -14095629.42249  -9552368.58946  22200031.798    22200043.673
       228.000         183.000
  20059379.266   -25310256.09149 -19102697.45648  20059378.441    20059387.292
       243.000         214.000
  21558931.925   -19681680.84549 -14733550.86647  21558931.053    21558940.652
       242.000         208.000
 00 10 23  1  5  0.0000000  0  8G31G27G19G11G26G 7G 8G 2
  23854899.504    -4841819.84849  -3369367.99845  23854899.177    23854912.180
       211.000         149.000
  21291427.734   -22094568.96149 -17205395.12547  21291427.771    21291437.283
       233.000         194.000
  23217207.497   -11888898.12849  -8814474.01245  23217207.372    23217220.869
       213.000         156.000
  24059728.607    -5550678.85249  -4196268.33645  24059728.776    24059740.025
       212.000         148.000
  23842009.838    -7704186.04249  -5773352.61445  23842008.791    23842023.440
       213.000         151.000
  22183748.823   -14181201.43249  -9619047.82746  22183747.401    22183759.268
       229.000         184.000
  20060060.810   -25306674.27949 -19099906.39348  20060060.229    20060068.920
       244.000         214.000
  21554585.272   -19704522.35749 -14751349.36847  21554584.512    21554594.463
       242.000         208.000
 00 10 23  1  5 30.0000000  0  8G31G27G19G11G26G 7G 8G 2
  23874433.218    -4739169.27349  -3289380.54345  23874433.294    23874445.904
       213.000         148.000
  21300793.763   -22045350.12849 -17167042.78247  21300793.348    21300803.041
       234.000         194.000
  23232847.259   -11806710.74849  -8750431.93645  23232847.035    23232860.488
       215.000         155.000
  24053556.966    -5583110.30449  -4221539.38445  24053556.140    24053568.557
       211.000         148.000
  23827463.174    -7780628.13949  -5832917.63745  23827462.591    23827476.803
       214.000         151.000
  22167522.322   -14266471.27349  -9685491.60546  22167521.284    22167533.086
       229.000         184.000
  20060813.801   -25302717.20049 -19096822.91348  20060813.158    20060821.991
       244.000         214.000
  21550268.816   -19727205.19549 -14769024.22247  21550268.040    21550277.432
       243.000         208.000
 00 10 23  1  6  0.0000000  0  8G31G27G19G11G26G 7G 8G 2
  23894009.509    -4636295.18349  -3209218.88345  23894008.242    23894021.598
       210.000         148.000
  21310229.680   -21995764.13449 -17128404.33247  21310229.465    21310239.371
       234.000         194.000
  23248531.171   -11724291.20449  -8686208.95245  23248531.157    23248544.747
       214.000         154.000
  24047457.543    -5615162.06249  -4246514.59745  24047456.952    24047468.985
       213.000         148.000
  23812985.926    -7856705.24749  -5892198.23545  23812985.853    23812999.832
       213.000         151.000
  22151353.535   -14351437.76849  -9751699.02246  22151352.548    22151363.845
       229.000         184.000
  20061638.274   -25298384.37449 -19093446.63748  20061637.707    20061646.291
       243.000         214.000
  21545982.310   -19749730.57049 -14786576.38147  21545981.457    21545991.110
       243.000         208.000
 00 10 23  1  6 30.0000000  0  8G31G27G19G11G26G 7G 8G 2
  23913628.207    -4533198.05749  -3128883.43945  23913628.370    23913641.003
       214.000         148.000
  21319735.875   -21945808.55049 -17089477.88747  21319735.524    21319745.469
       234.000         194.000
  23264259.665   -11641637.77149  -8621803.70845  23264259.198    23264273.162
       215.000         153.000
  24041431.190    -5646829.60749  -4271190.41345  24041430.584    24041442.169
       211.000         148.000
  23798579.028    -7932412.95349  -5951191.00745  23798578.187    23798591.920
       215.000         151.000
  22135243.306   -14436096.68249  -9817666.78046  22135242.091    22135253.817
       230.000         184.000
  20062534.780   -25293672.97949 -19089775.38048  20062534.087    20062542.807
       245.000         214.000
  21541726.088   -19772096.87049 -14804004.59847  21541725.304    21541734.913
       243.000         208.000
 00 10 23  1  7  0.0000000  0  8G31G27G19G11G26G 7G 8G 2
  23933288.543    -4429882.44249  -3048377.73945  23933288.849    23933302.121
       211.000         148.000
  21329312.067   -21895485.21049 -17050264.88747  21329311.855    21329321.580
       234.000         194.000
  23280032.144   -11558753.03349  -8557218.23845  23280032.179    23280044.820
       213.000         153.000
  24035477.921    -5678112.99049  -4295566.88145  24035477.455    24035489.485
       214.000         148.000
  23784242.566    -8007750.77849  -6009895.57245  23784240.943    23784256.876
       215.000         151.000
  22119191.600   -14520447.90349  -9883394.78446  22119190.633    22119202.044
       230.000         185.000
  20063503.236   -25288583.53549 -19085809.54648  20063502.776    20063511.341
       243.000         214.000
  21537499.703   -19794306.43149 -14821310.68547  21537499.100    21537508.454
       242.000         208.000
 00 10 23  1  7 30.0000000  0  8G31G27G19G11G26G 7G 8G 2
  23952990.009    -4326350.25949  -2967703.29645  23952989.950    23953002.616
       213.000         148.000
  21338958.450   -21844793.10449 -17010764.53147  21338958.247    21338968.029
       232.000         193.000
  23295848.631   -11475636.89649  -8492452.46745  23295849.079    23295861.430
       212.000         152.000
  24029598.480    -5709008.99349  -4319641.51345  24029597.626    24029609.587
       214.000         148.000
  23769977.201    -8082715.36349  -6068309.30645  23769977.387    23769989.669
       213.000         151.000
  22103199.034   -14604488.43349  -9948880.69946  22103197.755    22103209.979
       229.000         185.000
  20064544.003   -25283114.17349 -19081547.66448  20064543.476    20064552.092
       243.000         214.000
  21533303.210   -19816358.80849 -14838494.28947  21533302.575    21533312.229
       241.000         208.000
 00 10 23  1  8  0.0000000  0  8G31G27G19G11G26G 7G 8G 2
  23972731.952    -4222605.83649  -2886863.45245  23972731.463    23972745.108
       211.000         147.000
  21348674.682   -21793733.83249 -16970978.07747  21348674.400    21348684.266
       234.000         193.000
  23311708.736   -11392291.79049  -8427508.25845  23311709.419    23311722.069
       213.000         152.000
  24023792.779    -5739517.38849  -4343414.11745  24023791.425    24023804.731
       213.000         148.000
  23755782.845    -8157306.01149  -6126431.64045  23755782.424    23755796.354
       214.000         151.000
  22087265.636   -14688218.00049 -10014124.30946  22087264.715    22087276.387
       232.000         186.000
  20065656.941   -25277265.55649 -19076990.26448  20065656.455    20065665.077
       244.000         214.000
  21529136.223   -19838256.17949 -14855557.11847  21529135.430    21529144.861
       243.000         208.000
 00 10 23  1  8 30.0000000  0  8G31G27G19G11G26G 7G 8G 2
  23992514.077    -4118650.13849  -2805858.98045  23992513.568    23992527.556
       215.000         147.000
  21358461.169   -21742305.47649 -16930904.01947  21358461.065    21358470.726
       233.000         193.000
  23327612.585   -11308716.65649  -8362384.82145  23327612.300    23327625.870
       213.000         151.000
  24018061.560    -5769634.34549  -4366881.69845  24018060.083    24018073.055
       214.000         148.000
  23741660.382    -8231518.91149  -6184259.64345  23741660.071    23741674.120
       215.000         151.000
  22071392.165   -14771632.93449 -10079122.76846  22071391.184    22071402.335
       231.000         186.000
  20066842.587   -25271034.75249 -19072135.05648  20066841.984    20066850.735
       245.000         214.000
  21524998.953   -19859997.37849 -14872498.25547  21524998.204    21525007.819
       244.000         209.000
 00 10 23  1  9  0.0000000  0  8G31G27G19G11G26G 7G 8G 2
  24012335.648    -4014486.97649  -2724692.84945  24012335.426    24012347.990
       213.000         146.000
  21368317.712   -21690508.97249 -16890543.08547  21368317.522    21368327.479
       234.000         192.000
  23343559.936   -11224913.02049  -8297083.32045  23343560.030    23343573.163
       211.000         150.000
  24012405.057    -5799358.88749  -4390043.51245  24012404.978    24012416.009
       213.000         148.000
  23727610.190    -8305352.38249  -6241791.98445  23727610.267    23727623.597
       216.000         152.000
  22055578.731   -14854732.19349 -10143875.23946  22055577.701    22055589.180
       232.000         186.000
  20068100.927   -25264421.92249 -19066982.15648  20068100.183    20068108.858
       244.000         213.000
  21520891.134   -19881583.90449 -14889318.86247  21520890.388    21520900.017
       244.000         209.000
 00 10 23  1  9 30.0000000  0  8G31G27G19G11G26G 7G 8G 2
  24032196.232    -3910118.78849  -2643366.96345  24032195.297    24032209.618
       208.000         146.000
  21378244.324   -21638344.19949 -16849895.20047  21378244.459    21378254.182
       233.000         192.000
  23359550.630   -11140881.49449  -8231604.23745  23359550.180    23359563.503
       211.000         150.000
  24006823.687    -5828688.59849  -4412897.67145  24006823.472    24006835.581
       213.000         148.000
  23713632.588    -8378804.15349  -6299026.91445  23713632.234    23713645.959
       214.000         152.000
  22039825.776   -14937513.63949 -10208380.08146  22039824.777    22039836.281
       230.000         187.000
  20069432.187   -25257425.97249 -19061530.72948  20069431.742    20069440.262
       244.000         213.000
  21516812.681   -19903016.02249 -14906019.17047  21516812.251    21516821.476
       243.000         209.000
 00 10 23  1 10  0.0000000  0  8G31G27G19G11G26G 7G 8G 2
  24052095.189    -3805548.84149  -2561883.87545  24052095.131    24052108.255
       205.000         145.000
  21388241.021   -21585811.17749 -16808960.35947  21388240.619    21388250.675
       232.000         192.000
  23375584.563   -11056622.77349  -8165948.09645  23375584.849    23375597.434
       211.000         149.000
  24001317.725    -5857621.72649  -4435442.79445  24001316.584    24001329.909
       215.000         149.000
  23699728.080    -8451871.88549  -6355962.58245  23699727.980    23699740.919
       214.000         153.000
  22024133.676   -15019975.52249 -10272635.91446  22024132.231    22024143.819
       231.000         187.000
  20070836.552   -25250045.74849 -19055779.85348  20070835.939    20070844.665
       243.000         213.000
  21512763.489   -19924294.34749 -14922599.62847  21512762.804    21512772.192
       242.000         209.000
 00 10 23  1 10 30.0000000  0  8G31G27G19G11G26G 7G 8G 2
  24072032.226    -3700779.04049  -2480245.06345  24072032.499    24072045.375
       206.000         145.000
  21398307.962   -21532909.05649 -16767737.92847  21398307.860    21398317.818
       232.000         192.000
  23391661.681   -10972137.03749  -8100115.08145  23391661.819    23391675.036
       211.000         149.000
  23995887.839    -5886155.44649  -4457676.69645  23995888.092    23995898.888
       213.000         149.000
  23685897.125    -8524552.82149  -6412596.83745  23685896.905    23685910.652
       214.000         153.000
  22008502.874   -15102115.27949 -10336640.75146  22008501.831    22008513.655
       231.000         187.000
  20072314.320   -25242279.79249 -19049728.42248  20072313.826    20072322.294
       243.000         213.000
  21508743.632   -19945418.64749 -14939060.07647  21508743.067    21508752.595
       242.000         209.000
 00 10 23  1 11  0.0000000  0  8G31G27G19G11G26G 7G 8G 2
  24092006.491    -3595813.33349  -2398453.56745  24092006.021    24092019.868
       207.000         145.000
  21408444.822   -21479639.24149 -16726228.96347  21408444.322    21408454.270
       231.000         191.000
  23407781.547   -10887426.56449  -8034106.95045  23407781.090    23407794.490
       210.000         148.000
  23990534.044    -5914289.31449  -4479599.02845  23990533.889    23990546.099
       211.000         149.000
  23672140.057    -8596845.91249  -6468928.89645  23672138.679    23672153.456
       214.000         153.000
  21992933.503   -15183932.15749 -10400393.98247  21992932.440    21992943.483
       230.000         188.000
  20073865.480   -25234128.26949 -19043376.53948  20073864.743    20073873.325
       243.000         213.000
  21504752.703   -19966390.91849 -14955402.05847  21504751.840    21504761.338
       242.000         209.000
 00 10 23  1 11 30.0000000  0  8G31G27G19G11G26G 7G 8G 2
  24112017.865    -3490652.84749  -2316510.30345  24112016.988    24112029.953
       202.000         144.000
  21418652.008   -21426000.11949 -16684432.24247  21418651.806    21418661.907
       232.000         191.000
  23423944.447   -10802490.15949  -7967922.75745  23423944.671    23423957.273
       212.000         149.000
  23985257.026    -5942019.57249  -4501206.85245  23985256.522    23985268.726
       215.000         149.000
  23658457.557    -8668747.15749  -6524955.60845  23658457.711    23658471.411
       213.000         153.000
  21977426.202   -15265422.81649 -10463893.03147  21977425.075    21977436.132
       232.000         188.000
  20075490.471   -25225588.74749 -19036722.32548  20075490.217    20075498.478
       243.000         213.000
  21500790.911   -19987209.94149 -14971624.63947  21500790.472    21500799.924
       242.000         209.000
 00 10 23  1 12  0.0000000  0  8G31G27G19G11G26G 7G 8G 2
  24132065.352    -3385302.29749  -2234418.95245  24132065.309    24132078.773
       209.000         144.000
  21428929.059   -21371993.79049 -16642349.37347  21428928.751    21428938.642
       232.000         191.000
  23440149.732   -10717330.87549  -7901564.89745  23440149.442    23440163.101
       209.000         149.000
  23980056.742    -5969346.73649  -4522500.56645  23980056.083    23980068.828
       217.000         149.000
  23644849.563    -8740256.59149  -6580677.01245  23644848.812    23644862.225
       213.000         153.000
  21961980.976   -15346587.41949 -10527138.00047  21961979.828    21961990.796
       231.000         188.000
  20077189.062   -25216662.37549 -19029766.66148  20077188.392    20077196.906
       244.000         213.000
  21496857.802   -20007878.38549 -14987729.87047  21496857.255    21496866.778
       243.000         209.000
 00 10 23  1 12 30.0000000  0  8G31G27G19G11G26G 7G 8G 2
  24152148.832    -3279762.70749  -2152180.31345  24152149.185    24152162.794
       207.000         143.000
  21439276.359   -21317618.26149 -16599978.83247  21439276.418    21439286.475
       231.000         191.000
  23456397.662   -10631947.40549  -7835032.33445  23456398.193    23456410.373
       212.000         149.000
  23974934.009    -5996266.84249  -4543477.09945  23974933.589    23974945.696
       216.000         149.000
  23631316.921    -8811370.09849  -6636089.90045  23631315.791    23631329.773
       214.000         153.000
  21946598.468   -15427422.16749 -10590125.95147  21946597.567    21946608.394
       232.000         189.000
  20078961.794   -25207346.57549 -19022507.55848  20078961.244    20078969.864
       243.000         213.000
  21492953.634   -20028394.71749 -15003716.58047  21492953.058    21492962.512
       243.000         209.000
 00 10 23  1 13  0.0000000  0  8G31G27G19G11G26G 7G 8G 2
  24172267.495    -3174038.43049  -2069797.78145  24172267.807    24172279.965
       204.000         143.000
  21449693.603   -21262875.27049 -16557321.94547  21449693.456    21449703.596
       231.000         190.000
  23472687.841   -10546342.23249  -7768327.00245  23472688.106    23472700.743
       211.000         149.000
  23969888.711    -6022779.36249  -4564136.03445  23969887.842    23969900.429
       215.000         149.000
  23617859.808    -8882086.95249  -6691193.70645  23617860.385    23617872.391
       214.000         153.000
  21931278.844   -15507926.82649 -10652856.67647  21931277.542    21931289.090
       232.000         189.000
  20080808.548   -25197641.59949 -19014945.19548  20080807.936    20080816.359
       243.000         213.000
  21489078.035   -20048760.95949 -15019586.31947  21489077.281    21489087.014
       243.000         209.000
 00 10 23  1 13 30.0000000  0  8G31G27G19G11G26G 7G 8G 2
  24192420.950    -3068131.28849  -1987272.74345  24192420.246    24192435.031
       207.000         142.000
  21460180.901   -21207764.15149 -16514378.21247  21460180.976    21460190.750
       231.000         190.000
  23489020.130   -10460515.41949  -7701448.97545  23489020.320    23489033.297
       211.000         149.000
  23964921.495    -6048881.81649  -4584475.43445  23964920.461    23964932.809
       216.000         150.000
  23604478.689    -8952404.13449  -6745986.07345  23604477.800    23604491.313
       213.000         154.000
  21916022.497   -15588098.64349 -10715328.04947  21916021.314    21916032.357
       231.000         189.000
  20082729.639   -25187545.98249 -19007078.44648  20082729.276    20082737.631
       243.000         213.000
  21485231.015   -20068976.94349 -15035338.99047  21485230.404    21485239.790
       242.000         209.000
 00 10 23  1 14  0.0000000  0  8G31G27G19G11G26G 7G 8G 2
  24212608.695    -2962043.77249  -1904607.15145  24212608.510    24212620.439
       204.000         140.000
  21470738.324   -21152284.51249 -16471147.32047  21470738.317    21470747.960
       230.000         190.000
  23505394.515   -10374467.39749  -7634398.59545  23505395.194    23505407.259
       213.000         149.000
  23960032.641    -6074571.80649  -4604493.41845  23960030.366    23960043.684
       214.000         149.000
  23591174.140    -9022319.07649  -6800465.02045  23591173.850    23591186.268
       213.000         154.000
  21900829.908   -15667935.52249 -10777538.43147  21900829.151    21900839.979
       231.000         189.000
  20084725.317   -25177058.40749 -18998906.27248  20084724.934    20084733.246
       243.000         213.000
  21481412.572   -20089042.85449 -15050974.71747  21481412.008    21481421.309
       242.000         209.000
 00 10 23  1 14 30.0000000  0  8G31G27G19G11G26G 7G 8G 2
  24232830.278    -2855778.70849  -1821803.21445  24232829.931    24232843.495
       203.000         140.000
  21481365.803   -21096436.68049 -16427629.52547  21481365.660    21481375.696
       230.000         190.000
  23521810.831   -10288199.30649  -7567176.70545  23521810.270    23521823.435
       212.000         148.000
  23955222.594    -6099848.15549  -4624189.11045  23955223.074    23955233.504
       214.000         150.000
  23577946.510    -9091829.89549  -6854629.06545  23577946.257    23577959.814
       212.000         154.000
  21885701.355   -15747435.93649 -10839486.62547  21885700.245    21885711.118
       231.000         190.000
  20086795.746   -25166178.06949 -18990428.04948  20086795.361    20086803.770
       242.000         213.000
  21477622.529   -20108959.43949 -15066494.07847  21477621.942    21477631.414
       242.000         209.000
 00 10 23  1 15  0.0000000  0  8G31G27G19G11G26G 7G 8G 2
  24253084.954    -2749339.90949  -1738863.89045  24253084.569    24253098.718
       208.000         140.000
  21492063.171   -21040221.68049 -16383825.62547  21492062.974    21492072.779
       232.000         190.000
  23538268.716   -10201712.92449  -7499784.71645  23538267.976    23538282.596
       213.000         148.000
  23950491.360    -6124709.92749  -4643561.75045  23950490.520    23950502.796
       216.000         149.000
  23564795.941    -9160935.45449  -6908477.32345  23564795.831    23564808.161
       214.000         154.000
  21870636.981   -15826599.00849 -10901171.96047  21870636.154    21870647.010
       234.000         190.000
  20088940.862   -25154905.19149 -18981643.94948  20088940.436    20088948.982
       244.000         213.000
  21473860.601   -20128728.29649 -15081898.32847  21473860.176    21473869.639
       244.000         209.000
 00 10 23  1 15 30.0000000  0  8G31G27G19G11G26G 7G 8G 2
  24273372.420    -2642728.54149  -1655790.09545  24273371.225    24273385.975
       200.000         140.000
  21502830.644   -20983638.24349 -16339734.63647  21502830.920    21502840.138
       231.000         189.000
  23554768.124   -10115007.89249  -7432222.35345  23554768.223    23554781.867
       211.000         148.000
  23945839.800    -6149153.55649  -4662608.57645  23945838.941    23945852.061
       215.000         148.000
  23551723.273    -9229632.09149  -6962006.93045  23551723.201    23551736.252
       214.000         154.000
  21855637.367   -15905421.59449 -10962591.97347  21855636.638    21855647.226
       231.000         190.000
  20091161.144   -25143237.47049 -18972552.18348  20091160.819    20091169.204
       242.000         213.000
  21470127.017   -20148348.22849 -15097186.53147  21470126.501    21470135.738
       242.000         209.000
 00 10 23  1 16  0.0000000  0  8G31G27G19G11G26G 7G 8G 2
  24293691.892    -2535948.76949  -1572585.07145  24293691.577    24293704.712
       200.000         139.000
  21513667.919   -20926687.97049 -16295357.78447  21513667.908    21513677.370
       230.000         189.000
  23571308.723   -10028086.24849  -7364491.21645  23571309.542    23571322.594
       210.000         148.000
  23941267.838    -6173178.73049  -4681329.32945  23941267.465    23941278.608
       215.000         149.000
  23538728.528    -9297919.03149  -7015217.31445  23538727.798    23538740.741
       213.000         155.000
  21840702.681   -15983903.23849 -11023746.31747  21840701.727    21840712.995
       233.000         191.000
  20093456.454   -25131175.38349 -18963153.11448  20093455.760    20093464.253
       243.000         213.000
  21466421.361   -20167821.35749 -15112360.33747  21466420.736    21466430.094
       242.000         209.000
 00 10 23  1 16 30.0000000  0  8G31G27G19G11G26G 7G 8G 2
  24314043.237    -2429001.93949  -1489249.85945  24314042.958    24314055.371
       207.000         139.000
  21524575.124   -20869370.16249 -16250694.55247  21524574.927    21524584.733
       232.000         189.000
  23587890.607    -9940948.00449  -7296591.29445  23587890.433    23587903.629
       213.000         148.000
  23936775.935    -6196783.03649  -4699722.12745  23936774.536    23936786.483
       215.000         148.000
  23525812.273    -9365793.29649  -7068106.11845  23525811.689    23525825.565
       215.000         155.000
  21825833.371   -16062041.28749 -11084632.92547  21825832.381    21825843.308
       234.000         191.000
  20095827.097   -25118717.44349 -18953445.58848  20095826.669    20095835.039
       244.000         213.000
  21462743.714   -20187147.33049 -15127419.47647  21462743.092    21462752.489
       244.000         209.000
 00 10 23  1 17  0.0000000  0  8G31G27G19G11G26G 7G 8G 2
  24334425.710    -2321891.24349  -1405786.95645  24334426.597    24334438.562
       213.000         138.000
  21535552.300   -20811684.74649 -16205744.87247  21535551.888    21535561.980
       230.000         189.000
  23604513.546    -9853593.92149  -7228523.17245  23604514.615    23604526.936
       212.000         148.000
  23932364.481    -6219964.57549  -4717785.51545  23932363.749    23932375.844
       215.000         148.000
  23512975.039    -9433252.64949  -7120671.60945  23512974.846    23512987.804
       215.000         155.000
  21811029.766   -16139834.00249 -11145250.45047  21811028.869    21811039.414
       232.000         191.000
  20098273.284   -25105862.55349 -18943428.75748  20098272.495    20098281.021
       243.000         213.000
  21459094.004   -20206326.36149 -15142364.11347  21459093.179    21459102.442
       242.000         209.000
 00 10 23  1 17 30.0000000  0  8G31G27G19G11G26G 7G 8G 2
  24354838.921    -2214618.93249  -1322198.14045  24354839.705    24354851.196
       213.000         137.000
  21546599.437   -20753631.61349 -16160508.66747  21546599.270    21546608.912
       230.000         188.000
  23621177.499    -9766024.42249  -7160287.20545  23621176.870    23621191.010
       210.000         148.000
  23928033.825    -6242721.25049  -4735517.85145  23928033.337    23928044.603
       214.000         148.000
  23500217.152    -9500294.77949  -7172912.01545  23500217.028    23500230.074
       215.000         156.000
  21796292.312   -16217279.10749 -11205597.11547  21796291.461    21796302.153
       233.000         192.000
  20100795.246   -25092609.45049 -18933101.63048  20100794.500    20100803.255
       243.000         213.000
  21455472.219   -20225358.77549 -15157194.50147  21455471.566    21455480.918
       241.000         209.000
 00 10 23  1 18  0.0000000  0  8G31G27G19G11G26G 7G 8G 2
  24375282.132    -2107189.03549  -1238486.52445  24375281.744    24375295.183
       211.000         137.000
  21557716.217   -20695212.61749 -16114987.36447  21557715.964    21557725.556
       230.000         188.000
  23637881.937    -9678241.89249  -7091885.24345  23637882.385    23637895.307
       212.000         147.000
  23923784.203    -6265052.83049  -4752918.95045  23923782.640    23923794.752
       216.000         149.000
  23487538.841    -9566919.00249  -7224826.76645  23487538.655    23487550.981
       215.000         157.000
  21781621.018   -16294376.65349 -11265672.96247  21781619.888    21781630.531
       233.000         192.000
  20103392.796   -25078959.00649 -18922464.88548  20103392.231    20103401.028
       243.000         213.000
  21451877.980   -20244246.38749 -15171912.05447  21451877.294    21451886.574
       243.000         209.000
 00 10 23  1 18 30.0000000  0  8G31G27G19G11G26G 7G 8G 2
  24395754.957    -1999603.46849  -1154653.59345  24395755.290    24395768.258
       212.000         136.000
  21568902.778   -20636426.61649 -16069180.09247  21568902.719    21568912.512
       229.000         188.000
  23654627.007    -9590246.20249  -7023317.18245  23654626.693    23654640.498
       212.000         147.000
  23919616.001    -6286956.38549  -4769986.50545  23919614.745    23919626.372
       214.000         149.000
  23474940.667    -9633121.98049  -7276413.26845  23474940.027    23474953.441
       215.000         157.000
  21767016.442   -16371123.59749 -11325475.61247  21767015.918    21767025.874
       233.000         192.000
  20106066.357   -25064909.18849 -18911516.94147  20106065.900    20106074.237
       243.000         212.000
  21448311.428   -20262988.46149 -15186516.20147  21448310.843    21448320.153
       242.000         209.000
 00 10 23  1 19  0.0000000  0  8G31G27G19G11G26G 7G 8G 2
  24416256.849    -1891865.22049  -1070701.72545  24416257.287    24416269.672
       212.000         136.000
  21580159.096   -20577274.29349 -16023087.36147  21580158.997    21580168.887
       230.000         188.000
  23671412.317    -9502038.69249  -6954584.06945  23671412.702    23671425.135
       212.000         146.000
  23915529.421    -6308430.69249  -4786719.60745  23915528.454    23915539.894
       215.000         149.000
  23462422.931    -9698902.23349  -7327670.39045  23462423.092    23462434.500
       215.000         157.000
  21752478.811   -16447518.75049 -11385004.14447  21752477.993    21752488.464
       233.000         193.000
  20108815.964   -25050459.78149 -18900257.61947  20108815.597    20108824.028
       242.000         212.000
  21444772.394   -20281585.97749 -15201007.69947  21444771.793    21444781.147
       242.000         209.000
 00 10 23  1 19 30.0000000  0  8G31G27G19G11G26G 7G 8G 2
  24436787.391    -1783976.64749   -986632.67945  24436787.404    24436799.960
       202.000         135.000
  21591485.115   -20517755.66249 -15976709.20746  21591485.156    21591494.810
       229.000         187.000
  23688237.828    -9413620.03649  -6885686.43445  23688238.074    23688250.156
       210.000         145.000
  23911524.895    -6329473.84549  -4803116.74645  23911525.146    23911535.484
       214.000         149.000
  23449986.064    -9764257.35549  -7378596.23345  23449985.993    23449998.321
       216.000         157.000
  21738008.470   -16523560.18349 -11444257.05947  21738007.730    21738017.743
       233.000         193.000
  20111641.856   -25035609.52549 -18888685.95147  20111641.171    20111649.553
       242.000         212.000
  21441260.827   -20300039.15749 -15215386.73147  21441260.354    21441269.254
       242.000         209.000
 00 10 23  1 20  0.0000000  0  8G31G27G19G11G26G 7G 8G 2
  24457345.970    -1675940.40749   -902448.58245  24457344.773    24457359.843
       207.000         135.000
  21602880.732   -20457871.21349 -15930045.99846  21602880.657    21602889.809
       229.000         187.000
  23705103.260    -9324991.46949  -6816625.21245  23705102.929    23705116.100
       208.000         146.000
  23907602.759    -6350084.73749  -4819177.07545  23907602.901    23907612.920
       215.000         149.000
  23437630.475    -9829185.65049  -7429189.49345  23437629.926    23437642.571
       215.000         158.000
  21723605.758   -16599246.38449 -11503233.17447  21723605.311    21723615.532
       234.000         193.000
  20114544.086   -25020357.93949 -18876801.55747  20114543.611    20114551.894
       242.000         212.000
  21437776.594   -20318348.75449 -15229653.87447  21437776.076    21437785.209
       243.000         209.000
 00 10 23  1 20 30.0000000  0  8G31G27G19G11G26G 7G 8G 2
  24477932.056    -1567759.68249   -818151.88845  24477932.000    24477945.779
       207.000         135.000
  21614345.915   -20397621.31449 -15883098.02446  21614345.830    21614355.708
       229.000         187.000
  23722008.483    -9236154.06249  -6747401.27045  23722008.435    23722021.275
       212.000         146.000
  23903763.078    -6370261.61249  -4834899.18245  23903763.039    23903774.576
       216.000         149.000
  23425356.483    -9893685.10749  -7479448.59145  23425355.914    23425368.616
       215.000         158.000
  21709270.933   -16674575.81749 -11561931.29547  21709269.835    21709280.238
       235.000         194.000
  20117522.819   -25004704.45349 -18864603.99647  20117522.379    20117530.545
       243.000         212.000
  21434319.533   -20336515.41249 -15243809.63647  21434318.690    21434327.819
       243.000         210.000
 00 10 23  1 21  0.0000000  0  8G31G27G19G11G26G 7G 8G 2
  24498545.260    -1459436.63849   -733744.31545  24498544.471    24498559.052
       198.000         135.000
  21625880.647   -20337005.78749 -15835865.14446  21625880.494    21625890.480
       230.000         186.000
  23738953.320    -9147108.42949  -6678015.07045  23738953.155    23738967.320
       212.000         146.000
  23900006.478    -6390002.41849  -4850281.51545  23900006.640    23900017.254
       214.000         149.000
  23413164.525    -9957753.25249  -7529371.59245  23413164.793    23413176.285
       216.000         158.000
  21695004.354   -16749546.54449 -11620349.91147  21695003.642    21695014.090
       235.000         194.000
  20120578.265   -24988647.74849 -18852092.23947  20120577.654    20120586.188
       243.000         212.000
  21430889.683   -20354539.23049 -15257854.09947  21430888.854    21430898.026
       243.000         210.000
 00 10 23  1 21 30.0000000  0  8G31G27G19G11G26G 7G 8G 2
  24519185.165    -1350973.51849   -649227.56745  24519184.522    24519198.505
       195.000         135.000
  21637484.923   -20276024.80749 -15788347.50346  21637484.711    21637494.565
       228.000         186.000
  23755937.669    -9057854.96149  -6608466.92845  23755938.646    23755951.132
       210.000         145.000
  23896333.193    -6409305.43849  -4865322.72045  23896332.563    23896344.621
       216.000         150.000
  23401055.060   -10021387.90149  -7578956.81345  23401055.097    23401066.571
       215.000         158.000
  21680806.440   -16824156.59649 -11678487.48847  21680805.980    21680816.240
       235.000         194.000
  20123710.582   -24972187.19049 -18839265.79047  20123710.035    20123718.382
       242.000         212.000
  21427486.962   -20372420.34949 -15271787.37547  21427486.450    21427495.562
       243.000         210.000
 00 10 23  1 22  0.0000000  0  7G27G19G11G26G 7G 8G 2
  21649158.637   -20214679.06749 -15740545.62546  21649158.419    21649168.306
       228.000         186.000
  23772961.263    -8968395.37449  -6538758.16745  23772961.072    23772975.149
       211.000         144.000
  23892743.313    -6428169.51349  -4880021.86945  23892743.118    23892753.482
       217.000         150.000
  23389028.400   -10084587.63349  -7628203.12645  23389028.652    23389040.528
       215.000         158.000
  21666677.336   -16898404.85749 -11736343.14947  21666676.702    21666686.784
       235.000         195.000
  20126919.852   -24955322.21749 -18826124.20547  20126919.284    20126927.536
       242.000         212.000
  21424111.200   -20390159.83149 -15285610.27947  21424110.727    21424119.812
       243.000         210.000
 00 10 23  1 22 30.0000000  0  7G27G19G11G26G 7G 8G 2
  21660901.906   -20152967.67249 -15692458.83046  21660901.410    21660911.714
       229.000         185.000
  23790024.145    -8878729.51649  -6468888.69345  23790023.639    23790036.491
       210.000         143.000
  23889237.583    -6446592.00349  -4894376.94145  23889236.895    23889247.802
       217.000         150.000
  23377085.114   -10147349.20049  -7677108.02945  23377085.431    23377097.235
       217.000         159.000
  21652617.634   -16972288.64949 -11793914.81447  21652616.555    21652626.873
       235.000         195.000
  20130206.399   -24938051.11349 -18812666.15647  20130205.639    20130214.068
       243.000         212.000
  21420762.509   -20407756.96049 -15299322.25747  21420761.745    21420770.813
       243.000         210.000
 00 10 23  1 23  0.0000000  0  7G27G19G11G26G 7G 8G 2
  21672714.459   -20090892.34449 -15644088.45446  21672714.252    21672724.626
       227.000         185.000
  23807125.885    -8788859.32649  -6398859.97945  23807125.990    23807139.034
       210.000         143.000
  23885815.785    -6464573.09149  -4908388.05045  23885814.285    23885826.382
       217.000         151.000
  23365225.370   -10209671.96749  -7725670.99545  23365225.701    23365237.056
       216.000         160.000
  21638627.338   -17045807.58949 -11851202.18147  21638626.591    21638636.987
       234.000         195.000
  20133570.150   -24920374.31049 -18798891.98347  20133569.580    20133577.915
       242.000         212.000
  21417440.584   -20425213.57049 -15312924.74447  21417440.165    21417449.200
       242.000         210.000
 00 10 23  1 23 30.0000000  0  7G27G19G11G26G 7G 8G 2
  21684596.251   -20028453.17949 -15595434.56646  21684596.047    21684605.739
       229.000         185.000
  23824266.321    -8698785.68149  -6328672.75045  23824264.555    23824279.346
       209.000         143.000
  23882478.479    -6482110.58449  -4922053.50545  23882477.685    23882488.985
       216.000         151.000
  23353449.484   -10271553.69849  -7773890.31045  23353448.954    23353461.689
       218.000         160.000
  21624706.853   -17118959.76149 -11908203.75747  21624706.447    21624716.432
       235.000         196.000
  20137011.255   -24902291.15549 -18784801.16947  20137010.688    20137018.989
       243.000         212.000
  21414145.329   -20442530.00549 -15326418.00447  21414144.726    21414153.620
       244.000         210.000
 00 10 23  1 24  0.0000000  0  7G27G19G11G26G 7G 8G 2
  21696547.041   -19965651.23249 -15546497.99246  21696547.123    21696557.178
       227.000         184.000
  23841445.117    -8608510.30949  -6258328.30845  23841444.491    23841458.548
       208.000         141.000
  23879225.800    -6499203.63149  -4935372.64945  23879225.686    23879236.619
       214.000         150.000
  23341757.727   -10332993.38549  -7821765.17345  23341757.408    23341769.253
       217.000         160.000
  21610856.277   -17191744.52649 -11964919.04547  21610855.346    21610865.792
       235.000         196.000
  20140529.665   -24883801.53949 -18770393.63447  20140529.022    20140537.559
       242.000         212.000
  21410876.533   -20459707.30749 -15339802.84447  21410875.699    21410884.921
       243.000         210.000
 00 10 23  1 24 30.0000000  0  7G27G19G11G26G 7G 8G 2
  21708566.991   -19902486.12649 -15497278.44046  21708566.822    21708576.620
       227.000         184.000
  23858662.280    -8518033.51949  -6187826.91645  23858662.502    23858674.679
       209.000         141.000
  23876058.038    -6515849.64749  -4948343.45345  23876057.749    23876068.545
       216.000         151.000
  23330150.637   -10393988.16049  -7869293.34545  23330150.133    23330161.911
       217.000         161.000
  21597076.095   -17264159.45549 -12021346.14747  21597075.236    21597085.568
       235.000         196.000
  20144125.732   -24864903.93449 -18755668.18447  20144125.212    20144133.405
       242.000         212.000
  21407634.332   -20476744.90249 -15353078.82947  21407633.714    21407642.926
       243.000         210.000
 00 10 23  1 25  0.0000000  0  7G27G19G11G26G 7G 8G 2
  21720655.886   -19838958.47549 -15447776.38846  21720655.443    21720665.917
       228.000         184.000
  23875917.566    -8427356.40649  -6117169.44745  23875917.147    23875930.874
       209.000         142.000
  23872975.428    -6532047.73549  -4960965.22145  23872974.833    23872986.343
       216.000         150.000
  23318628.593   -10454536.22049  -7916473.43145  23318628.270    23318640.035
       217.000         161.000
  21583366.540   -17336203.19049 -12077484.01247  21583365.967    21583375.925
       235.000         196.000
  20147799.511   -24845597.99549 -18740624.55947  20147798.959    20147807.443
       242.000         212.000
  21404418.607   -20493643.48949 -15366246.50347  21404417.870    21404426.942
       243.000         210.000
 00 10 23  1 25 30.0000000  0  7G27G19G11G26G 7G 8G 2
  21732813.759   -19775068.48949 -15397991.99446  21732813.526    21732823.426
       227.000         184.000
  23893210.763    -8336480.18149  -6046356.82445  23893210.614    23893224.167
       209.000         142.000
  23869978.686    -6547796.71349  -4973237.05945  23869977.988    23869989.611
       214.000         150.000
  23307191.869   -10514635.79849  -7963304.05945  23307191.247    23307202.560
       218.000         162.000
  21569727.892   -17407874.23749 -12133331.46447  21569727.239    21569737.294
       235.000         197.000
  20151551.095   -24825883.05149 -18725262.22347  20151550.442    20151558.878
       242.000         212.000
  21401229.172   -20510403.72349 -15379306.36347  21401228.408    21401237.587
       242.000         210.000
 00 10 23  1 26  0.0000000  0  7G27G19G11G26G 7G 8G 2
  21745040.553   -19710816.31149 -15347925.37646  21745040.442    21745049.893
       228.000         183.000
  23910541.674    -8245405.52349  -5975389.59245  23910542.096    23910555.787
       208.000         142.000
  23867067.234    -6563095.01849  -4985157.71045  23867066.614    23867078.282
       215.000         150.000
  23295840.807   -10574284.71749  -8009783.51445  23295840.535    23295852.415
       218.000         162.000
  21556160.522   -17479170.79249 -12188887.10047  21556159.831    21556169.553
       236.000         197.000
  20155380.737   -24805758.10349 -18709580.40347  20155380.291    20155388.401
       243.000         212.000
  21398066.056   -20527025.68949 -15392258.47947  21398065.388    21398074.552
       243.000         210.000
 00 10 23  1 26 30.0000000  0  7G27G19G11G26G 7G 8G 2
  21757336.258   -19646202.03049 -15297576.60646  21757336.250    21757345.923
       227.000         183.000
  23927910.287    -8154133.17049  -5904268.27345  23927910.182    23927922.961
       208.000         140.000
  23864242.078    -6577940.36149  -4996725.40845  23864241.280    23864252.480
       215.000         150.000
  23284576.043   -10633480.68349  -8055910.03345  23284576.073    23284587.717
       218.000         162.000
  21542664.791   -17550090.97049 -12244149.45747  21542663.954    21542674.307
       236.000         197.000
  20159288.562   -24785222.12349 -18693578.31147  20159288.115    20159296.360
       242.000         212.000
  21394929.291   -20543509.28749 -15405102.78247  21394928.659    21394937.687
       242.000         210.000
 00 10 23  1 27  0.0000000  0  7G27G19G11G26G 7G 8G 2
  21769700.555   -19581227.28849 -15246946.94746  21769700.440    21769709.987
       227.000         183.000
  23945316.033    -8062665.33549  -5832994.65245  23945316.282    23945330.039
       205.000         140.000
  23861503.258    -6592332.86449  -5007940.25245  23861502.376    23861513.997
       215.000         150.000
  23273397.552   -10692223.18449  -8101683.20246  23273396.783    23273409.026
       219.000         163.000
  21529240.731   -17620634.42649 -12299118.26147  21529239.548    21529249.876
       236.000         198.000
  20163274.474   -24764275.92749 -18677256.56247  20163273.856    20163282.174
       242.000         212.000
  21391818.505   -20559856.33749 -15417840.68147  21391817.863    21391826.849
       242.000         210.000
 00 10 23  1 27 30.0000000  0  7G27G19G11G26G 7G 8G 2
  21782133.669   -19515890.92249 -15196035.50946  21782133.223    21782143.270
       227.000         183.000
  23962759.145    -7971001.26049  -5761568.13845  23962758.957    23962771.513
       206.000         139.000
  23858850.983    -6606269.55749  -5018799.93445  23858850.142    23858861.003
       215.000         149.000
  23262306.010   -10750508.76849  -8147100.33546  23262305.481    23262317.519
       219.000         163.000
  21515888.946   -17690798.11549 -12353791.14447  21515887.901    21515898.125
       236.000         198.000
  20167338.891   -24742917.06549 -18660613.26147  20167338.142    20167346.666
       242.000         212.000
  21388733.922   -20576065.75549 -15430471.34147  21388733.178    21388742.210
       243.000         210.000
 00 10 23  1 28  0.0000000  0  7G27G19G11G26G 7G 8G 2
  21794635.327   -19450194.41549 -15144843.43646  21794635.318    21794645.085
       227.000         183.000
  23980239.133    -7879143.26749  -5689990.47745  23980239.166    23980252.943
       207.000         140.000
  23856285.568    -6619750.17649  -5029304.20045  23856285.417    23856296.456
       214.000         150.000
  23251301.608   -10808336.51749  -8192160.71746  23251301.809    23251313.016
       220.000         164.000
  21502609.476   -17760581.66549 -12408167.81747  21502608.804    21502618.767
       237.000         198.000
  20171481.783   -24721145.93249 -18643648.70947  20171481.334    20171489.499
       243.000         212.000
  21385675.265   -20592138.89049 -15442995.80947  21385674.636    21385683.524
       243.000         210.000
 00 10 23  1 28 30.0000000  0  7G27G19G11G26G 7G 8G 2
  21807205.370   -19384138.37349 -15093371.21946  21807204.926    21807215.151
       226.000         182.000
  23997755.834    -7787092.30449  -5618262.46445  23997755.709    23997769.001
       207.000         139.000
  23853807.050    -6632773.51249  -5039452.15045  23853805.864    23853818.903
       215.000         150.000
  23240384.627   -10865704.79649  -8236863.06846  23240383.967    23240396.103
       219.000         164.000
  21489402.655   -17829983.57649 -12462247.10047  21489401.927    21489411.920
       236.000         198.000
  20175703.163   -24698962.27949 -18626362.70747  20175702.622    20175710.970
       242.000         212.000
  21382642.446   -20608076.24549 -15455414.47247  21382641.725    21382650.878
       243.000         210.000
 00 10 23  1 29  0.0000000  0  7G27G19G11G26G 7G 8G 2
  21819843.868   -19317722.61749 -15041618.69946  21819844.086    21819853.496
       227.000         182.000
  24015309.184    -7694848.86549  -5546384.47945  24015309.397    24015322.559
       205.000         137.000
  23851416.439    -6645337.32849  -5049242.06845  23851416.368    23851426.958
       215.000         150.000
  23229555.594   -10922611.02549  -8281205.40246  23229555.194    23229566.473
       218.000         165.000
  21476268.813   -17899001.83549 -12516027.43947  21476267.959    21476277.829
       236.000         199.000
  20180003.333   -24676364.69849 -18608754.17047  20180002.875    20180011.077
       242.000         212.000
  21379635.507   -20623877.59549 -15467727.16047  21379634.927    21379643.794
       243.000         211.000
 00 10 23  1 29 30.0000000  0  7G27G19G11G26G 7G 8G 2
  21832550.661   -19250948.10249 -14989586.62246  21832550.580    21832560.311
       226.000         182.000
  24032898.824    -7602414.65149  -5474357.83745  24032898.581    24032912.611
       206.000         137.000
  23849113.109    -6657440.97549  -5058673.36545  23849112.133    23849124.231
       215.000         150.000
  23218814.729   -10979054.06149  -8325186.80146  23218814.319    23218825.582
       219.000         165.000
  21463208.145   -17967635.64249 -12569508.20047  21463207.351    21463217.207
       236.000         199.000
  20184382.253   -24653353.14049 -18590823.05347  20184381.703    20184390.134
       242.000         212.000
  21376654.274   -20639543.83349 -15479934.56747  21376653.671    21376662.628
       242.000         211.000
 00 10 23  1 30  0.0000000  0  7G27G19G11G26G 7G 8G 2
  21845325.531   -19183815.78049 -14937275.73646  21845325.126    21845335.142
       226.000         182.000
  24050524.525    -7509791.23149  -5402183.75945  24050524.458    24050538.034
       205.000         138.000
  23846897.551    -6669083.74849  -5067745.57345  23846896.727    23846908.669
       215.000         150.000
  23208162.263   -11035032.45449  -8368806.14246  23208162.813    23208173.313
       219.000         165.000
  21450220.843   -18035883.76349 -12622688.42247  21450219.922    21450229.854
       237.000         199.000
  20188839.968   -24629927.59249 -18572569.34447  20188839.347    20188847.441
       242.000         211.000
  21373698.628   -20655075.73449 -15492037.29747  21373697.897    21373706.972
       243.000         211.000
 00 10 23  1 30 30.0000000  0  7G27G19G11G26G 7G 8G 2
  21858168.588   -19116325.27049 -14884685.74846  21858168.205    21858178.194
       228.000         181.000
  24068186.261    -7416978.51049  -5329862.17045  24068185.532    24068200.034
       205.000         138.000
  23844770.068    -6680263.25249  -5076456.78745  23844769.639    23844779.941
       216.000         151.000
  23197598.691   -11090543.66749  -8412061.46046  23197598.727    23197610.549
       220.000         166.000
  21437307.350   -18103744.10649 -12675566.48347  21437306.452    21437316.623
       238.000         199.000
  20193376.699   -24606086.70949 -18553992.00147  20193376.137    20193384.586
       243.000         211.000
  21370768.605   -20670472.87249 -15504035.01547  21370767.935    21370776.699
       244.000         211.000
 00 10 23  1 31  0.0000000  0  7G27G19G11G26G 7G 8G 2
  21871079.620   -19048477.35049 -14831817.25146  21871079.127    21871089.253
       227.000         181.000
  24085883.650    -7323977.82749  -5257394.13545  24085883.810    24085897.247
       201.000         137.000
  23842730.858    -6690978.72249  -5084806.41045  23842730.841    23842741.283
       215.000         151.000
  23187124.261   -11145586.22449  -8454951.59046  23187123.528    23187135.188
       220.000         166.000
  21424467.890   -18171215.53549 -12728141.50047  21424467.120    21424476.842
       238.000         199.000
  20197992.592   -24581829.90049 -18535090.55747  20197991.801    20198000.034
       243.000         211.000
  21367864.092   -20685735.86349 -15515928.20747  21367863.366    21367872.191
       243.000         211.000
 00 10 23  1 31 30.0000000  0  7G27G19G11G26G 7G 8G 2
  21884058.529   -18980272.81049 -14778670.87646  21884058.761    21884068.714
       227.000         181.000
  24103616.525    -7230790.92849  -5184781.00445  24103616.533    24103628.219
       202.000         136.000
  23840780.400    -6701229.07449  -5092793.60245  23840778.712    23840790.403
       218.000         151.000
  23176739.363   -11200158.51349  -8497475.27846  23176739.077    23176750.884
       220.000         166.000
  21411702.619   -18238296.85049 -12780412.53647  21411702.107    21411711.682
       238.000         200.000
  20202687.673   -24557156.90949 -18515864.82147  20202687.151    20202695.534
       243.000         211.000
  21364985.042   -20700865.17049 -15527717.23447  21364984.489    21364993.315
       244.000         211.000
 00 10 23  1 32  0.0000000  0  7G27G19G11G26G 7G 8G 2
  21897105.169   -18911712.30449 -14725247.11446  21897104.860    21897114.945
       228.000         180.000
  24121384.657    -7137418.91049  -5112023.59345  24121384.843    24121397.636
       204.000         136.000
  23838918.410    -6711013.21549  -5100417.51845  23838918.650    23838929.199
       217.000         151.000
  23166444.307   -11254258.89249  -8539631.26346  23166444.774    23166455.035
       221.000         166.000
  21399011.860   -18304986.77649 -12832378.58847  21399010.903    21399020.723
       239.000         200.000
  20207461.983   -24532067.45649 -18496314.56147  20207461.256    20207469.422
       243.000         211.000
  21362131.362   -20715861.29749 -15539402.47847  21362130.225    21362139.394
       244.000         211.000
 00 10 23  1 32 30.0000000  0  7G27G19G11G26G 7G 8G 2
  21910219.758   -18842794.83349 -14671545.20946  21910218.921    21910229.325
       226.000         180.000
  24139188.104    -7043861.17249  -5039121.48645  24139189.127    24139202.488
       202.000         135.000
  23837145.853    -6720328.57349  -5107676.14945  23837144.688    23837155.517
       217.000         151.000
  23156239.580   -11307884.15349  -8581417.03446  23156239.119    23156250.440
       219.000         166.000
  21386396.140   -18371282.38849 -12884037.39047  21386395.277    21386405.296
       238.000         200.000
  20212315.946   -24506559.58149 -18476438.27247  20212315.435    20212323.882
       243.000         211.000
  21359303.214   -20730723.03949 -15550983.01947  21359302.612    21359311.745
       243.000         211.000
 00 10 23  1 33  0.0000000  0  7G27G19G11G26G 7G 8G 2
  21923401.751   -18773523.04749 -14617567.20546  21923401.305    21923411.193
       226.000         180.000
  24157026.248    -6950121.04749  -4966077.26645  24157025.999    24157039.073
       205.000         135.000
  23835462.183    -6729175.95649  -5114570.13245  23835461.833    23835472.235
       216.000         150.000
  23146125.190   -11361034.96649  -8622833.09946  23146125.201    23146136.741
       220.000         166.000
  21373855.292   -18437184.54649 -12935389.59647  21373854.269    21373864.212
       238.000         201.000
  20217249.291   -24480634.65449 -18456236.99847  20217248.730    20217256.984
       243.000         211.000
  21356500.118   -20745453.12649 -15562460.96547  21356499.403    21356508.420
       243.000         211.000
 00 10 23  1 33 30.0000000  0  7G27G19G11G26G 7G 8G 2
  21936651.228   -18703896.66849 -14563312.90246  21936651.082    21936661.092
       225.000         180.000
  24174899.129    -6856198.72149  -4892891.02945  24174899.685    24174913.653
       202.000         135.000
  23833867.728    -6737553.27449  -5121097.83245  23833867.057    23833878.638
       216.000         150.000
  23136101.636   -11413708.51949  -8663877.28346  23136102.210    23136112.732
       219.000         166.000
  21361389.771   -18502690.89449 -12986433.38347  21361389.018    21361398.683
       237.000         201.000
  20222262.176   -24454291.58749 -18435709.90647  20222261.710    20222269.848
       242.000         211.000
  21353722.220   -20760050.92049 -15573835.83247  21353721.736    21353730.339
       243.000         211.000
 00 10 23  1 34  0.0000000  0  7G27G19G11G26G 7G 8G 2
  21949968.098   -18633916.06449 -14508782.57346  21949967.923    21949977.778
       226.000         179.000
  24192806.453    -6762095.11549  -4819563.56445  24192806.738    24192820.450
       204.000         133.000
  23832363.360    -6745459.39149  -5127258.36845  23832361.919    23832373.506
       219.000         150.000
  23126169.218   -11465903.01949  -8704548.17446  23126169.246    23126180.434
       221.000         166.000
  21348999.796   -18567800.18249 -13037167.78247  21348999.075    21349008.662
       239.000         201.000
  20227354.806   -24427529.57349 -18414856.36047  20227354.404    20227362.487
       243.000         211.000
  21350969.482   -20774516.50649 -15585107.67647  21350968.832    21350977.678
       244.000         211.000
 00 10 23  1 34 30.0000000  0  7G27G19G11G26G 7G 8G 2
  21963352.111   -18563582.71249 -14453977.37646  21963351.978    21963361.464
       226.000         179.000
  24210747.835    -6667812.08949  -4746096.29645  24210746.619    24210762.277
       204.000         132.000
  23830948.714    -6752894.20449  -5133051.65245  23830948.278    23830958.294
       216.000         150.000
  23116328.149   -11517617.74049  -8744845.21046  23116327.719    23116339.313
       221.000         166.000
  21336685.460   -18632511.81749 -13087592.32447  21336684.651    21336694.217
       240.000         201.000
  20232527.108   -24400348.99149 -18393676.64947  20232526.393    20232534.492
       244.000         211.000
  21348241.672   -20788851.10349 -15596277.44247  21348240.840    21348249.712
       245.000         211.000
 00 10 23  1 35  0.0000000  0  7G27G19G11G26G 7G 8G 2
  21976803.258   -18492896.44449 -14398897.18546  21976802.916    21976812.689
       225.000         178.000
  24228723.436    -6573350.08749  -4672489.54145  24228722.924    24228736.609
       205.000         133.000
  23829623.987    -6759855.34949  -5138475.85945  23829623.675    23829633.277
       216.000         149.000
  23106578.830   -11568850.07749  -8784766.38146  23106577.959    23106589.711
       220.000         166.000
  21324447.283   -18696823.62149 -13137705.30947  21324446.553    21324455.816
       238.000         202.000
  20237779.246   -24372748.63749 -18372169.85247  20237778.487    20237786.767
       242.000         211.000
  21345538.894   -20803054.09449 -15607344.65347  21345538.211    21345547.032
       243.000         211.000
 00 10 23  1 35 30.0000000  0  7G27G19G11G26G 7G 8G 2
  21990321.543   -18421857.45449 -14343542.14846  21990321.487    21990331.635
       224.000         178.000
  24246732.911    -6478709.84849  -4598743.90945  24246733.436    24246746.740
       204.000         133.000
  23828389.722    -6766341.58849  -5143530.00545  23828388.740    23828399.483
       216.000         149.000
  23096921.668   -11619598.20249  -8824310.24746  23096921.404    23096932.046
       220.000         166.000
  21312285.448   -18760733.94849 -13187505.45647  21312284.752    21312294.259
       239.000         202.000
  20243111.491   -24344727.37649 -18350335.07647  20243111.106    20243119.120
       243.000         211.000
  21342861.170   -20817125.48249 -15618309.32447  21342860.585    21342869.485
       244.000         211.000
 00 10 23  1 36  0.0000000  0  7G27G19G11G26G 7G 8G 2
  22003906.512   -18350467.79649 -14287913.86346  22003906.642    22003916.273
       225.000         178.000
  24264775.795    -6383894.11849  -4524861.54745  24264774.316    24264788.017
       204.000         132.000
  23827245.645    -6772353.37949  -5148214.43745  23827245.451    23827256.018
       216.000         149.000
  23087356.673   -11669861.88249  -8863476.62146  23087356.795    23087367.558
       222.000         166.000
  21300199.995   -18824243.03049 -13236992.94847  21300199.249    21300208.774
       240.000         202.000
  20248523.541   -24316286.78249 -18328173.54747  20248523.079    20248531.184
       243.000         211.000
  21340208.112   -20831067.22549 -15629172.97747  21340207.662    21340216.406
       244.000         211.000
 00 10 23  1 36 30.0000000  0  7G27G19G11G26G 7G 8G 2
  22017558.311   -18278727.28449 -14232012.17246  22017558.052    22017568.323
       224.000         177.000
  24282851.990    -6288902.97749  -4450842.48344  24282851.202    24282865.408
       202.000         131.000
  23826192.112    -6777888.83549  -5152527.70545  23826191.141    23826202.020
       215.000         149.000
  23077884.387   -11719638.66149  -8902263.58746  23077884.403    23077894.470
       220.000         166.000
  21288191.282   -18887348.85049 -13286166.19847  21288190.462    21288199.938
       239.000         203.000
  20254015.686   -24287425.22449 -18305683.97847  20254015.127    20254023.260
       242.000         211.000
  21337579.891   -20844878.55249 -15639934.98947  21337579.201    21337588.074
       243.000         211.000
 00 10 23  1 37  0.0000000  0  7G27G19G11G26G 7G 8G 2
  22031276.779   -18206636.15149 -14175837.28846  22031276.465    22031286.770
       224.000         177.000
  24300961.467    -6193737.06049  -4376687.23044  24300960.285    24300974.807
       203.000         130.000
  23825229.616    -6782946.24049  -5156468.47545  23825227.488    23825239.750
       214.000         149.000
  23068505.145   -11768926.44049  -8940669.52046  23068505.096    23068516.118
       220.000         166.000
  21276259.671   -18950049.44649 -13335023.71047  21276258.932    21276268.478
       238.000         203.000
  20259588.140   -24258141.70749 -18282865.63347  20259587.819    20259595.699
       241.000         211.000
  21334976.459   -20858559.35449 -15650595.31247  21334976.043    21334984.636
       242.000         211.000
 00 10 23  1 37 30.0000000  0  7G27G19G11G26G 7G 8G 2
  22045061.674   -18134196.01349 -14119390.44546  22045061.162    22045071.586
       226.000         177.000
  24319103.784    -6098398.56649  -4302397.51345  24319103.875    24319116.256
       206.000         132.000
  23824358.046    -6787525.79649  -5160036.88245  23824357.161    23824367.025
       216.000         149.000
  23059219.054   -11817724.64649  -8978693.95546  23059217.736    23059229.574
       222.000         167.000
  21264405.161   -19012344.82649 -13383565.46647  21264404.659    21264414.068
       241.000         203.000
  20265240.724   -24228436.97049 -18259719.04447  20265240.466    20265248.301
       243.000         210.000
  21332397.615   -20872111.09049 -15661155.04447  21332397.259    21332405.823
       245.000         211.000
 00 10 23  1 38  0.0000000  0  7G27G19G11G26G 7G 8G 2
  22058912.944   -18061407.29849 -14062671.99246  22058912.982    22058922.819
       224.000         177.000
  24337278.795    -6002888.46549  -4227974.06345  24337277.443    24337293.013
       204.000         133.000
  23823577.602    -6791626.25849  -5163231.96045  23823576.231    23823586.858
       214.000         149.000
  23050026.401   -11866031.62249  -9016335.60946  23050026.249    23050036.856
       219.000         167.000
  21252628.097   -19074233.34349 -13431790.18747  21252627.252    21252636.581
       239.000         203.000
  20270973.611   -24198310.37549 -18236243.74347  20270973.187    20270981.108
       241.000         210.000
  21329843.336   -20885533.81149 -15671614.25047  21329842.817    21329851.344
       243.000         211.000
 00 10 23  1 38 30.0000000  0  7G27G19G11G26G 7G 8G 2
  22072830.423   -17988270.46949 -14005682.26646  22072831.057    22072840.370
       225.000         177.000
  24355486.302    -5907207.42149  -4153417.41645  24355487.287    24355498.601
       204.000         132.000
  23822888.727    -6795246.33249  -5166052.72345  23822888.418    23822898.956
       215.000         149.000
  23040927.707   -11913845.44249  -9053592.98546  23040927.368    23040938.058
       220.000         167.000
  21240928.721   -19135713.60649 -13479696.78547  21240928.032    21240937.190
       240.000         204.000
  20276786.870   -24167761.35649 -18212439.27947  20276786.193    20276794.203
       243.000         210.000
  21327313.650   -20898827.07049 -15681972.57247  21327312.839    21327321.702
       244.000         211.000
 00 10 23  1 39  0.0000000  0  7G27G19G11G26G 7G 8G 2
  22086813.947   -17914786.68149 -13948422.19746  22086813.497    22086823.293
       224.000         176.000
  24373725.904    -5811357.41049  -4078729.11944  24373725.251    24373739.931
       204.000         130.000
  23822290.996    -6798385.55349  -5168498.77945  23822290.871    23822301.001
       215.000         149.000
  23031922.968   -11961165.09949  -9090465.28646  23031922.622    23031933.424
       221.000         167.000
  21229307.162   -19196784.83149 -13527284.64847  21229306.367    21229315.604
       240.000         204.000
  20282680.521   -24136789.81349 -18188305.57547  20282680.083    20282688.093
       242.000         210.000
  21324808.444   -20911991.78249 -15692230.72547  21324807.803    21324816.520
       244.000         211.000
 00 10 23  1 39 30.0000000  0  7G27G19G11G26G 7G 8G 2
  22100863.477   -17840956.03849 -13890891.84646  22100863.630    22100873.036
       224.000         176.000
  24391997.625    -5715338.91649  -4003909.50244  24391996.132    24392010.634
       206.000         129.000
  23821785.187    -6801042.58449  -5170569.10545  23821784.342    23821795.816
       216.000         150.000
  23023012.624   -12007988.61149  -9126950.98546  23023012.820    23023022.990
       221.000         167.000
  21217763.776   -19257445.33149 -13574552.47247  21217763.008    21217772.330
       240.000         204.000
  20288654.773   -24105394.83549 -18163841.92147  20288654.377    20288662.360
       242.000         210.000
  21322327.720   -20925027.88649 -15702388.66447  21322326.990    21322335.829
       243.000         211.000
 00 10 23  1 40  0.0000000  0  7G27G19G11G26G 7G 8G 2
  22114978.592   -17766780.73349 -13833092.92446  22114977.829    22114988.108
       224.000         176.000
  24410300.891    -5619154.80449  -3928960.83144  24410300.770    24410313.160
       203.000         129.000
  23821371.418    -6803217.74349  -5172263.96445  23821371.048    23821381.533
       215.000         150.000
  23014196.652   -12054315.91449  -9163050.02546  23014196.793    23014207.558
       222.000         167.000
  21206298.487   -19317695.53049 -13621500.58947  21206297.776    21206307.105
       240.000         204.000
  20294709.324   -24073577.80849 -18139049.39747  20294708.835    20294716.574
       242.000         210.000
  21319871.109   -20937937.19249 -15712447.80147  21319870.431    21319879.180
       244.000         211.000
 00 10 23  1 40 30.0000000  0  7G27G19G11G26G 7G 8G 2
  22129159.661   -17692258.79049 -13775023.90546  22129158.912    22129169.481
       226.000         175.000
  24428635.956    -5522803.60549  -3853881.96544  24428634.398    24428651.623
       204.000         129.000
  23821049.645    -6804907.75949  -5173580.77945  23821049.970    23821059.029
       216.000         150.000
  23005475.893   -12100143.07949  -9198759.34446  23005475.621    23005487.196
       223.000         167.000
  21194911.991   -19377531.45249 -13668125.88547  21194911.238    21194920.246
       241.000         204.000
  20300844.790   -24041335.53649 -18113925.51247  20300844.148    20300852.185
       243.000         210.000
  21317439.083   -20950717.31649 -15722406.27247  21317438.335    21317447.035
       245.000         211.000
 00 10 23  1 41  0.0000000  0  6G27G11G26G 7G 8G 2
  22143406.543   -17617391.27549 -13716685.59646  22143406.669    22143416.778
       225.000         175.000
  23820820.395    -6806111.80149  -5174518.91145  23820819.520    23820830.616
       217.000         151.000
  22996850.600   -12145468.76049  -9234077.87646  22996849.872    22996861.196
       221.000         167.000
  21183604.488   -19436952.40549 -13714427.81947  21183603.636    21183612.983
       240.000         205.000
  20307061.153   -24008668.12649 -18088470.35047  20307060.764    20307068.733
       242.000         209.000
  21315031.528   -20963368.75149 -15732264.45447  21315030.911    21315039.355
       244.000         211.000
 00 10 23  1 41 30.0000000  0  6G27G11G26G 7G 8G 2
  22157718.949   -17542179.16349 -13658078.78646  22157719.480    22157729.007
       224.000         175.000
  23820683.789    -6806829.22749  -5175077.87245  23820684.403    23820694.341
       215.000         151.000
  22988320.995   -12190291.61549  -9269004.60046  22988320.957    22988331.255
       222.000         168.000
  21172376.152   -19495957.31149 -13760405.57147  21172375.390    21172384.772
       239.000         205.000
  20313358.470   -23975575.29349 -18062683.69647  20313358.145    20313366.078
       241.000         209.000
  21312648.421   -20975891.79549 -15742022.60147  21312647.831    21312656.302
       243.000         212.000
 00 10 23  1 42  0.0000000  0  6G27G11G26G 7G 8G 2
  22172096.261   -17466626.04249 -13599206.24446  22172096.237    22172106.225
       225.000         174.000
  23820639.519    -6807062.19249  -5175259.30945  23820639.165    23820649.609
       217.000         151.000
  22979886.710   -12234613.26349  -9303540.78646  22979886.566    22979896.840
       223.000         168.000
  21161226.626   -19554548.03049 -13806060.58247  21161225.808    21161234.751
       241.000         205.000
  20319736.240   -23942059.73749 -18036567.63847  20319735.570    20319743.688
       242.000         209.000
  21310289.159   -20988289.55449 -15751683.11847  21310288.314    21310297.028
       244.000         212.000
 00 10 23  1 42 30.0000000  0  6G27G11G26G 7G 8G 2
  22186538.416   -17390731.96849 -13540068.02646  22186538.169    22186548.480
       223.000         174.000
  23820687.731    -6806809.34449  -5175062.20945  23820686.472    23820697.642
       214.000         151.000
  22971548.278   -12278431.67849  -9337684.82946  22971548.048    22971559.000
       221.000         168.000
  21150156.273   -19612722.72149 -13851391.40647  21150155.492    21150164.670
       239.000         205.000
  20326194.644   -23908120.45949 -18010121.41347  20326194.059    20326202.156
       241.000         209.000
  21307953.839   -21000561.54449 -15761245.63547  21307953.141    21307961.724
       243.000         212.000
 00 10 23  1 43  0.0000000  0  6G27G11G26G 7G 8G 2
  22201045.425   -17314497.15949 -13480664.30446  22201044.767    22201055.121
       223.000         174.000
  23820828.536    -6806069.14349  -5174485.35445  23820828.723    23820838.215
       215.000         151.000
  22963305.942   -12321744.70749  -9371435.05846  22963304.685    22963315.714
       221.000         169.000
  21139165.439   -19670479.64149 -13896396.70247  21139164.621    21139173.672
       240.000         205.000
  20332733.915   -23873756.37549 -17983344.17047  20332733.342    20332741.464
       240.000         209.000
  21305642.519   -21012707.28249 -15770709.77247  21305641.831    21305650.317
       242.000         212.000
 00 10 23  1 43 30.0000000  0  6G27G11G26G 7G 8G 2
  22215617.057   -17237922.80249 -13420996.00146  22215617.108    22215626.884
       224.000         174.000
  23821062.276    -6804841.30449  -5173528.53345  23821061.602    23821072.707
       217.000         151.000
  22955159.917   -12364551.56549  -9404790.87846  22955159.504    22955170.483
       223.000         169.000
  21128254.201   -19727818.27449 -13941076.05847  21128253.255    21128262.590
       240.000         205.000
  20339353.950   -23838967.70149 -17956236.08047  20339353.329    20339361.413
       241.000         209.000
  21303355.125   -21024727.44549 -15780076.05947  21303354.385    21303362.970
       243.000         212.000
 00 10 23  1 44  0.0000000  0  6G27G11G26G 7G 8G 2
  22230253.259   -17161009.21749 -13361063.37046  22230253.216    22230263.137
       223.000         173.000
  23821389.138    -6803124.37649  -5172190.60145  23821389.006    23821399.464
       215.000         151.000
  22947110.615   -12406850.27049  -9437750.74346  22947110.196    22947121.072
       221.000         169.000
  21117422.857   -19784736.94849 -13985428.17347  21117422.023    21117431.317
       240.000         206.000
  20346054.884   -23803753.84649 -17928796.68147  20346054.350    20346062.258
       241.000         209.000
  21301091.677   -21036621.64049 -15789344.18747  21301090.862    21301099.463
       243.000         212.000
 00 10 23  1 44 30.0000000  0  6G27G11G26G 7G 8G 2
  22244953.910   -17083756.70449 -13300866.63646  22244953.809    22244964.241
       223.000         173.000
  23821808.897    -6800917.27349  -5170470.70645  23821808.085    23821818.999
       215.000         150.000
  22939158.304   -12448638.98449  -9470313.20946  22939157.572    22939168.440
       223.000         169.000
  21106671.709   -19841234.09649 -14029451.83347  21106670.896    21106679.962
       240.000         206.000
  20352836.913   -23768113.94649 -17901025.30347  20352836.375    20352844.338
       241.000         209.000
  21298852.238   -21048389.75149 -15798514.07647  21298851.622    21298860.161
       243.000         212.000
 00 10 23  1 45  0.0000000  0  6G27G11G26G 7G 8G 2
  22259718.843   -17006166.72249 -13240406.94146  22259718.677    22259728.729
       224.000         173.000
  23822321.760    -6798219.91749  -5168368.80845  23822321.030    23822332.240
       214.000         150.000
  22931303.177   -12489917.26249  -9502477.93546  22931302.979    22931313.448
       223.000         169.000
  21096000.853   -19897309.51049 -14073146.87147  21096000.143    21096009.365
       241.000         206.000
  20359699.945   -23732048.43949 -17872922.28047  20359699.343    20359707.535
       242.000         209.000
  21296636.615   -21060032.62749 -15807586.37447  21296635.976    21296644.676
       244.000         212.000
 00 10 23  1 45 30.0000000  0  6G27G11G26G 7G 8G 2
  22274547.911   -16928239.63049 -13179684.57446  22274547.911    22274557.469
       223.000         172.000
  23822928.407    -6795031.01049  -5165883.88045  23822928.440    23822938.189
       216.000         150.000
  22923545.543   -12530683.06949  -9534243.33046  22923545.550    22923555.283
       222.000         169.000
  21085410.574   -19952961.43549 -14116511.91047  21085410.094    21085419.007
       241.000         206.000
  20366644.109   -23695556.39649 -17844486.89447  20366643.736    20366651.517
       242.000         209.000
  21294444.904   -21071549.77049 -15816560.69647  21294444.343    21294452.627
       244.000         212.000
 00 10 23  1 46  0.0000000  0  6G27G11G26G 7G 8G 2
  22289440.716   -16849977.54349 -13118701.15446  22289440.521    22289450.274
       223.000         172.000
  23823628.866    -6791351.39149  -5163016.56445  23823627.856    23823638.364
       214.000         150.000
  22915885.430   -12570936.68049  -9565609.60746  22915884.923    22915895.626
       222.000         169.000
  21074900.798   -20008190.40449 -14159547.37147  21074900.030    21074908.811
       240.000         206.000
  20373669.169   -23658639.30149 -17815720.29647  20373668.623    20373676.559
       241.000         208.000
  21292276.833   -21082942.78949 -15825438.29947  21292276.214    21292284.718
       243.000         212.000
 00 10 23  1 46 30.0000000  0  6G27G11G26G 7G 8G 2
  22304397.257   -16771380.65949 -13057456.86846  22304397.347    22304406.871
       225.000         172.000
  23824422.811    -6787179.51249  -5159765.68845  23824421.856    23824432.880
       215.000         150.000
  22908323.193   -12610675.96849  -9596575.12846  22908322.898    22908332.820
       222.000         169.000
  21064471.827   -20062994.66649 -14202251.89247  21064471.150    21064480.034
       240.000         206.000
  20380775.376   -23621295.86249 -17786621.48347  20380774.993    20380782.745
       240.000         208.000
  21290132.483   -21094211.11549 -15834218.74847  21290131.768    21290140.125
       244.000         212.000
 00 10 23  1 47  0.0000000  0  6G27G11G26G 7G 8G 2
  22319417.255   -16692450.03149 -12995952.51746  22319417.429    22319427.704
       223.000         172.000
  23825310.241    -6782515.01349  -5156130.94645  23825309.571    23825320.290
       214.000         150.000
  22900858.944   -12649900.04849  -9627139.18846  22900858.516    22900869.194
       222.000         170.000
  21054123.787   -20117373.48849 -14244624.89947  21054122.914    21054131.920
       241.000         207.000
  20387962.624   -23583526.55649 -17757190.82347  20387961.858    20387969.849
       241.000         208.000
  21288011.793   -21105355.16649 -15842902.35647  21288010.947    21288019.436
       244.000         212.000
 00 10 23  1 47 30.0000000  0  6G27G11G26G 7G 8G 2
  22334500.848   -16613185.42449 -12934187.92446  22334500.347    22334510.802
       222.000         172.000
  23826291.799    -6777356.22349  -5152111.03245  23826291.781    23826301.731
       217.000         150.000
  22893493.211   -12688606.46449  -9657299.89246  22893492.675    22893503.434
       222.000         170.000
  21043857.142   -20171324.77549 -14286664.77147  21043856.431    21043865.448
       240.000         207.000
  20395231.205   -23545329.80549 -17727427.09847  20395230.776    20395238.612
       240.000         208.000
  21285914.926   -21116374.01949 -15851488.41447  21285914.288    21285922.687
       243.000         212.000
 00 10 23  1 48  0.0000000  0  6G27G11G26G 7G 8G 2
  22349647.403   -16533589.90349 -12872165.49046  22349647.241    22349657.318
       222.000         171.000
  23827367.519    -6771704.51849  -5147707.02345  23827365.788    23827377.191
       214.000         150.000
  22886225.841   -12726796.09249  -9687057.90546  22886226.095    22886236.144
       223.000         170.000
  21033671.639   -20224849.52549 -14328372.27347  21033670.893    21033679.782
       240.000         207.000
  20402580.737   -23506707.50249 -17697331.77147  20402580.068    20402588.122
       240.000         208.000
  21283841.476   -21127269.82749 -15859978.59047  21283840.864    21283849.226
       243.000         212.000
 00 10 23  1 48 30.0000000  0  6G27G11G26G 7G 8G 2
  22364856.980   -16453663.29349 -12809885.04446  22364856.312    22364866.667
       223.000         170.000
  23828536.738    -6765558.45049  -5142917.81945  23828536.927    23828547.254
       213.000         151.000
  22879057.299   -12764466.81449  -9716411.57246  22879057.218    22879067.300
       223.000         171.000
  21023567.639   -20277945.98249 -14369746.04447  21023566.927    21023575.946
       241.000         207.000
  20410011.481   -23467658.62349 -17666904.05147  20410011.143    20410018.889
       241.000         208.000
  21281791.588   -21138041.84749 -15868372.30947  21281791.003    21281799.374
       243.000         212.000
 00 10 23  1 49  0.0000000  0  6G27G11G26G 7G 8G 2
  22380129.458   -16373406.04149 -12747346.95146  22380128.579    22380139.589
       221.000         170.000
  23829800.396    -6758917.04249  -5137742.63045  23829800.522    23829810.386
       216.000         151.000
  22871987.689   -12801617.00949  -9745359.64846  22871987.333    22871997.376
       222.000         171.000
  21013545.409   -20330612.81849 -14410785.03647  21013544.626    21013553.527
       240.000         207.000
  20417523.485   -23428182.59149 -17636143.48147  20417522.803    20417530.834
       240.000         208.000
  21279765.331   -21148689.65649 -15876669.24147  21279764.645    21279773.111
       243.000         212.000
 00 10 23  1 49 30.0000000  0  6G27G11G26G 7G 8G 2
  22395464.486   -16292819.90449 -12684552.58746  22395463.773    22395474.015
       223.000         169.000
  23831158.584    -6751780.66849  -5132181.72645  23831157.263    23831168.754
       217.000         151.000
  22865017.222   -12838246.43749  -9773901.93146  22865017.128    22865027.534
       224.000         171.000
  21003604.943   -20382849.89349 -14451489.15247  21003604.047    21003613.023
       242.000         207.000
  20425116.666   -23388280.07349 -17605050.58947  20425116.126    20425123.855
       242.000         207.000
  21277762.577   -21159213.97949 -15884869.95747  21277761.852    21277770.303
       245.000         212.000
 00 10 23  1 50  0.0000000  0  6G27G11G26G 7G 8G 2
  22410861.899   -16211906.19349 -12621502.97246  22410861.384    22410871.537
       220.000         169.000
  23832610.671    -6744148.97449  -5126234.88545  23832610.717    23832619.471
       215.000         151.000
  22858146.055   -12874354.20349  -9802037.74446  22858145.795    22858155.533
       223.000         171.000
  20993746.394   -20434656.53349 -14491857.86447  20993745.792    20993754.268
       241.000         207.000
  20432791.014   -23347951.12249 -17573625.41547  20432790.513    20432798.423
       240.000         207.000
  21275783.207   -21169615.42049 -15892974.92247  21275782.532    21275790.950
       243.000         212.000
 00 10 23  1 50 30.0000000  0  6G27G11G26G 7G 8G 2
  22426321.683   -16130664.52949 -12558197.80446  22426321.471    22426332.129
       220.000         169.000
  23834157.461    -6736020.23149  -5119900.73345  23834157.466    23834167.453
       216.000         151.000
  22851374.523   -12909937.97949  -9829765.24146  22851374.443    22851384.192
       223.000         172.000
  20983970.130   -20486030.81649 -14531889.67447  20983969.260    20983978.174
       241.000         207.000
  20440546.690   -23307194.56549 -17541867.03947  20440546.174    20440554.329
       240.000         207.000
  21273827.452   -21179892.77949 -15900983.19247  21273826.716    21273834.950
       243.000         212.000
 00 10 23  1 51  0.0000000  0  6G27G11G26G 7G 8G 2
  22441843.534   -16049096.75949 -12494638.54346  22441844.005    22441853.249
       220.000         168.000
  23835798.628    -6727394.85949  -5113179.60345  23835799.190    23835809.351
       217.000         152.000
  22844702.823   -12944997.53949  -9857084.27346  22844703.071    22844712.918
       222.000         172.000
  20974276.156   -20536972.58349 -14571584.45747  20974275.291    20974284.163
       241.000         208.000
  20448383.625   -23266011.12549 -17509776.02947  20448383.199    20448390.993
       240.000         207.000
  21271895.073   -21190047.15049 -15908895.63247  21271894.374    21271902.564
       243.000         212.000
 00 10 23  1 51 30.0000000  0  6G27G11G26G 7G 8G 2
  22457427.255   -15967203.89149 -12430825.94746  22457427.966    22457436.970
       219.000         168.000
  23837534.671    -6718272.34649  -5106071.08045  23837534.298    23837544.444
       218.000         152.000
  22838131.040   -12979531.91849  -9883994.08046  22838130.601    22838140.248
       224.000         172.000
  20964664.588   -20587481.22449 -14610941.73747  20964663.825    20964672.555
       242.000         208.000
  20456301.738   -23224400.94149 -17477352.48847  20456301.077    20456309.023
       241.000         207.000
  21269986.098   -21200078.62349 -15916712.31447  21269985.236    21269993.656
       244.000         212.000
 00 10 23  1 52  0.0000000  0  6G27G11G26G 7G 8G 2
  22473072.423   -15884987.93749 -12366761.60346  22473072.156    22473083.058
       221.000         167.000
  23839365.135    -6708653.45549  -5098575.78445  23839364.591    23839375.333
       217.000         152.000
  22831659.282   -13013541.23649  -9910494.75346  22831659.521    22831669.192
       226.000         172.000
  20955135.403   -20637557.05149 -14649961.76247  20955134.562    20955143.426
       242.000         208.000
  20464300.954   -23182364.79849 -17444597.03847  20464300.380    20464308.387
       242.000         207.000
  21268100.288   -21209988.48049 -15924434.23647  21268099.661    21268107.994
       245.000         212.000
 00 10 23  1 52 30.0000000  0  6G27G11G26G 7G 8G 2
  22488779.127   -15802448.93849 -12302445.51646  22488779.392    22488789.251
       221.000         167.000
  23841290.174    -6698536.85749  -5090692.64845  23841289.948    23841299.865
       215.000         152.000
  22825287.807   -13047023.25449  -9936584.54246  22825288.212    22825297.638
       225.000         173.000
  20945688.921   -20687198.11049 -14688643.00747  20945688.342    20945696.959
       242.000         208.000
  20472381.399   -23139901.75649 -17411508.93647  20472381.046    20472388.954
       241.000         207.000
  21266237.813   -21219775.66049 -15932060.56247  21266237.290    21266245.473
       244.000         212.000
 00 10 23  1 53  0.0000000  0  6G27G11G26G 7G 8G 2
  22504547.091   -15719587.64449 -12237878.30546  22504546.497    22504557.501
       219.000         166.000
  23843309.975    -6687921.77749  -5082421.09845  23843310.280    23843320.038
       216.000         152.000
  22819016.866   -13079976.82249  -9962262.55546  22819016.344    22819026.780
       224.000         173.000
  20936325.430   -20736403.30149 -14726984.61347  20936324.864    20936333.209
       241.000         208.000
  20480543.098   -23097011.58249 -17378088.00647  20480542.775    20480550.640
       240.000         207.000
  21264398.694   -21229440.02549 -15939591.18247  21264398.333    21264406.459
       243.000         212.000
 00 10 23  1 53 30.0000000  0  6G27G11G26G 7G 8G 2
  22520376.105   -15636405.59549 -12173061.15746  22520375.748    22520385.576
       220.000         166.000
  23845424.914    -6676808.49049  -5073761.31045  23845424.116    23845434.275
       212.000         152.000
  22812846.544   -13112401.51349  -9987528.46046  22812846.795    22812856.839
       224.000         173.000
  20927044.871   -20785172.56749 -14764986.53847  20927043.889    20927052.779
       241.000         208.000
  20488786.058   -23053694.61149 -17344334.50447  20488785.569    20488793.200
       241.000         207.000
  21262582.824   -21238982.33449 -15947026.69148  21262582.041    21262590.357
       244.000         213.000
 00 10 23  1 54  0.0000000  0  6G27G11G26G 7G 8G 2
  22536265.968   -15552903.96849 -12107994.98846  22536265.948    22536275.868
       220.000         166.000
  23847634.442    -6665196.70049  -5064713.08945  23847635.146    23847644.593
       215.000         151.000
  22806777.026   -13144296.51949 -10012381.62246  22806777.137    22806787.248
       225.000         173.000
  20917847.414   -20833505.19249 -14802648.22447  20917846.496    20917855.364
       242.000         209.000
  20497110.138   -23009951.21649 -17310248.72647  20497109.486    20497117.406
       242.000         207.000
  21260790.106   -21248402.75949 -15954367.22448  21260789.282    21260797.755
       245.000         213.000
 00 10 23  1 54 30.0000000  0  6G27G11G26G 7G 8G 2
  22552216.506   -15469083.54949 -12042680.41246  22552216.705    22552226.624
       219.000         165.000
  23849938.869    -6653086.17149  -5055276.24145  23849938.511    23849949.389
       213.000         151.000
  22800808.636   -13175660.69049 -10036821.15246  22800808.749    22800818.137
       224.000         173.000
  20908733.221   -20881400.24549 -14839968.94547  20908732.506    20908740.812
       241.000         209.000
  20505515.408   -22965781.14049 -17275830.47747  20505515.187    20505522.717
       240.000         207.000
  21259020.687   -21257701.00849 -15961612.56048  21259020.027    21259028.188
       243.000         213.000
 00 10 23  1 55  0.0000000  0  6G27G11G26G 7G 8G 2
  22568227.346   -15384946.20749 -11977118.88246  22568227.361    22568237.753
       220.000         165.000
  23852338.364    -6640477.14449  -5045450.93745  23852338.680    23852348.438
       214.000         151.000
  22794941.162   -13206493.91049 -10060846.95946  22794941.720    22794950.546
       225.000         174.000
  20899702.202   -20928858.05549 -14876948.95547  20899701.468    20899710.194
       243.000         209.000
  20514001.756   -22921185.05549 -17241080.26347  20514001.442    20514009.351
       241.000         207.000
  21257274.310   -21266877.99349 -15968763.39848  21257273.796    21257281.998
       245.000         213.000
 00 10 23  1 55 30.0000000  0  6G27G11G26G 7G 8G 2
  22584298.321   -15300492.66549 -11911310.95446  22584298.426    22584308.347
       218.000         165.000
  23854832.591    -6627369.04949  -5035236.75245  23854833.043    23854842.586
       215.000         150.000
  22789174.998   -13236795.05749 -10084458.17046  22789174.883    22789184.597
       224.000         174.000
  20890754.687   -20975877.18949 -14913587.14947  20890754.042    20890762.404
       241.000         209.000
  20522569.215   -22876162.76349 -17205997.94747  20522568.611    20522576.508
       240.000         206.000
  21255551.128   -21275933.19849 -15975819.34748  21255550.469    21255558.515
       243.000         213.000
 00 10 23  1 56  0.0000000  0  6G27G11G26G 7G 8G 2
  22600429.466   -15215722.98649 -11845256.69346  22600429.358    22600438.826
       220.000         164.000
  23857422.142    -6613760.47649  -5024632.59545  23857421.841    23857431.422
       216.000         150.000
  22783510.511   -13266562.05249 -10107653.15546  22783510.784    22783520.548
       226.000         174.000
  20881890.927   -21022456.14149 -14949882.34147  20881890.048    20881898.647
       243.000         209.000
  20531217.974   -22830713.28349 -17170582.75547  20531217.414    20531225.295
       242.000         206.000
  21253851.312   -21284865.67749 -15982779.66348  21253850.555    21253858.746
       245.000         213.000
 00 10 23  1 56 30.0000000  0  6G27G11G26G 7G 8G 2
  22616620.247   -15130639.91749 -11778958.23246  22616620.010    22616630.860
       218.000         164.000
  23860106.726    -6599652.68449  -5013639.40945  23860105.163    23860115.474
       214.000         150.000
  22777947.423   -13295795.55949 -10130432.43046  22777947.775    22777956.554
       224.000         174.000
  20873110.807   -21068595.59749 -14985835.07047  20873110.147    20873118.793
       241.000         209.000
  20539947.664   -22784838.26849 -17134835.97747  20539947.280    20539955.210
       240.000         206.000
  21252174.481   -21293677.21449 -15989645.73648  21252173.966    21252182.033
       243.000         213.000
 00 10 23  1 57  0.0000000  0  6G27G11G26G 7G 8G 2
  22632870.757   -15045243.28049 -11712415.43346  22632870.620    22632880.974
       218.000         163.000
  23862886.585    -6585044.49849  -5002256.30045  23862885.078    23862895.720
       211.000         150.000
  22772486.280   -13324493.63449 -10152794.48446  22772486.725    22772495.683
       224.000         174.000
  20864414.646   -21114293.88449 -15021444.02947  20864413.947    20864422.319
       241.000         209.000
  20548758.565   -22738536.62249 -17098756.75747  20548758.181    20548765.991
       241.000         206.000
  21250520.928   -21302366.46549 -15996416.51548  21250520.191    21250528.353
       243.000         213.000
 00 10 23  1 57 30.0000000  0  6G27G11G26G 7G 8G 2
  22649180.442   -14959535.08249 -11645629.86546  22649180.589    22649190.479
       217.000         163.000
  23865761.352    -6569936.86149  -4990484.03845  23865760.478    23865770.249
       215.000         150.000
  22767126.995   -13352656.62349 -10174739.59046  22767126.856    22767136.578
       225.000         174.000
  20855802.355   -21159551.39749 -15056709.52447  20855801.839    20855810.258
       241.000         209.000
  20557650.439   -22691809.33249 -17062345.86347  20557650.145    20557657.991
       241.000         206.000
  21248890.395   -21310934.71049 -16003093.00048  21248889.890    21248897.879
       243.000         213.000
 00 10 23  1 58  0.0000000  0  6G27G11G26G 7G 8G 2
  22665549.272   -14873516.48749 -11578602.43246  22665548.657    22665559.148
       217.000         163.000
  23868731.191    -6554329.52549  -4978322.41445  23868730.462    23868741.904
       214.000         150.000
  22761869.694   -13380283.53949 -10196266.97946  22761868.706    22761879.334
       225.000         174.000
  20847274.063   -21204367.51449 -15091631.08147  20847273.373    20847281.744
       242.000         210.000
  20566623.307   -22644656.65249 -17025603.50047  20566622.843    20566630.656
       241.000         205.000
  21247282.902   -21319381.89849 -16009675.15648  21247282.253    21247290.365
       244.000         213.000
 00 10 23  1 58 30.0000000  0  6G27G11G26G 7G 8G 2
  22681976.872   -14787188.83249 -11511334.17045  22681976.624    22681986.524
       217.000         162.000
  23871796.208    -6538222.63249  -4965771.52545  23871796.499    23871805.928
       214.000         150.000
  22756714.532   -13407374.03249 -10217376.38346  22756714.854    22756723.900
       225.000         175.000
  20838829.849   -21248741.81349 -15126208.35947  20838829.239    20838837.365
       242.000         210.000
  20575676.989   -22597079.06549 -16988530.03347  20575676.546    20575684.238
       242.000         205.000
  21245698.464   -21327708.16549 -16016163.08648  21245697.700    21245705.659
       244.000         213.000
 00 10 23  1 59  0.0000000  0  6G27G11G26G 7G 8G 2
  22698463.310   -14700552.40449 -11443825.30945  22698463.081    22698474.220
       216.000         162.000
  23874956.498    -6521614.96849  -4952830.41545  23874956.671    23874966.014
       215.000         150.000
  22751661.787   -13433926.21149 -10238066.33246  22751661.882    22751671.440
       225.000         175.000
  20830470.006   -21292672.70649 -15160440.13047  20830469.316    20830477.563
       243.000         210.000
  20584811.769   -22549075.44949 -16951124.60347  20584811.312    20584818.909
       241.000         205.000
  21244137.157   -21335912.46649 -16022555.98348  21244136.560    21244144.430
       244.000         213.000
 00 10 23  1 59 30.0000000  0  6G27G11G26G 7G 8G 2
  22715008.002   -14613609.59349 -11376077.70545  22715007.907    22715017.628
       215.000         161.000
  23878211.847    -6504507.76849  -4939500.06245  23878211.878    23878221.824
       215.000         150.000
  22746711.387   -13459940.94249 -10258337.47446  22746711.619    22746721.075
       225.000         175.000
  20822194.384   -21336161.15949 -15194327.14147  20822193.605    20822201.980
       244.000         210.000
  20594027.332   -22500647.37949 -16913388.41947  20594026.662    20594034.506
       241.000         205.000
  21242598.778   -21343996.44849 -16028855.12148  21242598.145    21242606.148
       243.000         213.000
 00 10 23  2  0  0.0000000  0  6G27G11G26G 7G 8G 2
  22731610.971   -14526360.76549 -11308091.63545  22731610.533    22731620.690
       215.000         161.000
  23881562.368    -6486900.11549  -4925779.73745  23881562.089    23881571.874
       216.000         150.000
  22741863.392   -13485416.60749 -10278188.57046  22741863.555    22741873.124
       225.000         175.000
  20814003.221   -21379205.68749 -15227868.23747  20814002.586    20814010.816
       243.000         210.000
  20603323.708   -22451794.44349 -16875321.17647  20603323.316    20603330.931
       241.000         205.000
  21241083.498   -21351959.07649 -16035059.70148  21241082.994    21241090.995
       244.000         213.000
 00 10 23  2  0 30.0000000  0  6G27G11G26G 7G 8G 2
  22748271.793   -14438807.53749 -11239868.38445  22748271.739    22748281.555
       216.000         161.000
  23885008.129    -6468792.45649  -4911669.79545  23885008.233    23885018.270
       213.000         151.000
  22737118.089   -13510352.99549 -10297619.44246  22737118.860    22737127.035
       224.000         175.000
  20805896.524   -21421806.23849 -15261063.37347  20805895.808    20805904.072
       243.000         210.000
  20612700.854   -22402517.11549 -16836923.22547  20612700.135    20612708.218
       241.000         205.000
  21239591.235   -21359800.69849 -16041169.99148  21239590.537    21239598.598
       244.000         213.000
 00 10 23  2  1  0.0000000  0  6G27G11G26G 7G 8G 2
  22764990.383   -14350950.87049 -11171408.69045  22764989.935    22765000.609
       217.000         161.000
  23888549.147    -6450184.57549  -4897170.08745  23888548.752    23888558.483
       217.000         150.000
  22732475.559   -13534749.28349 -10316629.45946  22732476.124    22732485.016
       226.000         175.000
  20797874.465   -21463962.13549 -15293912.03647  20797873.542    20797881.966
       245.000         211.000
  20622158.735   -22352815.45049 -16798194.63047  20622158.167    20622165.953
       242.000         205.000
  21238121.995   -21367521.29749 -16047185.98748  21238121.075    21238129.403
       245.000         213.000
 00 10 23  2  1 30.0000000  0  6G27G11G26G 7G 8G 2
  22781766.374   -14262792.51649 -11102713.91045  22781766.261    22781775.965
       216.000         161.000
  23892185.104    -6431076.68849  -4882280.75745  23892185.564    23892193.690
       214.000         150.000
  22727935.912   -13558605.12949 -10335218.36646  22727936.067    22727945.461
       226.000         175.000
  20789937.060   -21505673.05049 -15326413.95347  20789936.357    20789944.537
       244.000         211.000
  20631697.339   -22302689.78149 -16759135.63647  20631696.784    20631704.672
       241.000         205.000
  21236675.770   -21375121.09149 -16053107.84148  21236674.966    21236683.155
       245.000         213.000
 00 10 23  2  2  0.0000000  0  6G27G11G26G 7G 8G 2
  22798599.718   -14174333.00649 -11033784.46545  22798600.327    22798609.752
       217.000         160.000
  23895916.279    -6411468.47749  -4867001.57045  23895916.241    23895925.560
       217.000         150.000
  22723499.252   -13581919.53349 -10353385.35346  22723499.738    22723509.029
       227.000         175.000
  20782084.511   -21546938.15649 -15358568.48447  20782083.803    20782091.902
       245.000         211.000
  20641316.606   -22252140.10149 -16719746.24647  20641316.074    20641323.779
       243.000         205.000
  21235252.628   -21382599.49849 -16058935.10648  21235252.031    21235259.904
       245.000         213.000
 00 10 23  2  2 30.0000000  0  6G27G11G26G 7G 8G 2
  22815489.974   -14085574.35149 -10964621.92145  22815489.975    22815500.139
       215.000         160.000
  23899742.685    -6391360.63749  -4851333.03245  23899741.473    23899752.314
       215.000         150.000
  22719165.723   -13604692.47549 -10371130.42746  22719165.399    22719175.331
       225.000         176.000
  20774316.767   -21587757.66549 -15390375.80047  20774316.000    20774324.278
       244.000         211.000
  20651016.355   -22201167.40049 -16680027.22647  20651015.799    20651023.645
       241.000         205.000
  21233852.405   -21389957.34949 -16064668.44048  21233851.730    21233859.716
       243.000         213.000
 00 10 23  2  3  0.0000000  0  6G27G11G26G 7G 8G 2
  22832436.971   -13996517.49449 -10895227.00945  22832436.823    22832446.944
       216.000         160.000
  23903664.169    -6370752.99949  -4835275.04145  23903663.148    23903674.027
       214.000         150.000
  22714935.306   -13626923.28149 -10388453.05746  22714935.597    22714944.810
       226.000         176.000
  20766633.914   -21628130.83349 -15421835.32247  20766633.339    20766641.505
       244.000         211.000
  20660796.672   -22149771.48749 -16639978.43947  20660796.318    20660803.945
       241.000         205.000
  21232475.228   -21397194.34949 -16070307.60748  21232474.454    21232482.568
       244.000         213.000
 00 10 23  2  3 30.0000000  0  6G27G11G26G 7G 8G 2
  22849440.242   -13907164.62349 -10825601.44045  22849439.972    22849450.311
       216.000         159.000
  23907680.553    -6349646.47449  -4818828.33645  23907679.498    23907689.945
       216.000         150.000
  22710807.973   -13648612.24949 -10405353.46946  22710807.875    22710817.647
       227.000         176.000
  20759035.932   -21668058.24249 -15452947.49147  20759035.099    20759043.333
       245.000         211.000
  20670657.269   -22097953.59249 -16599600.82747  20670656.672    20670664.604
       242.000         205.000
  21231120.858   -21404311.37549 -16075853.28348  21231120.051    21231128.184
       245.000         213.000
 00 10 23  2  4  0.0000000  0  6G27G11G26G 7G 8G 2
  22866499.878   -13817515.87549 -10755745.31545  22866500.051    22866510.153
       216.000         159.000
  23911792.021    -6328040.16649  -4801992.18445  23911791.002    23911801.408
       216.000         150.000
  22706784.106   -13669757.81349 -10421830.44646  22706784.031    22706793.884
       227.000         176.000
  20751523.065   -21707538.28249 -15483711.06647  20751522.300    20751530.363
       245.000         211.000
  20680598.330   -22045712.90849 -16558893.77347  20680597.610    20680605.639
       242.000         204.000
  21229789.553   -21411307.10049 -16081304.43848  21229788.853    21229796.833
       246.000         213.000
 00 10 23  2  4 30.0000000  0  6G27G11G26G 7G 8G 2
  22883615.563   -13727572.41049 -10685659.55045  22883615.173    22883626.110
       216.000         159.000
  23915998.686    -6305934.11549  -4784766.60745  23915996.850    23916007.936
       212.000         149.000
  22702863.649   -13690359.40349 -10437883.54546  22702863.615    22702872.652
       226.000         176.000
  20744095.377   -21746570.62449 -15514125.78947  20744094.732    20744102.750
       244.000         211.000
  20690619.745   -21993049.78649 -16517857.54847  20690619.402    20690626.867
       240.000         204.000
  21228481.396   -21418181.32649 -16086660.92048  21228480.829    21228488.519
       244.000         213.000
 00 10 23  2  5  0.0000000  0  6G27G11G26G 7G 8G 2
  22900786.844   -13637336.89749 -10615346.20845  22900787.195    22900797.195
       216.000         159.000
  23920300.103    -6283329.74449  -4767152.73845  23920299.082    23920310.067
       212.000         149.000
  22699046.536   -13710417.96849 -10453513.50046  22699046.807    22699055.809
       226.000         176.000
  20736752.714   -21785156.19949 -15544192.37447  20736751.975    20736759.995
       244.000         211.000
  20700721.276   -21939965.86949 -16476493.42547  20700720.819    20700728.386
       242.000         204.000
  21227196.070   -21424935.58349 -16091923.91148  21227195.468    21227203.342
       245.000         213.000
 00 10 23  2  5 30.0000000  0  6G27G11G26G 7G 8G 2
  22918013.767   -13546808.77849 -10544804.87445  22918013.419    22918023.710
       216.000         159.000
  23924696.618    -6260225.42049  -4749149.29845  23924695.658    23924706.166
       215.000         149.000
  22695333.297   -13729931.29249 -10468718.58346  22695333.008    22695342.779
       227.000         177.000
  20729495.504   -21823292.73949 -15573909.06347  20729494.150    20729502.657
       245.000         212.000
  20710903.169   -21886459.59949 -16434800.19747  20710902.371    20710910.124
       242.000         204.000
  21225933.946   -21431567.85749 -16097091.85248  21225933.072    21225940.756
       246.000         213.000
 00 10 23  2  6  0.0000000  0  6G27G11G26G 7G 8G 2
  22935295.877   -13455990.89849 -10474037.75445  22935296.035    22935306.178
       215.000         159.000
  23929187.926    -6236622.90449  -4730757.66645  23929187.808    23929197.303
       212.000         149.000
  22691723.519   -13748900.46649 -10483499.65846  22691723.207    22691732.023
       226.000         177.000
  20722323.519   -21860981.36149 -15603276.73147  20722322.814    20722330.902
       245.000         212.000
  20721165.029   -21832532.92849 -16392779.39447  20721164.506    20721172.307
       242.000         204.000
  21224694.760   -21438079.59149 -16102165.86848  21224694.060    21224701.858
       245.000         213.000
 00 10 23  2  6 30.0000000  0  6G27G11G26G 7G 8G 2
  22952633.015   -13364884.00049 -10403045.41345  22952633.423    22952642.807
       214.000         158.000
  23933774.082    -6212521.85049  -4711977.56245  23933774.663    23933783.630
       214.000         149.000
  22688217.425   -13767324.33949 -10497855.83346  22688217.344    22688226.395
       225.000         177.000
  20715236.915   -21898221.37249 -15632294.84047  20715236.440    20715244.199
       243.000         212.000
  20731506.955   -21778185.59249 -16350430.80247  20731506.777    20731514.389
       240.000         204.000
  21223478.595   -21444470.31249 -16107145.59548  21223478.132    21223485.838
       244.000         213.000
 00 10 23  2  7  0.0000000  0  6G27G11G26G 7G 8G 2
  22970024.829   -13273489.51349 -10331828.98945  22970024.353    22970035.740
       215.000         157.000
  23938455.123    -6187922.41849  -4692809.09645  23938455.112    23938464.827
       216.000         149.000
  22684815.175   -13785202.88449 -10511787.05046  22684815.209    22684824.529
       227.000         177.000
  20708235.724   -21935012.52549 -15660963.17247  20708234.967    20708242.978
       245.000         212.000
  20741928.854   -21723418.17449 -16307754.86247  20741928.312    20741936.134
       241.000         203.000
  21222285.515   -21450739.73049 -16112030.78148  21222284.868    21222292.571
       245.000         213.000
 00 10 23  2  7 30.0000000  0  6G27G11G26G 7G 8G 2
  22987470.914   -13181809.79849 -10260390.29345  22987470.535    22987481.676
       212.000         157.000
  23943230.769    -6162826.16649  -4673253.49645  23943231.016    23943239.989
       212.000         149.000
  22681516.560   -13802536.82449 -10525293.91046  22681516.413    22681525.581
       225.000         177.000
  20701319.775   -21971355.65349 -15689282.40247  20701318.845    20701326.884
       244.000         212.000
  20752430.393   -21668232.08749 -16264752.69047  20752429.952    20752437.264
       240.000         203.000
  21221115.315   -21456888.90749 -16116822.27748  21221114.298    21221122.318
       244.000         213.000
 00 10 23  2  8  0.0000000  0  6G27G11G26G 7G 8G 2
  23004971.346   -13089844.58049 -10188729.12545  23004970.920    23004981.675
       213.000         157.000
  23948101.178    -6137231.66749  -4653309.65645  23948100.695    23948110.597
       213.000         149.000
  22678321.895   -13819324.13849 -10538374.82746  22678321.615    22678331.229
       226.000         177.000
  20694489.462   -22007248.80849 -15717251.02247  20694488.794    20694496.724
       244.000         212.000
  20763011.818   -21612626.19549 -16221423.41647  20763011.276    20763018.954
       241.000         203.000
  21219968.299   -21462916.17749 -16121518.79548  21219967.772    21219975.346
       244.000         213.000
 00 10 23  2  8 30.0000000  0  6G27G11G26G 7G 8G 2
  23022525.658   -12997596.13649 -10116847.27245  23022525.807    23022536.082
       214.000         156.000
  23953066.211    -6111140.10949  -4632978.51245  23953066.217    23953075.066
       216.000         149.000
  22675231.269   -13835565.48149 -10551030.32046  22675231.324    22675240.816
       226.000         177.000
  20687744.691   -22042692.56949 -15744869.45347  20687744.063    20687752.080
       244.000         212.000
  20773672.887   -21556601.68849 -16177767.94147  20773672.436    20773680.151
       240.000         203.000
  21218844.352   -21468822.30849 -16126120.91348  21218843.850    21218851.424
       244.000         213.000
 00 10 23  2  9  0.0000000  0  6G27G11G26G 7G 8G 2
  23040133.604   -12905066.14649 -10044746.03045  23040133.727    23040144.508
       214.000         156.000
  23958125.715    -6084552.22249  -4612260.57945  23958126.324    23958135.028
       216.000         149.000
  22672244.368   -13851260.84749 -10563260.35846  22672244.462    22672252.872
       228.000         177.000
  20681085.355   -22077687.16049 -15772137.87647  20681084.593    20681092.595
       245.000         212.000
  20784413.500   -21500159.33249 -16133786.86347  20784412.890    20784420.625
       241.000         203.000
  21217743.363   -21474607.82449 -16130629.03548  21217742.712    21217750.386
       245.000         213.000
 00 10 23  2  9 30.0000000  0  6G27G11G26G 7G 8G 2
  23057794.902   -12812255.72449  -9972426.27445  23057795.191    23057804.646
       215.000         155.000
  23963279.623    -6057468.03549  -4591155.93545  23963278.348    23963289.121
       216.000         150.000
  22669361.558   -13866409.82749 -10575064.64946  22669361.508    22669371.168
       227.000         178.000
  20674511.604   -22112232.16249 -15799055.97947  20674510.984    20674518.823
       246.000         212.000
  20795233.528   -21443299.54849 -16089480.52547  20795233.000    20795240.587
       242.000         203.000
  21216665.435   -21480272.17249 -16135042.74948  21216664.719    21216672.463
       246.000         213.000
 00 10 23  2 10  0.0000000  0  6G27G11G26G 7G 8G 2
  23075509.196   -12719166.59249  -9899889.33845  23075509.507    23075519.051
       213.000         154.000
  23968527.761    -6029888.35949  -4569665.21445  23968527.744    23968537.578
       218.000         149.000
  22666582.617   -13881012.73049 -10586443.43446  22666583.121    22666592.177
       227.000         178.000
  20668023.382   -22146327.64049 -15825623.80347  20668022.576    20668030.500
       244.000         212.000
  20806132.874   -21386023.20949 -16044849.59547  20806132.164    20806139.836
       239.000         202.000
  21215610.528   -21485815.52449 -16139362.18148  21215609.839    21215617.437
       245.000         213.000
 00 10 23  2 10 30.0000000  0  6G27G11G26G 7G 8G 2
  23093276.469   -12625799.05149  -9827135.45845  23093276.377    23093287.159
       213.000         154.000
  23973870.374    -6001812.52749  -4547787.84945  23973869.026    23973879.150
       215.000         149.000
  22663907.912   -13895067.93649 -10597395.43446  22663908.013    22663916.915
       227.000         178.000
  20661620.943   -22179972.31749 -15851840.35847  20661620.088    20661628.015
       245.000         212.000
  20817111.624   -21328329.42049 -15999893.38747  20817110.954    20817118.570
       239.000         202.000
  21214578.866   -21491236.68149 -16143586.40148  21214578.133    21214585.902
       245.000         213.000
 00 10 23  2 11  0.0000000  0  6G27G11G26G 7G 8G 2
  23111096.227   -12532155.67949  -9754166.66545  23111096.161    23111106.711
       212.000         154.000
  23979307.145    -5973241.88649  -4525524.93845  23979306.841    23979316.389
       213.000         149.000
  22661337.249   -13908576.56049 -10607921.52746  22661337.502    22661346.317
       226.000         178.000
  20655304.102   -22213167.17349 -15877706.40347  20655303.311    20655311.268
       244.000         212.000
  20828169.484   -21270219.87249 -15954613.21547  20828169.159    20828176.800
       238.000         202.000
  21213570.262   -21496536.67449 -16147716.20548  21213569.691    21213577.212
       245.000         213.000
 00 10 23  2 11 30.0000000  0  6G27G11G26G 7G 8G 2
  23128968.189   -12438238.12049  -9680984.20045  23128967.959    23128978.370
       211.000         154.000
  23984837.866    -5944177.21249  -4502877.06745  23984837.023    23984847.661
       215.000         149.000
  22658870.513   -13921538.75149 -10618021.83846  22658871.680    22658879.571
       227.000         178.000
  20649072.830   -22245912.34649 -15903222.04147  20649072.095    20649080.049
       244.000         212.000
  20839306.262   -21211695.65549 -15909009.91847  20839305.969    20839313.254
       239.000         202.000
  21212584.701   -21501715.57749 -16151751.65048  21212584.064    21212591.609
       245.000         213.000
 00 10 23  2 12  0.0000000  0  6G27G11G26G 7G 8G 2
  23146892.222   -12344047.06549  -9607588.62645  23146891.890    23146903.158
       212.000         154.000
  23990462.758    -5914618.15249  -4479843.96745  23990461.549    23990471.675
       215.000         149.000
  22656508.006   -13933953.54849 -10627695.60046  22656507.996    22656516.928
       226.000         178.000
  20642927.338   -22278206.84349 -15928386.50747  20642926.619    20642934.559
       244.000         212.000
  20850522.074   -21152756.12249 -15863083.00347  20850521.624    20850529.396
       238.000         202.000
  21211622.385   -21506772.35449 -16155691.93848  21211621.820    21211629.470
       244.000         214.000
 00 10 23  2 12 30.0000000  0  6G27G11G26G 7G 8G 2
  23164867.849   -12249584.72849  -9533981.65345  23164867.596    23164878.416
       212.000         153.000
  23996181.459    -5884565.82449  -4456426.46445  23996179.371    23996191.474
       208.000         149.000
  22654249.535   -13945821.55749 -10636943.29946  22654249.899    22654258.157
       226.000         178.000
  20636867.465   -22310051.28049 -15953200.27747  20636866.974    20636874.799
       244.000         212.000
  20861816.660   -21093402.58849 -15816833.48747  20861816.425    20861823.979
       238.000         202.000
  21210683.216   -21511707.56149 -16159537.48748  21210682.660    21210690.154
       244.000         213.000
 00 10 23  2 13  0.0000000  0  6G27G11G26G 7G 8G 2
  23182894.826   -12154852.23749  -9460164.19345  23182895.016    23182905.669
       212.000         152.000
  24001993.916    -5854020.57049  -4432624.91845  24001994.205    24002003.314
       216.000         148.000
  22652095.133   -13957142.51349 -10645764.71946  22652094.781    22652103.743
       227.000         178.000
  20630893.336   -22341445.33349 -15977663.09347  20630892.470    20630900.453
       245.000         212.000
  20873189.953   -21033635.48349 -15770261.70547  20873189.382    20873196.967
       239.000         201.000
  21209767.246   -21516520.79049 -16163287.98548  21209766.464    21209774.114
       245.000         213.000
 00 10 23  2 13 30.0000000  0  6G27G11G26G 7G 8G 2
  23200973.046   -12059850.99049  -9386137.29845  23200973.670    23200983.889
       211.000         151.000
  24007900.173    -5822982.63849  -4408439.43645  24007900.296    24007909.678
       214.000         149.000
  22650044.906   -13967916.21049 -10654159.69546  22650044.560    22650053.337
       227.000         178.000
  20625004.911   -22372388.81949 -16001774.81947  20625004.037    20625011.838
       245.000         212.000
  20884641.863   -20973455.35749 -15723368.08847  20884641.334    20884648.897
       239.000         201.000
  21208874.485   -21521211.86249 -16166943.29848  21208873.742    21208881.356
       245.000         213.000
 00 10 23  2 14  0.0000000  0  6G27G11G26G 7G 8G 2
  23219102.143   -11964582.04749  -9311901.81545  23219102.480    23219112.358
       212.000         150.000
  24013900.141    -5791452.46449  -4383870.40045  24013899.893    24013908.531
       214.000         149.000
  22648098.798   -13978142.37149 -10662128.04746  22648098.578    22648107.450
       227.000         178.000
  20619202.297   -22402881.39549 -16025535.20147  20619201.644    20619209.324
       245.000         212.000
  20896172.328   -20912862.32849 -15676152.74147  20896172.011    20896179.663
       239.000         201.000
  21208005.083   -21525780.28849 -16170503.06148  21208004.644    21208012.192
       245.000         213.000
 00 10 23  2 14 30.0000000  0  6G27G11G26G 7G 8G 2
  23237281.735   -11869047.97549  -9237459.72245  23237281.055    23237293.089
       213.000         151.000
  24019993.403    -5759431.72149  -4358919.11045  24019993.564    24020002.443
       210.000         149.000
  22646256.808   -13987821.99649 -10669670.51346  22646257.132    22646265.398
       227.000         178.000
  20613485.319   -22432924.10649 -16048945.03348  20613484.512    20613492.559
       245.000         213.000
  20907780.999   -20851858.30449 -15628617.12747  20907780.575    20907788.485
       238.000         201.000
  21207158.857   -21530227.05949 -16173968.02148  21207158.450    21207165.891
       244.000         213.000
 00 10 23  2 15  0.0000000  0  6G27G11G26G 7G 8G 2
  23255511.577   -11773249.74849  -9162811.81145  23255511.135    23255522.644
       212.000         150.000
  24026180.092    -5726920.17249  -4333585.37845  24026179.512    24026189.101
       214.000         148.000
  22644518.932   -13996954.47349 -10676786.63446  22644518.606    22644527.292
       227.000         178.000
  20607854.082   -22462516.13649 -16072003.67548  20607853.300    20607861.247
       244.000         213.000
  20919467.966   -20790442.88749 -15580760.94247  20919467.504    20919475.192
       238.000         201.000
  21206335.960   -21534551.11149 -16177337.35048  21206335.310    21206342.835
       245.000         213.000
 00 10 23  2 15 30.0000000  0  6G27G11G26G 7G 8G 2
  23273791.343   -11677189.15849  -9087959.45645  23273790.620    23273802.308
       211.000         149.000
  24032459.938    -5693918.87849  -4307869.99345  24032459.355    24032469.598
       213.000         149.000
  22642884.959   -14005540.32349 -10683476.80946  22642884.587    22642894.011
       227.000         178.000
  20602308.519   -22491658.08349 -16094711.60448  20602307.679    20602315.605
       244.000         213.000
  20931232.932   -20728617.52449 -15532585.31747  20931232.319    20931240.002
       238.000         200.000
  21205536.374   -21538752.81549 -16180611.34348  21205535.703    21205543.097
       244.000         213.000
 00 10 23  2 16  0.0000000  0  6G27G11G26G 7G 8G 2
  23292121.026   -11580866.07649  -9012902.56545  23292120.321    23292131.709
       211.000         149.000
  24038833.295    -5660426.80049  -4281772.21345  24038833.542    24038842.797
       212.000         149.000
  22641355.298   -14013577.99449 -10689739.84446  22641355.676    22641364.279
       227.000         178.000
  20596848.903   -22520348.23349 -16117067.49448  20596848.189    20596856.080
       244.000         213.000
  20943076.123   -20666381.03449 -15484089.33947  20943075.800    20943083.158
       237.000         200.000
  21204760.399   -21542830.38749 -16183788.62148  21204759.690    21204767.137
       244.000         213.000
 00 10 23  2 16 30.0000000  0  6G27G11G26G 7G 8G 2
  23310499.924   -11484284.74349  -8937644.44445  23310500.356    23310511.140
       210.000         149.000
  24045299.368    -5626447.43149  -4255294.69345  24045298.476    24045308.172
       213.000         149.000
  22639929.509   -14021070.18249 -10695577.81446  22639929.953    22639937.742
       227.000         178.000
  20591474.741   -22548589.29349 -16139073.44048  20591474.109    20591481.650
       244.000         213.000
  20954996.918   -20603736.81649 -15435275.64947  20954996.568    20955003.867
       238.000         200.000
  21204007.552   -21546786.34549 -16186871.13448  21204007.001    21204014.325
       244.000         213.000
 00 10 23  2 17  0.0000000  0  6G27G11G26G 7G 8G 2
  23328927.808   -11387445.61249  -8862185.44945  23328928.089    23328937.691
       210.000         148.000
  24051858.128    -5591980.16549  -4228437.03745  24051858.115    24051866.901
       215.000         149.000
  22638607.655   -14028016.07749 -10700990.11346  22638607.598    22638616.897
       226.000         178.000
  20586186.237   -22576380.21949 -16160728.62648  20586185.380    20586193.135
       244.000         213.000
  20966995.389   -20540684.36549 -15386143.84947  20966994.622    20967002.398
       237.000         200.000
  21203278.106   -21550619.41949 -16189857.88748  21203277.367    21203284.810
       244.000         213.000
 00 10 23  2 17 30.0000000  0  6G27G11G26G 7G 8G 2
  23347404.682   -11290349.29749  -8786526.04445  23347404.778    23347415.053
       210.000         148.000
  24058509.821    -5557024.73349  -4201198.95945  24058509.101    24058518.489
       212.000         149.000
  22637389.901   -14034414.79849 -10705976.04246  22637390.740    22637398.545
       228.000         178.000
  20580983.572   -22603720.22149 -16182032.45448  20580983.022    20580990.495
       245.000         213.000
  20979071.553   -20477223.62449 -15336693.91047  20979070.981    20979078.658
       238.000         199.000
  21202572.304   -21554328.24549 -16192747.83548  21202571.685    21202579.264
       245.000         213.000
 00 10 23  2 18  0.0000000  0  6G27G11G26G 7G 8G 2
  23365929.948   -11192998.76849  -8710668.56445  23365929.584    23365940.325
       211.000         148.000
  24065254.090    -5521583.27949  -4173582.19945  24065254.251    24065262.465
       215.000         149.000
  22636276.105   -14040267.87949 -10710536.80946  22636276.172    22636284.530
       227.000         178.000
  20575866.432   -22630610.71649 -16202986.00948  20575865.655    20575873.239
       245.000         213.000
  20991224.998   -20413356.73649 -15286927.49047  20991224.628    20991232.215
       238.000         199.000
  21201889.880   -21557914.17049 -16195542.01348  21201889.178    21201896.377
       245.000         213.000
 00 10 23  2 18 30.0000000  0  6G27G11G26G 7G 8G 2
  23384503.270   -11095395.59349  -8634614.20645  23384503.195    23384514.071
       208.000         148.000
  24072090.653    -5485656.73849  -4145587.41545  24072089.969    24072098.575
       212.000         149.000
  22635265.979   -14045575.72349 -10714672.71646  22635265.812    22635274.565
       227.000         179.000
  20570834.797   -22657051.88749 -16223589.44248  20570833.998    20570841.576
       244.000         213.000
  21003455.621   -20349084.32949 -15236845.07747  21003454.871    21003462.423
       236.000         199.000
  21201230.861   -21561377.08349 -16198240.33348  21201229.964    21201237.552
       244.000         213.000
 00 10 23  2 19  0.0000000  0  6G27G11G26G 7G 8G 2
  23403124.610   -10997540.17149  -8558363.28945  23403124.624    23403135.485
       210.000         148.000
  24079019.603    -5449244.51649  -4117214.18945  24079019.492    24079028.141
       214.000         148.000
  22634359.981   -14050337.27349 -10718382.94246  22634359.959    22634368.716
       229.000         179.000
  20565888.853   -22683042.68949 -16243841.93748  20565888.082    20565895.704
       246.000         213.000
  21015763.473   -20284406.05149 -15186446.41147  21015763.000    21015770.600
       238.000         199.000
  21200595.526   -21564715.59449 -16200841.71548  21200594.794    21200602.314
       245.000         213.000
 00 10 23  2 19 30.0000000  0  6G27G11G26G 7G 8G 2
  23421793.333   -10899435.50349  -8481918.17345  23421793.870    23421803.419
       210.000         147.000
  24086040.447    -5412349.07849  -4088464.44245  24086038.892    24086049.565
       214.000         148.000
  22633557.507   -14054554.10949 -10721668.73646  22633557.444    22633566.264
       229.000         179.000
  20561028.307   -22708584.68349 -16263744.72048  20561027.817    20561035.203
       245.000         213.000
  21028148.140   -20219324.21749 -15135733.28347  21028148.026    21028155.286
       238.000         199.000
  21199983.650   -21567930.77449 -16203346.99848  21199983.097    21199990.567
       245.000         213.000
 00 10 23  2 20  0.0000000  0  6G27G11G26G 7G 8G 2
  23440509.550   -10801081.49449  -8405278.74445  23440509.223    23440519.403
       211.000         147.000
  24093153.582    -5374969.30649  -4059337.28845  24093153.237    24093162.418
       211.000         148.000
  22632858.862   -14058224.84449 -10724528.98046  22632858.748    22632868.122
       228.000         179.000
  20556253.511   -22733676.15149 -16283296.43848  20556252.902    20556260.442
       245.000         214.000
  21040609.792   -20153837.60049 -15084704.74247  21040609.559    21040617.091
       238.000         198.000
  21199395.623   -21571020.63949 -16205754.63048  21199395.054    21199402.477
       245.000         213.000
 00 10 23  2 20 30.0000000  0  6G27G11G26G 7G 8G 2
  23459272.488   -10702481.82749  -8328447.91945  23459272.514    23459283.599
       210.000         147.000
  24100358.282    -5337107.97449  -4029834.89845  24100357.969    24100367.257
       211.000         148.000
  22632263.734   -14061352.00149 -10726965.66846  22632263.390    22632272.902
       228.000         179.000
  20551563.968   -22758319.49049 -16302498.96348  20551563.099    20551570.564
       245.000         214.000
  21053147.923   -20087949.26149 -15033363.16847  21053147.539    21053154.938
       238.000         198.000
  21198831.087   -21573987.03649 -16208066.05148  21198830.275    21198837.864
       245.000         213.000
 00 10 23  2 21  0.0000000  0  6G27G11G26G 7G 8G 2
  23478082.139   -10603636.81149  -8251425.90245  23478082.272    23478092.615
       210.000         147.000
  24107654.726    -5298764.81749  -3999957.04045  24107654.768    24107663.636
       213.000         147.000
  22631772.395   -14063934.53449 -10728977.99746  22631772.120    22631781.071
       227.000         179.000
  20546959.921   -22782513.63949 -16321351.47848  20546959.156    20546966.610
       244.000         214.000
  21065762.593   -20021658.68749 -14981708.16247  21065762.146    21065769.860
       236.000         198.000
  21198290.332   -21576828.56449 -16210280.17748  21198289.540    21198296.997
       243.000         213.000
 00 10 23  2 21 30.0000000  0  6G27G11G26G 7G 8G 2
  23496938.197   -10504547.81049  -8174213.77145  23496938.318    23496948.346
       211.000         147.000
  24115042.741    -5259940.22049  -3969704.05545  24115041.924    24115051.690
       215.000         148.000
  22631384.412   -14065972.57049 -10730566.03946  22631384.309    22631392.933
       227.000         179.000
  20542441.395   -22806258.44149 -16339853.84948  20542440.684    20542448.175
       244.000         214.000
  21078453.698   -19954966.38049 -14929740.12747  21078453.290    21078460.904
       236.000         198.000
  21197773.394   -21579544.82149 -16212396.69348  21197772.607    21197780.231
       244.000         213.000
 00 10 23  2 22  0.0000000  0  6G27G11G26G 7G 8G 2
  23515840.242   -10405217.38549  -8096813.52345  23515840.382    23515851.212
       212.000         147.000
  24122521.938    -5220636.32649  -3939077.59445  24122522.165    24122530.221
       215.000         147.000
  22631099.786   -14067467.21449 -10731730.65046  22631099.866    22631108.947
       226.000         178.000
  20538008.124   -22829555.08149 -16358006.99548  20538007.233    20538014.737
       244.000         214.000
  21091220.925   -19887874.14249 -14877460.44647  21091220.312    21091228.104
       236.000         197.000
  21197280.212   -21582136.27349 -16214415.94748  21197279.479    21197286.954
       244.000         213.000
 00 10 23  2 22 30.0000000  0  6G27G11G26G 7G 8G 2
  23534788.122   -10305646.05249  -8019225.53845  23534788.315    23534799.047
       211.000         147.000
  24130092.523    -5180852.77349  -3908077.35445  24130092.345    24130101.285
       209.000         147.000
  22630918.699   -14068418.08949 -10732471.56946  22630918.941    22630927.492
       227.000         179.000
  20533660.272   -22852402.83549 -16375810.37048  20533659.763    20533667.271
       244.000         214.000
  21104064.290   -19820381.84449 -14824869.04147  21104064.080    21104071.580
       236.000         197.000
  21196811.047   -21584601.56649 -16216336.90448  21196810.453    21196817.959
       244.000         213.000
 00 10 23  2 23  0.0000000  0  6G27G11G26G 7G 8G 2
  23553781.121   -10205837.30749  -7941452.58245  23553780.797    23553792.857
       210.000         147.000
  24137753.815    -5140592.23949  -3876705.47145  24137753.481    24137762.822
       213.000         147.000
  22630841.013   -14068827.28349 -10732790.39146  22630841.235    22630849.690
       226.000         179.000
  20529397.492   -22874803.62649 -16393265.45648  20529396.744    20529404.261
       244.000         214.000
  21116983.263   -19752492.00149 -14771967.85347  21116982.827    21116990.362
       235.000         197.000
  21196365.629   -21586942.20149 -16218160.71848  21196364.932    21196372.198
       244.000         213.000
 00 10 23  2 23 30.0000000  0  6G27G11G26G 7G 8G 2
  23572819.429   -10105790.68649  -7863494.25845  23572819.387    23572829.532
       210.000         147.000
  24145506.124    -5099853.35149  -3844960.83145  24145505.095    24145514.881
       213.000         146.000
  22630866.419   -14068693.12849 -10732685.83846  22630865.997    22630875.245
       226.000         179.000
  20525220.101   -22896755.68349 -16410370.88848  20525219.646    20525226.990
       244.000         214.000
  21129978.128   -19684203.46449 -14718756.01147  21129977.781    21129985.400
       236.000         197.000
  21195944.364   -21589155.69549 -16219885.47648  21195943.933    21195951.306
       244.000         213.000
 00 10 23  2 24  0.0000000  0  6G27G11G26G 7G 8G 2
  23591902.253   -10005510.09649  -7785353.61945  23591902.646    23591913.002
       212.000         147.000
  24153348.853    -5058639.58549  -3812846.15745  24153348.535    24153357.529
       211.000         146.000
  22630994.757   -14068018.21149 -10732159.91346  22630995.268    22631003.917
       229.000         179.000
  20521127.645   -22918261.39549 -16427128.50348  20521126.969    20521134.305
       246.000         214.000
  21143048.264   -19615519.43949 -14665235.97447  21143047.713    21143055.545
       238.000         196.000
  21195546.887   -21591244.17349 -16221512.80248  21195546.139    21195553.639
       246.000         213.000
 00 10 23  2 24 30.0000000  0  6G27G11G26G 7G 8G 2
  23611029.653    -9904995.15849  -7707030.37145  23611029.614    23611040.113
       210.000         147.000
  24161282.086    -5016950.07349  -3780360.77445  24161280.683    24161290.370
       210.000         146.000
  22631226.369   -14066801.18649 -10731211.56146  22631227.038    22631235.445
       227.000         179.000
  20517120.426   -22939319.27749 -16443537.17648  20517119.704    20517127.184
       245.000         214.000
  21156193.881   -19546438.79449 -14611406.90647  21156193.492    21156200.955
       236.000         196.000
  21195173.651   -21593205.45749 -16223041.03148  21195172.957    21195180.212
       244.000         213.000
 00 10 23  2 25  0.0000000  0  6G27G11G26G 7G 8G 2
  23630201.181    -9804248.41549  -7628526.50345  23630200.832    23630212.550
       210.000         147.000
  24169305.500    -4974786.49249  -3747505.99745  24169305.408    24169314.340
       213.000         146.000
  22631560.924   -14065043.45849 -10729841.88246  22631561.516    22631569.848
       228.000         179.000
  20513198.203   -22959930.37449 -16459597.70048  20513197.639    20513204.841
       246.000         214.000
  21169414.669   -19476963.13849 -14557270.02747  21169414.489    21169421.982
       237.000         196.000
  21194824.494   -21595040.02649 -16224470.51748  21194823.939    21194831.404
       245.000         213.000
 00 10 23  2 25 30.0000000  0  6G27G11G26G 7G 8G 2
  23649416.421    -9703272.19949  -7549843.82745  23649417.379    23649426.573
       210.000         147.000
  24177418.849    -4932150.05449  -3714282.74145  24177418.392    24177428.481
       210.000         146.000
  22631998.194   -14062746.00249 -10728051.64146  22631998.044    22632007.131
       227.000         179.000
  20509360.833   -22980095.60749 -16475310.79648  20509360.235    20509367.642
       244.000         214.000
  21182710.270   -19407094.33249 -14502826.79947  21182710.075    21182717.846
       235.000         196.000
  21194499.404   -21596748.12449 -16225801.45048  21194498.784    21194506.365
       243.000         213.000
 00 10 23  2 26  0.0000000  0  6G27G11G26G 7G 8G 2
  23668675.030    -9602067.87249  -7470983.38745  23668674.847    23668685.739
       210.000         146.000
  24185622.025    -4889042.02549  -3680692.01945  24185620.144    24185629.856
       206.000         146.000
  22632538.149   -14059909.20249 -10725841.11946  22632538.120    22632546.788
       228.000         179.000
  20505608.268   -22999815.09649 -16490676.56348  20505607.523    20505615.049
       244.000         214.000
  21196080.595   -19336832.75249 -14448077.51347  21196080.279    21196087.706
       235.000         195.000
  21194198.463   -21598329.36049 -16227033.53048  21194197.852    21194205.128
       244.000         213.000
 00 10 23  2 26 30.0000000  0  6G27G11G26G 7G 8G 2
  23687976.644    -9500637.40249  -7391946.74245  23687976.595    23687987.372
       211.000         145.000
  24193914.636    -4845463.48849  -3646734.69245  24193914.561    24193923.960
       211.000         146.000
  22633180.325   -14056533.75849 -10723210.88846  22633180.215    22633189.322
       227.000         179.000
  20501940.425   -23019089.38849 -16505695.42348  20501939.862    20501947.199
       245.000         214.000
  21209525.454   -19266179.48949 -14393023.02547  21209524.981    21209532.773
       235.000         195.000
  21193921.770   -21599783.23449 -16228166.36748  21193921.174    21193928.628
       244.000         213.000
 00 10 23  2 27  0.0000000  0  6G27G11G26G 7G 8G 2
  23707321.297    -9398980.68249  -7312733.80245  23707321.213    23707331.612
       212.000         145.000
  24202297.084    -4801413.45049  -3612409.94745  24202297.718    24202306.077
       215.000         146.000
  22633925.300   -14052618.57449 -10720160.06846  22633925.170    22633934.094
       227.000         179.000
  20498357.613   -23037917.05249 -16520366.26548  20498356.953    20498364.218
       244.000         214.000
  21223044.931   -19195134.06349 -14337662.95347  21223044.692    21223052.186
       234.000         195.000
  21193669.716   -21601107.64749 -16229198.32448  21193669.258    21193676.440
       244.000         213.000
 00 10 23  2 27 30.0000000  0  6G27G11G26G 7G 8G 2
  23726708.251    -9297102.10649  -7233347.98645  23726708.671    23726720.145
       211.000         145.000
  24210768.479    -4756895.92049  -3577720.89745  24210767.185    24210777.113
       212.000         146.000
  22634772.407   -14048166.71349 -10716691.05746  22634772.413    22634780.883
       227.000         179.000
  20494859.179   -23056301.10749 -16534691.43748  20494858.435    20494865.786
       244.000         214.000
  21236638.410   -19123699.81749 -14281999.90647  21236637.672    21236645.522
       235.000         195.000
  21193441.793   -21602305.09449 -16230131.34948  21193440.966    21193448.459
       244.000         213.000
 00 10 23  2 28  0.0000000  0  6G27G11G26G 7G 8G 2
  23746137.529    -9195000.89949  -7153788.68345  23746137.711    23746148.029
       206.000         145.000
  24219329.118    -4711909.58049  -3542666.56745  24219328.298    24219337.114
       207.000         146.000
  22635721.936   -14043176.60949 -10712802.62846  22635722.066    22635730.640
       227.000         179.000
  20491445.602   -23074239.47149 -16548669.32048  20491445.028    20491452.234
       245.000         214.000
  21250306.143   -19051875.32049 -14226032.77547  21250305.689    21250313.360
       235.000         194.000
  21193238.567   -21603372.92049 -16230963.37248  21193238.067    21193245.132
       244.000         213.000
 00 10 23  2 28 30.0000000  0  6G27G11G26G 7G 8G 2
  23765608.577    -9092680.32549  -7074058.45645  23765608.931    23765619.362
       205.000         145.000
  24227978.489    -4666456.88749  -3507248.84645  24227977.670    24227986.611
       208.000         146.000
  22636773.501   -14037650.36649 -10708496.41846  22636773.528    22636782.035
       227.000         179.000
  20488116.405   -23091734.25149 -16562301.55248  20488115.713    20488122.965
       245.000         214.000
  21264047.661   -18979663.30449 -14169763.67447  21264046.947    21264055.047
       234.000         194.000
  21193059.788   -21604312.24549 -16231695.25848  21193058.941    21193066.300
       244.000         213.000
 00 10 23  2 29  0.0000000  0  6G27G11G26G 7G 8G 2
  23785121.052    -8990141.81649  -6994158.40645  23785120.923    23785132.650
       207.000         144.000
  24236716.310    -4620538.98149  -3471468.63945  24236716.530    24236724.066
       211.000         146.000
  22637926.956   -14031588.49849 -10703772.84746  22637927.279    22637935.249
       228.000         179.000
  20484871.593   -23108785.55049 -16575588.22548  20484870.999    20484878.178
       245.000         214.000
  21277862.753   -18907064.52949 -14113193.21747  21277862.252    21277869.642
       235.000         194.000
  21192905.557   -21605122.40649 -16232326.51548  21192904.967    21192912.157
       245.000         213.000
 00 10 23  2 29 30.0000000  0  6G27G11G26G 7G 8G 2
  23804674.544    -8887387.78849  -6914090.41145  23804674.617    23804685.786
       207.000         143.000
  24245542.413    -4574157.46249  -3435327.17445  24245542.390    24245550.371
       213.000         146.000
  22639182.086   -14024992.48049 -10698633.04846  22639182.300    22639190.515
       228.000         179.000
  20481710.978   -23125394.42449 -16588530.13748  20481710.047    20481717.220
       245.000         214.000
  21291751.156   -18834080.42949 -14056322.49747  21291750.618    21291758.410
       234.000         193.000
  21192775.906   -21605803.62649 -16232857.28248  21192774.857    21192782.398
       245.000         213.000
 00 10 23  2 30  0.0000000  0  6G27G11G26G 7G 8G 2
  23824268.953    -8784418.57849  -6833854.75045  23824269.142    23824279.457
       205.000         142.000
  24254456.787    -4527312.10149  -3398824.25545  24254457.229    24254465.058
       211.000         145.000
  22640538.943   -14017861.47349 -10693076.36446  22640539.431    22640547.941
       228.000         179.000
  20478634.723   -23141560.00449 -16601126.63748  20478634.207    20478641.471
       245.000         215.000
  21305712.951   -18760710.78649 -13999151.35947  21305712.642    21305720.129
       234.000         193.000
  21192671.093   -21606354.12149 -16233286.19848  21192670.619    21192677.789
       245.000         213.000
 00 10 23  2 30 30.0000000  0  6G27G11G26G 7G 8G 2
  23843903.877    -8681236.73649  -6753453.39345  23843904.139    23843915.059
       205.000         141.000
  24263458.975    -4480004.96949  -3361961.52145  24263458.587    24263467.256
       210.000         145.000
  22641997.419   -14010197.07449 -10687104.05046  22641997.711    22642006.494
       227.000         179.000
  20475642.576   -23157283.65749 -16613378.76848  20475642.068    20475649.046
       244.000         215.000
  21319747.708   -18686957.61749 -13941681.36247  21319747.036    21319754.789
       233.000         193.000
  21192591.028   -21606774.62149 -16233613.80848  21192590.425    21192597.508
       243.000         213.000
 00 10 23  2 31  0.0000000  0  7G 4G27G11G26G 7G 8G 2
  24396163.277    -2419629.57949  -1862650.50945  24396162.018    24396175.289
       207.000         134.000
  23863578.153    -8577847.86649  -6672890.71945  23863578.079    23863588.790
       207.000         140.000
  24272548.076    -4432241.10649  -3324742.88245  24272547.545    24272556.514
       206.000         144.000
  22643556.622   -14002004.00949 -10680719.78646  22643556.362    22643565.615
       227.000         179.000
  20472733.699   -23172569.62149 -16625289.84448  20472732.942    20472740.137
       245.000         215.000
  21333854.562   -18612825.67149 -13883916.22147  21333854.010    21333861.645
       234.000         192.000
  21192535.105   -21607068.43649 -16233842.70048  21192534.274    21192541.542
       244.000         213.000
 00 10 23  2 31 30.0000000  0  7G 4G27G11G26G 7G 8G 2
  24376193.920    -2524567.13949  -1944419.52745  24376193.802    24376205.981
       209.000         135.000
  23883291.763    -8474252.52249  -6592167.15045  23883291.142    23883302.531
       205.000         140.000
  24281724.082    -4384020.47849  -3287168.34345  24281723.263    24281732.407
       209.000         144.000
  22645216.579   -13993281.64849 -10673923.07646  22645216.043    22645224.755
       229.000         179.000
  20469908.270   -23187417.17449 -16636859.31148  20469907.578    20469914.581
       245.000         215.000
  21348033.481   -18538314.88549 -13825855.88747  21348032.814    21348040.870
       234.000         192.000
  21192503.585   -21607233.83549 -16233971.53948  21192503.035    21192510.018
       245.000         213.000
 00 10 23  2 32  0.0000000  0  7G 4G27G11G26G 7G 8G 2
  24356211.331    -2629574.13949  -2026242.63945  24356209.457    24356224.148
       207.000         135.000
  23903045.196    -8370447.73649  -6511280.38745  23903044.617    23903056.331
       206.000         141.000
  24290987.738    -4335339.67349  -3249235.22245  24290986.670    24290995.743
       211.000         143.000
  22646977.834   -13984026.34249 -10666711.08246  22646978.313    22646986.356
       227.000         179.000
  20467167.041   -23201822.22249 -16648083.96548  20467166.276    20467173.546
       244.000         215.000
  21362285.180   -18463421.59949 -13767497.48947  21362284.948    21362292.238
       233.000         192.000
  21192497.498   -21607265.72149 -16233996.33848  21192496.650    21192503.981
       244.000         213.000
 00 10 23  2 32 30.0000000  0  7G 4G27G11G26G 7G 8G 2
  24336216.123    -2734647.24549  -2108117.28045  24336213.630    24336229.705
       204.000         135.000
  23922838.294    -8266434.99549  -6430231.57645  23922837.604    23922849.015
       206.000         141.000
  24300338.721    -4286199.44049  -3210944.11345  24300339.055    24300347.217
       212.000         142.000
  22648840.362   -13974238.54449 -10659084.16246  22648840.144    22648848.326
       227.000         179.000
  20464509.997   -23215784.88149 -16658963.90048  20464509.305    20464516.423
       244.000         215.000
  21376609.575   -18388146.54949 -13708841.62547  21376609.211    21376616.942
       233.000         192.000
  21192516.893   -21607163.65949 -16233916.76348  21192516.196    21192523.641
       243.000         213.000
 00 10 23  2 33  0.0000000  0  7G 4G27G11G26G 7G 8G 2
  24316208.640    -2839785.31149  -2190042.53845  24316207.640    24316220.319
       204.000         134.000
  23942670.254    -8162217.52149  -6349023.23845  23942671.004    23942680.031
       202.000         139.000
  24309776.654    -4236602.61549  -3172297.19545  24309776.792    24309786.379
       213.000         142.000
  22650803.738   -13963920.53849 -10651044.10146  22650803.635    22650812.468
       227.000         179.000
  20461936.739   -23229307.14349 -16669500.67448  20461936.246    20461943.449
       244.000         215.000
  21391006.068   -18312492.48649 -13649890.42447  21391005.845    21391013.484
       233.000         191.000
  21192561.627   -21606928.42049 -16233733.41948  21192561.105    21192568.132
       243.000         213.000
 00 10 23  2 33 30.0000000  0  7G 4G27G11G26G 7G 8G 2
  24296189.006    -2944987.01649  -2272017.39645  24296186.540    24296200.337
       203.000         134.000
  23962540.523    -8057798.82749  -6267658.09345  23962540.708    23962552.135
       205.000         140.000
  24319300.941    -4186552.23949  -3133296.85745  24319300.389    24319309.855
       215.000         141.000
  22652867.544   -13953075.04549 -10642592.99346  22652867.736    22652875.970
       227.000         179.000
  20459446.839   -23242391.43749 -16679696.15948  20459445.930    20459453.276
       245.000         215.000
  21405474.181   -18236462.15149 -13590646.01247  21405474.159    21405481.630
       233.000         191.000
  21192631.394   -21606561.49849 -16233447.45148  21192630.747    21192637.894
       245.000         213.000
 00 10 23  2 34  0.0000000  0  7G 4G27G11G26G 7G 8G 2
  24276157.934    -3050248.86149  -2354039.08845  24276156.956    24276170.025
       206.000         134.000
  23982448.959    -7953179.83149  -6186136.86545  23982448.846    23982460.520
       204.000         139.000
  24328911.361    -4136048.73249  -3093943.44045  24328912.065    24328920.637
       211.000         142.000
  22655031.629   -13941702.06249 -10633730.86346  22655031.878    22655039.668
       229.000         179.000
  20457040.367   -23255037.31249 -16689550.02448  20457039.676    20457046.951
       246.000         215.000
  21420013.825   -18160055.76549 -13531108.57747  21420013.613    21420020.987
       234.000         191.000
  21192726.501   -21606061.57749 -16233057.85448  21192726.051    21192733.099
       245.000         213.000
 00 10 23  2 34 30.0000000  0  7G 4G27G11G26G 7G 8G 2
  24256116.103    -3155567.50349  -2436105.05145  24256115.261    24256127.361
       205.000         134.000
  24002395.201    -7848361.94149  -6104460.68545  24002394.998    24002406.195
       206.000         139.000
  24338607.913    -4085093.01649  -3054237.65645  24338608.282    24338615.710
       211.000         141.000
  22657296.090   -13929802.16849 -10624458.14846  22657295.581    22657304.740
       228.000         179.000
  20454717.294   -23267245.01549 -16699062.46048  20454716.524    20454723.557
       245.000         215.000
  21434624.872   -18083274.25749 -13471278.83947  21434624.268    21434632.126
       233.000         191.000
  21192847.073   -21605427.78649 -16232563.94448  21192846.328    21192853.494
       244.000         213.000
 00 10 23  2 35  0.0000000  0  7G 4G27G11G26G 7G 8G 2
  24236063.923    -3260940.33549  -2518213.24845  24236062.953    24236076.339
       206.000         135.000
  24022378.893    -7743347.21849  -6022631.09645  24022378.563    24022388.686
       202.000         138.000
  24348390.156    -4033686.42849  -3014180.53245  24348389.431    24348399.896
       206.000         141.000
  22659660.583   -13917376.44349 -10614775.71546  22659661.333    22659668.897
       227.000         179.000
  20452477.425   -23279015.33149 -16708234.08048  20452476.925    20452483.764
       244.000         215.000
  21449307.120   -18006118.70549 -13411157.64947  21449306.844    21449314.591
       232.000         191.000
  21192993.141   -21604659.83449 -16231965.50248  21192992.627    21192999.623
       243.000         213.000
 00 10 23  2 35 30.0000000  0  7G 4G27G11G26G 7G 8G 2
  24216001.704    -3366366.02049  -2600362.65045  24216000.392    24216013.950
       208.000         135.000
  24042399.418    -7638138.86949  -5940650.66045  24042399.183    24042409.918
       204.000         138.000
  24358257.723    -3981831.96649  -2973774.42145  24358255.900    24358266.159
       202.000         141.000
  22662124.559   -13904427.45249 -10604685.51946  22662124.548    22662132.906
       228.000         179.000
  20450320.368   -23290350.39949 -16717066.53248  20450319.678    20450326.643
       245.000         215.000
  21464059.954   -17928592.11549 -13350747.32447  21464059.511    21464067.009
       233.000         190.000
  21193164.575   -21603758.80649 -16231263.35748  21193163.868    21193171.044
       244.000         213.000
 00 10 23  2 36  0.0000000  0  7G 4G27G11G26G 7G 8G 2
  24195930.307    -3471840.10649  -2682549.76045  24195930.036    24195941.179
       207.000         136.000
  24062456.762    -7532737.35849  -5858519.69545  24062457.188    24062467.589
       206.000         138.000
  24368210.486    -3929529.62049  -2933019.31845  24368209.969    24368218.675
       201.000         141.000
  22664688.205   -13890954.84349 -10594187.31646  22664688.433    22664696.538
       227.000         179.000
  20448246.280   -23301249.53949 -16725559.30048  20448245.264    20448252.407
       245.000         215.000
  21478883.441   -17850694.12749 -13290047.60147  21478882.899    21478890.601
       233.000         190.000
  21193361.666   -21602722.89449 -16230456.10948  21193360.862    21193367.973
       245.000         213.000
 00 10 23  2 36 30.0000000  0  7G 4G27G11G26G 7G 8G 2
  24175850.082    -3577360.43049  -2764772.90545  24175849.308    24175861.675
       208.000         135.000
  24082550.384    -7427145.11449  -5776240.09645  24082549.908    24082561.468
       206.000         138.000
  24378248.096    -3876781.52749  -2891916.88845  24378247.201    24378256.622
       209.000         141.000
  22667351.228   -13876960.11749 -10583282.28846  22667351.429    22667360.236
       226.000         179.000
  20446254.944   -23311713.81949 -16733713.22848  20446254.163    20446261.309
       244.000         215.000
  21493777.313   -17772426.45149 -13229059.81647  21493777.218    21493784.726
       232.000         190.000
  21193584.411   -21601552.14449 -16229543.80548  21193583.967    21193590.938
       243.000         213.000
 00 10 23  2 37  0.0000000  0  7G 4G27G11G26G 7G 8G 2
  24155761.642    -3682924.04649  -2847029.79445  24155759.855    24155772.352
       202.000         136.000
  24102679.954    -7321363.74849  -5693813.11345  24102680.012    24102691.260
       206.000         139.000
  24388370.326    -3823588.87949  -2850468.05045  24388370.383    24388379.564
       210.000         140.000
  22670113.369   -13862444.32849 -10571971.22846  22670113.927    22670121.815
       228.000         179.000
  20444346.230   -23321744.00749 -16741528.89848  20444345.654    20444352.597
       245.000         215.000
  21508741.257   -17693790.40249 -13167784.98947  21508740.819    21508748.301
       233.000         190.000
  21193832.943   -21600246.10749 -16228526.08448  21193832.285    21193839.553
       245.000         213.000
 00 10 23  2 37 30.0000000  0  7G 4G27G11G26G 7G 8G 2
  24135665.387    -3788528.36149  -2929318.42445  24135663.898    24135676.525
       206.000         135.000
  24122845.114    -7215395.45849  -5611240.49645  24122845.432    24122858.075
       203.000         137.000
  24398576.779    -3769953.20449  -2808673.99445  24398576.397    24398585.612
       208.000         140.000
  22672974.513   -13847408.77849 -10560255.17146  22672974.816    22672982.777
       227.000         179.000
  20442519.930   -23331340.92649 -16749006.95248  20442519.318    20442526.364
       244.000         215.000
  21523775.060   -17614787.29549 -13106224.13847  21523775.260    21523782.500
       232.000         189.000
  21194107.185   -21598804.70349 -16227402.88048  21194106.655    21194113.676
       244.000         213.000
 00 10 23  2 38  0.0000000  0  7G 4G27G11G26G 7G 8G 2
  24115561.936    -3894170.74749  -3011636.71145  24115561.104    24115572.984
       202.000         136.000
  24143045.401    -7109242.36949  -5528523.87945  24143044.938    24143057.142
       203.000         136.000
  24408867.273    -3715876.19249  -2766536.05345  24408867.403    24408875.881
       209.000         140.000
  22675934.415   -13831854.80449 -10548135.13646  22675934.787    22675942.653
       227.000         179.000
  20440775.940   -23340505.53849 -16756148.14548  20440775.486    20440782.345
       244.000         215.000
  21538878.448   -17535418.57249 -13044378.38747  21538877.845    21538885.661
       232.000         189.000
  21194407.285   -21597227.59749 -16226173.93448  21194406.867    21194413.877
       244.000         213.000
 00 10 23  2 38 30.0000000  0  7G 4G27G11G26G 7G 8G 2
  24095451.875    -3999847.89749  -3093982.10945  24095450.846    24095462.385
       202.000         137.000
  24163280.576    -7002906.09349  -5445664.53645  24163281.079    24163292.621
       203.000         137.000
  24419241.595    -3661358.87249  -2724054.99445  24419241.421    24419250.229
       201.000         140.000
  22678992.776   -13815783.06549 -10535611.64546  22678992.790    22679001.131
       227.000         179.000
  20439114.116   -23349238.12949 -16762952.69448  20439113.256    20439120.393
       244.000         215.000
  21554051.158   -17455685.29449 -12982248.57247  21554050.821    21554058.402
       232.000         189.000
  21194733.403   -21595513.78049 -16224838.45748  21194732.772    21194739.709
       244.000         213.000
 00 10 23  2 39  0.0000000  0  7G 4G27G11G26G 7G 8G 2
  24075335.757    -4105557.00549  -3176352.43145  24075333.723    24075347.704
       204.000         138.000
  24183550.284    -6896388.42149  -5362663.80845  24183550.706    24183561.220
       201.000         135.000
  24429699.398    -3606402.89949  -2681232.14145  24429698.751    24429707.508
       206.000         141.000
  22682149.329   -13799194.89549 -10522685.74946  22682149.605    22682157.922
       227.000         179.000
  20437534.352   -23357539.60449 -16769421.31948  20437533.620    20437540.574
       244.000         215.000
  21569293.027   -17375588.83749 -12919835.76047  21569292.569    21569299.928
       232.000         188.000
  21195085.544   -21593662.95749 -16223396.23148  21195084.938    21195091.945
       244.000         213.000
 00 10 23  2 39 30.0000000  0  8G 4G 9G27G11G26G 7G 8G 2
  24055212.782    -4211302.24249  -3258750.90345  24055211.683    24055223.829
       207.000         139.000
  24432450.789    -3989468.52749  -2867945.48845  24432449.797    24432462.722
       198.000         139.000
  24203852.742    -6789698.45349  -5279528.85145  24203853.491    24203863.880
       205.000         136.000
  24440238.981    -3551016.91649  -2638074.21945  24440238.015    24440247.106
       200.000         140.000
  22685402.563   -13782098.74149 -10509364.02546  22685402.712    22685411.213
       227.000         179.000
  20436035.116   -23365417.97249 -16775560.24948  20436034.358    20436041.219
       244.000         215.000
  21584602.396   -17295137.74049 -12857146.61647  21584601.951    21584609.829
       232.000         188.000
  21195462.484   -21591682.07349 -16221852.66048  21195461.927    21195469.034
       244.000         213.000
 00 10 23  2 40  0.0000000  0  8G 4G 9G27G11G26G 7G 8G 2
  24035085.414    -4317070.52549  -3341167.37045  24035084.907    24035096.706
       204.000         140.000
  24413168.344    -4090797.82649  -2946903.08245  24413168.795    24413178.708
       201.000         139.000
  24224189.634    -6682827.56649  -5196252.89645  24224189.523    24224200.658
       205.000         136.000
  24450862.024    -3495192.14149  -2594574.36345  24450861.701    24450870.423
       205.000         140.000
  22688754.262   -13764485.32349 -10495639.23146  22688754.392    22688762.810
       227.000         179.000
  20434618.247   -23372863.42449 -16781361.84248  20434617.569    20434624.447
       244.000         215.000
  21599980.930   -17214322.98549 -12794174.09747  21599980.435    21599988.340
       231.000         188.000
  21195866.251   -21589560.05949 -16220199.11448  21195865.688    21195872.588
       244.000         213.000
 00 10 23  2 40 30.0000000  0  8G 4G 9G27G11G26G 7G 8G 2
  24014953.951    -4422860.29449  -3423600.59145  24014952.644    24014964.744
       206.000         140.000
  24393900.539    -4192049.80849  -3025800.42945  24393901.074    24393911.747
       200.000         141.000
  24244560.395    -6575779.18049  -5112838.63645  24244560.150    24244573.622
       204.000         135.000
  24461568.031    -3438931.50249  -2550734.89245  24461567.679    24461576.615
       208.000         139.000
  22692203.939   -13746357.27149 -10481513.42146  22692204.104    22692212.063
       227.000         179.000
  20433283.259   -23379878.39849 -16786827.99848  20433282.563    20433289.513
       244.000         215.000
  21615428.227   -17133147.04949 -12730920.13747  21615427.961    21615435.180
       231.000         188.000
  21196296.711   -21587297.90249 -16218436.36248  21196296.160    21196303.072
       244.000         213.000
 00 10 23  2 41  0.0000000  0  8G 4G 9G27G11G26G 7G 8G 2
  23994818.817    -4528669.55549  -3506049.01845  23994817.504    23994829.928
       206.000         140.000
  24374647.684    -4293223.20649  -3104636.51445  24374647.143    24374658.507
       207.000         140.000
  24264964.241    -6468556.40449  -5029288.51045  24264965.104    24264975.236
       204.000         134.000
  24472356.522    -3382237.76949  -2506557.93845  24472356.340    24472365.051
       210.000         140.000
  22695751.023   -13727717.02349 -10466988.49546  22695751.039    22695759.226
       228.000         179.000
  20432029.918   -23386464.58149 -16791960.03048  20432029.310    20432035.991
       245.000         215.000
  21630943.756   -17051612.44849 -12667386.69546  21630943.270    21630950.793
       233.000         187.000
  21196753.695   -21584896.27549 -16216564.92748  21196753.013    21196759.944
       245.000         213.000
 00 10 23  2 41 30.0000000  0  8G 4G 9G27G11G26G 7G 8G 2
  23974680.522    -4634495.55749  -3588510.48245  23974680.294    23974690.396
       206.000         142.000
  24355410.137    -4394316.06549  -3183409.81745  24355409.341    24355420.476
       205.000         140.000
  24285400.986    -6361161.03649  -4945603.88845  24285399.588    24285413.058
       204.000         133.000
  24483227.174    -3325112.18849  -2462044.46745  24483225.496    24483235.391
       197.000         139.000
  22699395.365   -13708565.71449 -10452065.34546  22699395.376    22699403.612
       228.000         179.000
  20430858.022   -23392622.73149 -16796758.53748  20430857.362    20430864.243
       244.000         215.000
  21646527.288   -16969720.51949 -12603574.82646  21646526.931    21646534.449
       232.000         187.000
  21197237.323   -21582354.62449 -16214584.38748  21197236.788    21197243.660
       243.000         213.000
 00 10 23  2 42  0.0000000  0  7G 4G 9G11G26G 7G 8G 2
  23954539.467    -4740335.92849  -3670983.17045  23954538.678    23954550.340
       206.000         142.000
  24336188.213    -4495326.80949  -3262119.12145  24336187.968    24336199.836
       210.000         142.000
  24494179.503    -3267557.05849  -2417196.32945  24494179.792    24494186.884
       207.000         138.000
  22703136.538   -13688905.40749 -10436745.57846  22703136.696    22703144.612
       226.000         179.000
  20429767.242   -23398354.49849 -16801224.79648  20429766.597    20429773.463
       244.000         215.000
  21662178.442   -16887473.26849 -12539486.08846  21662177.986    21662186.093
       231.000         187.000
  21197747.607   -21579673.03849 -16212494.80747  21197746.975    21197753.910
       244.000         212.000
 00 10 23  2 42 30.0000000  0  7G 4G 9G11G26G 7G 8G 2
  23934396.029    -4846189.01649  -3753465.76345  23934395.653    23934407.390
       207.000         143.000
  24316982.017    -4596254.62349  -3340763.80345  24316981.674    24316993.052
       212.000         142.000
  24505213.013    -3209575.44549  -2372015.83745  24505214.463    24505221.003
       217.000         138.000
  22706974.108   -13668738.45849 -10421031.01346  22706974.878    22706982.725
       229.000         179.000
  20428757.257   -23403661.77449 -16805360.28348  20428756.746    20428763.508
       246.000         215.000
  21677896.739   -16804873.12149 -12475122.36146  21677896.794    21677903.884
       232.000         187.000
  21198284.364   -21576852.21949 -16210296.72548  21198283.784    21198290.845
       245.000         213.000
 00 10 23  2 43  0.0000000  0  7G 4G 9G11G26G 7G 8G 2
  23914251.349    -4952048.59949  -3835953.43445  23914250.499    23914262.086
       206.000         143.000
  24297792.571    -4697094.64549  -3419340.07545  24297791.479    24297802.003
       207.000         141.000
  24516328.047    -3151165.69549  -2326501.73045  24516327.380    24516336.423
       209.000         138.000
  22710908.473   -13648063.32149 -10404920.47246  22710909.115    22710916.814
       227.000         179.000
  20427828.441   -23408542.61549 -16809163.49248  20427827.809    20427834.646
       244.000         215.000
  21693682.371   -16721919.06649 -12410482.86146  21693682.066    21693689.635
       231.000         186.000
  21198848.290   -21573888.66049 -16207987.42148  21198847.663    21198854.568
       243.000         213.000
 00 10 23  2 43 30.0000000  0  7G 4G 9G11G26G 7G 8G 2
  23894105.639    -5057913.51349  -3918445.25345  23894105.405    23894117.590
       208.000         143.000
  24278619.897    -4797846.15549  -3497847.35245  24278619.511    24278629.317
       210.000         141.000
  24527523.957    -3092330.90049  -2280656.41645  24527523.399    24527533.211
       199.000         137.000
  22714938.938   -13626882.88049 -10388416.18146  22714938.505    22714946.709
       227.000         179.000
  20426980.323   -23412999.25549 -16812636.15448  20426979.636    20426986.305
       244.000         215.000
  21709534.941   -16638613.27849 -12345569.27846  21709534.162    21709542.154
       230.000         186.000
  21199439.129   -21570783.59649 -16205567.84748  21199438.344    21199445.390
       244.000         213.000
 00 10 23  2 44  0.0000000  0  7G 4G 9G11G26G 7G 8G 2
  23873959.276    -5163781.93849  -4000939.81145  23873959.052    23873971.087
       209.000         144.000
  24259464.327    -4898508.01849  -3576284.80145  24259463.043    24259474.512
       214.000         142.000
  24538800.145    -3033073.75349  -2234481.99545  24538800.872    24538810.120
       210.000         138.000
  22719065.072   -13605199.56849 -10371520.03946  22719064.879    22719072.700
       229.000         179.000
  20426212.548   -23417033.72349 -16815779.85048  20426211.748    20426218.752
       246.000         215.000
  21725453.881   -16554958.69449 -12280383.91346  21725453.292    21725461.033
       232.000         186.000
  21200056.802   -21567537.53149 -16203038.40848  21200056.157    21200062.967
       246.000         213.000
 00 10 23  2 44 30.0000000  0  7G 4G 9G11G26G 7G 8G 2
  23853813.159    -5269649.21249  -4083433.47545  23853811.860    23853824.854
       209.000         145.000
  24240326.541    -4999076.50849  -3654649.51145  24240324.922    24240336.921
       214.000         143.000
  24550156.736    -2973394.37049  -2187978.56945  24550156.440    24550164.775
       211.000         138.000
  22723286.999   -13583013.05349 -10354231.79446  22723286.376    22723295.037
       228.000         179.000
  20425525.301   -23420645.00549 -16818593.79448  20425524.414    20425531.319
       246.000         215.000
  21741439.323   -16470954.79349 -12214926.35346  21741438.705    21741446.373
       232.000         186.000
  21200701.782   -21564148.00749 -16200397.17948  21200700.860    21200707.810
       246.000         213.000
 00 10 23  2 45  0.0000000  0  7G 4G 9G11G26G 7G 8G 2
  23833667.650    -5375513.16249  -4165924.55945  23833667.216    23833677.553
       210.000         145.000
  24221206.698    -5099550.57949  -3732940.65945  24221205.688    24221216.434
       212.000         141.000
  24561593.151    -2913295.44149  -2141148.21045  24561593.553    24561602.012
       212.000         138.000
  22727604.201   -13560325.84449 -10336553.40546  22727604.647    22727612.437
       228.000         179.000
  20424918.219   -23423835.26049 -16821079.66348  20424917.694    20424924.365
       246.000         215.000
  21757490.747   -16386604.06949 -12149198.54746  21757490.253    21757498.072
       232.000         185.000
  21201373.916   -21560615.76849 -16197644.74548  21201373.355    21201380.342
       246.000         213.000
 00 10 23  2 45 30.0000000  0  7G 4G 9G11G26G 7G 8G 2
  23813523.196    -5481371.58749  -4248411.34745  23813523.081    23813533.973
       211.000         146.000
  24202105.106    -5199928.83449  -3811157.18145  24202104.082    24202114.252
       213.000         141.000
  24573108.991    -2852779.31749  -2093992.77245  24573108.251    24573117.086
       207.000         137.000
  22732016.174   -13537140.02949 -10318486.48046  22732016.273    22732024.294
       227.000         179.000
  20424390.914   -23426606.04349 -16823238.66748  20424390.269    20424396.796
       245.000         215.000
  21773607.717   -16301908.94049 -12083202.36846  21773607.695    21773615.139
       230.000         185.000
  21202073.210   -21556940.81549 -16194781.09948  21202072.501    21202079.382
       244.000         213.000
 00 10 23  2 46  0.0000000  0  7G 4G 9G11G26G 7G 8G 2
  23793380.712    -5587220.23449  -4330890.50945  23793380.266    23793391.753
       209.000         146.000
  24183022.411    -5300207.64749  -3889296.21045  24183021.453    24183031.284
       213.000         142.000
  24584704.267    -2791845.98248  -2046512.21745  24584703.654    24584711.934
       193.000         137.000
  22736523.043   -13513455.71949 -10300031.12746  22736522.813    22736531.562
       227.000         179.000
  20423943.545   -23428956.80349 -16825070.38848  20423942.799    20423949.522
       244.000         215.000
  21789790.260   -16216869.21049 -12016937.67346  21789789.832    21789797.824
       230.000         185.000
  21202800.053   -21553121.12149 -16191804.67147  21202799.347    21202806.050
       243.000         212.000
 00 10 23  2 46 30.0000000  0  7G 4G 9G11G26G 7G 8G 2
  23773240.394    -5693057.12749  -4413360.53445  23773239.669    23773250.519
       212.000         147.000
  24163958.950    -5400385.78049  -3967356.82945  24163958.490    24163968.494
       213.000         142.000
  24596378.260    -2730498.58349  -1998709.04945  24596377.872    24596386.816
       213.000         137.000
  22741124.357   -13489275.36649 -10281189.24746  22741124.537    22741132.126
       228.000         178.000
  20423575.716   -23430889.60549 -16826576.43048  20423575.043    20423581.882
       246.000         215.000
  21806037.923   -16131487.28949 -11950406.34246  21806037.534    21806045.127
       231.000         184.000
  21203554.301   -21549157.34049 -16188715.97347  21203553.565    21203560.632
       245.000         212.000
 00 10 23  2 47  0.0000000  0  7G 4G 9G11G26G 7G 8G 2
  23753103.027    -5798878.56949  -4495818.51845  23753102.190    23753113.506
       210.000         147.000
  24144915.159    -5500460.56949  -4045336.97145  24144915.373    24144926.344
       214.000         142.000
  24608130.926    -2668738.10249  -1950583.96945  24608131.145    24608140.357
       201.000         137.000
  22745819.944   -13464599.90849 -10261961.57846  22745820.546    22745828.460
       227.000         178.000
  20423287.341   -23432404.80649 -16827757.06848  20423286.733    20423293.317
       244.000         215.000
  21822350.482   -16045764.18249 -11883609.14746  21822350.171    21822357.905
       230.000         184.000
  21204336.151   -21545048.48349 -16185514.22347  21204335.334    21204342.289
       244.000         212.000
 00 10 23  2 47 30.0000000  0  7G 4G 9G11G26G 7G 8G 2
  23732969.120    -5904681.71449  -4578262.24945  23732969.087    23732979.855
       211.000         147.000
  24125891.318    -5600430.35649  -4123235.31745  24125890.663    24125901.694
       212.000         142.000
  24619961.696    -2606566.59449  -1902138.62045  24619962.874    24619971.318
       211.000         137.000
  22750609.344   -13439431.08849 -10242349.47646  22750609.851    22750617.801
       227.000         178.000
  20423078.209   -23433503.66049 -16828613.28548  20423077.598    20423084.358
       244.000         215.000
  21838727.642   -15959701.84949 -11816547.62046  21838727.264    21838735.175
       230.000         183.000
  21205145.711   -21540794.11749 -16182199.10447  21205145.044    21205151.918
       244.000         212.000
 00 10 23  2 48  0.0000000  0  7G 4G 9G11G26G 7G 8G 2
  23712839.108    -6010464.39049  -4660690.03645  23712838.384    23712849.320
       211.000         147.000
  24106887.851    -5700293.17949  -4201050.31445  24106888.259    24106896.668
       212.000         142.000
  24631870.363    -2543986.42049  -1853374.82445  24631871.230    24631879.811
       205.000         136.000
  22755492.235   -13413771.06949 -10222354.60946  22755492.001    22755501.139
       227.000         178.000
  20422948.032   -23434187.50649 -16829146.11248  20422947.398    20422954.259
       244.000         215.000
  21855168.962   -15873302.19249 -11749223.23646  21855168.482    21855176.756
       229.000         183.000
  21205982.958   -21536394.09549 -16178770.47447  21205982.274    21205988.994
       243.000         212.000
 00 10 23  2 48 30.0000000  0  7G 4G 9G11G26G 7G 8G 2
  23692713.763    -6116222.59549  -4743098.76545  23692713.346    23692724.747
       211.000         148.000
  24087905.276    -5800046.04949  -4278779.65945  24087905.340    24087914.412
       212.000         142.000
  24643856.596    -2480998.22249  -1804293.10945  24643856.783    24643864.487
       208.000         137.000
  22760468.558   -13387620.60449 -10201977.58446  22760468.645    22760476.433
       228.000         178.000
  20422896.802   -23434456.59149 -16829355.75048  20422896.193    20422902.887
       244.000         215.000
  21871674.388   -15786565.57749 -11681636.29346  21871673.915    21871681.676
       229.000         183.000
  21206848.176   -21531847.14549 -16175227.35747  21206847.445    21206854.492
       244.000         212.000
 00 10 23  2 49  0.0000000  0  7G 4G 9G11G26G 7G 8G 2
  23672593.757    -6221952.99649  -4825485.84545  23672592.895    23672603.572
       212.000         148.000
  24068944.175    -5899686.44849  -4356421.37345  24068944.067    24068953.193
       209.000         143.000
  24655920.213    -2417603.56949  -1754894.66045  24655919.562    24655929.066
       207.000         136.000
  22765538.009   -13360980.74649 -10181219.23246  22765538.046    22765546.054
       228.000         179.000
  20422924.331   -23434311.70049 -16829242.81348  20422923.834    20422930.380
       245.000         215.000
  21888243.713   -15699493.42349 -11613787.89746  21888243.474    21888251.529
       230.000         182.000
  21207741.499   -21527152.55149 -16171569.20347  21207740.916    21207747.802
       245.000         212.000
 00 10 23  2 49 30.0000000  0  7G 4G 9G11G26G 7G 8G 2
  23652479.302    -6327654.32549  -4907850.26145  23652478.770    23652490.139
       211.000         148.000
  24050004.505    -5999214.06649  -4433975.20845  24050002.999    24050014.604
       208.000         143.000
  24668060.404    -2353805.88349  -1705182.13745  24668061.876    24668070.208
       212.000         136.000
  22770699.800   -13333854.90149 -10160082.17246  22770699.753    22770707.443
       226.000         178.000
  20423030.170   -23433755.30449 -16828809.21748  20423029.451    20423036.085
       244.000         215.000
  21904876.269   -15612088.91049 -11545680.51046  21904876.320    21904883.112
       229.000         182.000
  21208662.761   -21522311.14649 -16167796.64947  21208662.119    21208668.792
       243.000         212.000
